No downloads here. Check the wiki to understand what this site is about.

PRE DATA

Datetime Category Release
2019-04-16 00:00:29 TV-HD-X264 You.Me.Her.S04E01.720p.HDTV.x264-aAF
2019-04-16 00:01:26 TV-SD-X264 Supershoppers.S06E01.HDTV.x264-PLUTONiUM
2019-04-16 00:02:06 TV-SD-X264 Big.Brother.Canada.S07E18.HDTV.x264-aAF
2019-04-16 00:02:24 TV-SD-X264 Inside.Tesco.Britains.Biggest.Supermarket.2019.HDTV.x264-UNDERBELLY
2019-04-16 00:02:30 TV-HD-X264 Supershoppers.S06E01.720p.HDTV.x264-PLUTONiUM
2019-04-16 00:03:26 TV-HD-X264 Inside.Tesco.Britains.Biggest.Supermarket.2019.1080p.HDTV.x264-UNDERBELLY
2019-04-16 00:03:37 TV-HD-X264 Big.Brother.Canada.S07E18.720p.HDTV.x264-aAF
2019-04-16 00:07:53 TV-HD-X264 Bondeparet.S02E08.SWEDiSH.720p.WEB.X264-EXECUTION
2019-04-16 00:08:14 TV-HD-X264 Bondeparet.S02E08.SWEDiSH.1080p.WEB.X264-EXECUTION
2019-04-16 00:08:18 TV-HD-X264 Unga.Foraldrar.S08E09.SWEDiSH.720p.WEB.X264-EXECUTION
2019-04-16 00:08:44 TV-HD-X264 Supershoppers.S06E01.1080p.HDTV.h264-PLUTONiUM
2019-04-16 00:08:54 TV-HD-X264 Unga.Foraldrar.S08E09.SWEDiSH.1080p.WEB.X264-EXECUTION
2019-04-16 00:12:34 TV-SD-X264 Secrets.of.Egypts.Valley.of.the.Kings.S01E04.HDTV.x264-UNDERBELLY
2019-04-16 00:13:36 TV-HD-X264 Secrets.of.Egypts.Valley.of.the.Kings.S01E04.720p.HDTV.x264-UNDERBELLY
2019-04-16 00:14:38 TV-HD-X264 Secrets.of.Egypts.Valley.of.the.Kings.S01E04.1080p.HDTV.H264-UNDERBELLY
2019-04-16 00:15:58 TV-X264 Lets.Make.A.Deal.2009.S10E140.WEB.x264-W4F
2019-04-16 00:16:45 TV-HD-X264 Lets.Make.A.Deal.2009.S10E140.720p.WEB.x264-W4F
2019-04-16 00:17:47 TV-HD-X264 Lets.Make.A.Deal.2009.S10E140.1080p.WEB.x264-W4F
2019-04-16 00:18:50 TV-X264 The.Price.Is.Right.S47E138.WEB.x264-W4F
2019-04-16 00:19:40 TV-HD-X264 The.Price.Is.Right.S47E138.720p.WEB.x264-W4F
2019-04-16 00:20:47 TV-HD-X264 The.Price.Is.Right.S47E138.1080p.WEB.x264-W4F
2019-04-16 00:23:36 TV-HD-X264 Close.Calls.On.Camera.S07E06.720p.WEB.h264-LiGATE
2019-04-16 00:29:02 TV-HD-X264 Back.To.Life.S01E01.720p.HDTV.x264-MTB
2019-04-16 00:29:34 PRE Pram-Across_The_Meridian-2018-gF
2019-04-16 00:29:39 TV-SD-X264 Back.To.Life.S01E01.HDTV.x264-MTB
2019-04-16 00:30:01 TV-HD-X264 Brooklyn.Nine-Nine.S06E12.SUBFRENCH.720p.HDTV.x264-AMB3R
2019-04-16 00:30:09 TV-SD-X264 Brooklyn.Nine-Nine.S06E12.SUBFRENCH.HDTV.x264-AMB3R
2019-04-16 00:31:01 TV-HD-X264 Not.Going.Out.S10E01.1080p.HDTV.x264-MTB
2019-04-16 00:31:39 MP3 Ryuichi_Sakamoto-Async-Remodels-2018-gF
2019-04-16 00:34:08 TV-SD-X264 Mali.Sef.Slovenije.S01E03.SI.HDTV.x264-RADiOACTiVE
2019-04-16 00:34:09 TV-HD-X264 Mali.Sef.Slovenije.S01E03.SI.720p.HDTV.x264-RADiOACTiVE
2019-04-16 00:34:57 TV-SD-X264 Travel.Man.48.Hours.In.S09E01.Athens.HDTV.x264-PLUTONiUM
2019-04-16 00:35:59 TV-HD-X264 Travel.Man.48.Hours.In.S09E01.Athens.720p.HDTV.x264-PLUTONiUM
2019-04-16 00:45:37 TV-HD-X264 Travel.Man.48.Hours.In.S09E01.Athens.1080p.HDTV.h264-PLUTONiUM
2019-04-16 00:47:23 X264 The.Cabin.In.The.Woods.2012.MULTi.COMPLETE.UHD.BLURAY-SharpHD
2019-04-16 00:53:02 MP3 Agressor_Bunx-Acid_Mirage-WEB-2019-FALCON
2019-04-16 00:53:29 MP3 Alez-Salamandra-SINGLE-WEB-2019-FALCON
2019-04-16 00:53:56 MP3 Black_Sun_Empire-Surge_Engine_And_Ripsaw_EP-WEB-2018-FALCON
2019-04-16 00:54:23 MP3 Black_Sun_Empire_Vs._Nymfo-Mud-WEB-2019-FALCON
2019-04-16 00:54:49 MP3 Djantrix_Vs._Spirit_Architect_And_Modual-Ergot-SINGLE-WEB-2019-FALCON
2019-04-16 00:55:16 MP3 Dktronic-We_Are_The_Legend-WEB-2019-FALCON
2019-04-16 00:55:39 TV-X264 Hoarders.S08E01.720p.WEB.x264-GIMINI
2019-04-16 00:55:42 MP3 Doppler_Feat._DJ_Amxxl-Ear_God-SINGLE-WEB-2019-FALCON
2019-04-16 00:56:09 MP3 Doxa_Music-Sonar_Signals-SINGLE-WEB-2019-FALCON
2019-04-16 00:56:35 MP3 Emod-A_Split_Second-WEB-2019-FALCON
2019-04-16 00:56:41 TV-X264 Hoarders.S08E01.WEB.x264-GIMINI
2019-04-16 00:57:01 MP3 Hypnoise_And_Starlab-Pretty_High-SINGLE-WEB-2019-FALCON
2019-04-16 00:57:28 MP3 Impact-The_Lost_Tribe_Static_Movement_Edit_2019-SINGLE-WEB-2019-FALCON
2019-04-16 00:57:42 TV-HD-X264 Hoarders.S08E03.720p.WEB.x264-GIMINI
2019-04-16 00:57:54 MP3 Jilax-Sonorous-SINGLE-WEB-2019-FALCON
2019-04-16 00:58:21 MP3 Kliluk-Into_The_Vortex-WEB-2019-FALCON
2019-04-16 00:58:43 TV-X264 Hoarders.S08E03.WEB.x264-GIMINI
2019-04-16 00:58:47 MP3 Lasmar-Go_All_The_Way-SINGLE-WEB-2019-FALCON
2019-04-16 00:59:14 MP3 Levi_Lenz_And_Portto-Tateeno-WEB-2019-FALCON
2019-04-16 00:59:41 MP3 Made4now-Blast_It_Up-SINGLE-WEB-2019-FALCON
2019-04-16 00:59:44 TV-HD-X264 Hoarders.S08E04.720p.WEB.x264-GIMINI
2019-04-16 01:00:07 MP3 Moosfiebr-Moos_Express-WEB-2013-FALCON
2019-04-16 01:00:34 PRE Morsei-Redshift-WEB-2019-FALCON
2019-04-16 01:00:46 TV-X264 Hoarders.S08E04.WEB.x264-GIMINI
2019-04-16 01:01:00 MP3 Moshh3-Kind_Of_Technology-WEB-2019-FALCON
2019-04-16 01:01:27 MP3 Nacim_Ladj-Sounds_Of_Berlin_And_Ethereal_EP-WEB-2019-FALCON
2019-04-16 01:01:47 TV-HD-X264 Hoarders.S08E05.720p.WEB.x264-GIMINI
2019-04-16 01:01:53 MP3 Neelix-Mosquito_Dang3r_Remix-SINGLE-WEB-2019-FALCON
2019-04-16 01:02:20 MP3 Omegakot-Where_Are_You_Going-WEB-2019-FALCON
2019-04-16 01:02:46 MP3 Photosynthesis-After_Life-SINGLE-WEB-2019-FALCON
2019-04-16 01:02:48 TV-X264 Hoarders.S08E05.WEB.x264-GIMINI
2019-04-16 01:03:13 MP3 Pixel-Rock_It_Science_And_The_Grape_Escape_EP-WEB-2019-FALCON
2019-04-16 01:03:40 MP3 Shivatree-Hyperactive-WEB-2019-FALCON
2019-04-16 01:03:49 TV-HD-X264 Hoarders.S08E06.720p.WEB.x264-GIMINI
2019-04-16 01:04:07 MP3 Space_Travellers-Nano_Kinetics-WEB-2019-FALCON
2019-04-16 01:04:33 MP3 Ticon_And_Animato-Polygon-SINGLE-WEB-2019-FALCON
2019-04-16 01:04:51 TV-X264 Hoarders.S08E06.WEB.x264-GIMINI
2019-04-16 01:04:59 MP3 VA-All_Stars_Vol_7-WEB-2019-FALCON
2019-04-16 01:05:16 TV-X264 Paradise.Hotel.S11E21.NORWEGiAN.720p.HDTV.x264-NORPiLT
2019-04-16 01:05:26 MP3 VA-Mexican_Progression_004_Pt_4-Compiled_By_Stratil-WEB-2019-FALCON
2019-04-16 01:05:52 TV-HD-X264 Hoarders.S08E07.720p.WEB.x264-GIMINI
2019-04-16 01:05:53 PRE VA-Star_Beings-WEB-2019-FALCON
2019-04-16 01:06:19 MP3 Yar_Zaa-Electro_Drop-WEB-2019-FALCON
2019-04-16 01:06:46 MP3 Zombie_Scream-Lord_Time-WEB-2019-FALCON
2019-04-16 01:06:53 TV-X264 Hoarders.S08E07.WEB.x264-GIMINI
2019-04-16 01:07:54 TV-HD-X264 Hoarders.S08E08.720p.WEB.x264-GIMINI
2019-04-16 01:08:56 TV-X264 Hoarders.S08E08.WEB.x264-GIMINI
2019-04-16 01:09:57 TV-HD-X264 Hoarders.S08E09.720p.WEB.x264-GIMINI
2019-04-16 01:10:58 TV-X264 Hoarders.S08E09.WEB.x264-GIMINI
2019-04-16 01:11:59 TV-HD-X264 Hoarders.S08E10.720p.WEB.x264-GIMINI
2019-04-16 01:13:01 TV-X264 Hoarders.S08E10.WEB.x264-GIMINI
2019-04-16 01:13:18 TV-X264 Close.Calls.On.Camera.S07E06.WEB.h264-LiGATE
2019-04-16 01:14:02 TV-HD-X264 Hoarders.S08E11.720p.WEB.x264-GIMINI
2019-04-16 01:15:04 TV-X264 Hoarders.S08E11.WEB.x264-GIMINI
2019-04-16 01:16:05 TV-HD-X264 Hoarders.S08E12.720p.WEB.x264-GIMINI
2019-04-16 01:17:06 TV-X264 Hoarders.S08E12.WEB.x264-GIMINI
2019-04-16 01:18:07 TV-HD-X264 Hoarders.S08E13.720p.WEB.x264-GIMINI
2019-04-16 01:19:08 TV-X264 Hoarders.S08E13.WEB.x264-GIMINI
2019-04-16 01:20:10 TV-HD-X264 Hoarders.S08E14.720p.WEB.x264-GIMINI
2019-04-16 01:21:11 TV-X264 Hoarders.S08E14.WEB.x264-GIMINI
2019-04-16 01:22:12 TV-HD-X264 Hoarders.S08E15.720p.WEB.x264-GIMINI
2019-04-16 01:23:13 TV-X264 Hoarders.S08E15.WEB.x264-GIMINI
2019-04-16 01:23:46 MP3 Kid_Machine-Mysteries_Of_Earth_(And_Deep_Space)-2CD-2018-UPE
2019-04-16 01:24:15 TV-X264 Hoarders.S08E16.720p.WEB.x264-GIMINI
2019-04-16 01:25:16 TV-X264 Hoarders.S08E16.WEB.x264-GIMINI
2019-04-16 01:25:40 TV-HD-X264 Have.I.Got.News.For.You.S57E02.EXTENDED.720p.HDTV.x264-QPEL
2019-04-16 01:32:17 X264 Captain.America.Civil.War.2016.COMPLETE.UHD.BLURAY-TERMiNAL
2019-04-16 01:32:40 TV-SD-X264 TV.Talent.Shows.at.War.S01E02.The.Contestants.HDTV.x264-UNDERBELLY
2019-04-16 01:32:46 XXX-0DAY ATKExotics.19.04.14.Daizy.Cooper.Masturbation.XXX.1080p.MP4-KTR
2019-04-16 01:33:42 TV-HD-X264 TV.Talent.Shows.at.War.S01E02.The.Contestants.720p.HDTV.x264-UNDERBELLY
2019-04-16 01:34:40 XXX-0DAY ATKExotics.19.04.15.Daizy.Cooper.Toys.XXX.1080p.MP4-KTR
2019-04-16 01:34:44 TV-HD-X264 TV.Talent.Shows.at.War.S01E02.The.Contestants.1080p.HDTV.x264-UNDERBELLY
2019-04-16 01:36:18 XXX-0DAY ATKGalleria.19.04.15.Lenna.Lux.Masturbation.XXX.1080p.MP4-KTR
2019-04-16 01:36:39 PRE Hyperdimension.Neptunia.Re.Birth1.Survival-PLAZA
2019-04-16 01:37:53 XXX-0DAY ATKGalleria.19.04.15.Mallory.Monroe.Masturbation.XXX.1080p.MP4-KTR
2019-04-16 01:39:15 XXX-0DAY ATKGalleria.19.04.15.Melody.Marks.Interview.XXX.1080p.MP4-KTR
2019-04-16 01:41:00 XXX-0DAY ATKGalleria.19.04.15.Petra.Blair.Toys.XXX.1080p.MP4-KTR
2019-04-16 01:41:32 PRE Hyperdimension.Neptunia.Re.Birth2.Sisters.Generation.Survival-PLAZA
2019-04-16 01:42:40 XXX-0DAY ATKGalleria.19.04.15.Vera.Bliss.Toys.XXX.1080p.MP4-KTR
2019-04-16 01:44:42 XXX-0DAY ATKHairy.19.04.15.Alisha.XXX.1080p.MP4-KTR
2019-04-16 01:45:32 DAY Hyperdimension.Neptunia.Re.Birth3.V.Generation.Survival-PLAZA
2019-04-16 01:46:21 X264 Captain.America.The.Winter.Soldier.2014.COMPLETE.UHD.BLURAY-TERMiNAL
2019-04-16 01:46:27 XXX-0DAY ATKHairy.19.04.15.Niki.Snow.XXX.1080p.MP4-KTR
2019-04-16 01:47:43 XXX-0DAY AuntJudys.19.04.15.Kate.Finishes.Light.Housework.With.A.Furious.Pussy.Rubbing.XXX.1080p.MP4-KTR
2019-04-16 01:48:48 XXX-0DAY CzechCasting.19.04.16.Misa.5735.XXX.1080p.MP4-KTR
2019-04-16 01:52:37 XXX-0DAY CzechCasting.19.04.16.Misa.5735.XXX.2160p.MP4-KTR
2019-04-16 01:54:07 XXX-0DAY X-Art.19.04.14.Katy.Meant.To.Be.Forever.Sex.XXX.1080p.MP4-KTR
2019-04-16 01:55:43 XXX-0DAY PornMegaLoad.19.04.15.Janessa.Loren.Deep.Cleavage.Woman.XXX.1080p.MP4-KTR
2019-04-16 01:56:55 XXX-0DAY PornMegaLoad.19.04.15.Lavina.Dream.The.Office.Hottie.XXX.1080p.MP4-KTR
2019-04-16 01:58:51 TV-X264 Antiques.Roadshow.US.S23E11.1080p.WEB.h264-TBS
2019-04-16 01:58:53 TV-X264 Antiques.Roadshow.US.S23E11.WEB.h264-TBS
2019-04-16 01:58:58 XXX-0DAY GermanGooGirls.19.04.16.Nayomi.Sharp.And.Heidi.Van.Horny.The.Sperm.Friends.GERMAN.XXX.1080p.MP4-KTR
2019-04-16 01:58:59 TV-X264-HD Cops.S31E28.1080p.WEB.x264-TBS
2019-04-16 02:00:18 TV-HD-X264 Antiques.Roadshow.US.S23E11.720p.WEB.h264-TBS
2019-04-16 02:00:32 TV-X264-SD Cops.S31E28.WEB.x264-TBS
2019-04-16 02:00:41 TV-X264-HD Cops.S31E28.720p.WEB.x264-TBS
2019-04-16 02:01:17 XXX-0DAY X-Art.19.04.14.Katy.Meant.To.Be.Forever.Sex.XXX.2160p.MP4-KTR
2019-04-16 02:01:25 TV-HD-X264 Tradgardstider.S06E06.SWEDiSH.720p.WEB.H264-EXECUTION
2019-04-16 02:02:47 TV-X264-SD The.Resident.S02E20.WEB.x264-TBS
2019-04-16 02:03:16 TV-X264-HD The.Resident.S02E20.720p.WEB.x264-TBS
2019-04-16 02:03:19 TV-HD-X264 The.Resident.S02E20.1080p.WEB.x264-TBS
2019-04-16 02:04:17 TV-X264-SD Shadowhunters.The.Mortal.Instruments.S03E18.WEB.x264-TBS
2019-04-16 02:04:36 TV-SD-X264 Life.in.Pieces.S03E12.FRENCH.HDTV.x264-AMB3R
2019-04-16 02:04:45 TV-X264-HD Shadowhunters.The.Mortal.Instruments.S03E18.720p.WEB.x264-TBS
2019-04-16 02:06:19 TV-HD-X264 Fiskedestination.S05E05.SWEDiSH.720p.WEB.X264-EXECUTION
2019-04-16 02:06:21 TV-HD-X264 Biggest.Loser.Revanschen.S09E03.SWEDiSH.720p.WEB.X264-EXECUTION
2019-04-16 02:06:43 TV-HD-X264 Bagges.Hemlosa.Hundar.S03E02.SWEDiSH.720p.WEB.X264-EXECUTION
2019-04-16 02:06:49 TV-HD-X264 Biggest.Loser.Revanschen.S09E03.SWEDiSH.1080p.WEB.X264-EXECUTION
2019-04-16 02:08:13 XXX-0DAY Babes.19.04.16.Karissa.Shannon.Massage.Parlor.Predicament.XXX.1080p.MP4-KTR
2019-04-16 02:08:19 TV-HD-X264 Biggest.Loser.S09E04.SWEDiSH.720p.WEB.X264-EXECUTION
2019-04-16 02:09:29 TV-HD-X264 Biggest.Loser.S09E04.SWEDiSH.1080p.WEB.X264-EXECUTION
2019-04-16 02:09:41 XXX-0DAY CzechExecutor.19.04.16.Espoir.CZECH.XXX.1080p.MP4-KTR
2019-04-16 02:11:12 XXX-0DAY Fitting-Room.19.04.15.Gerda.XXX.1080p.MP4-KTR
2019-04-16 02:11:39 TV-HD-X264 Consumer.101.S01E17.720p.WEB.x264-CookieMonster
2019-04-16 02:11:59 NSW Nelke_and_the_Legendary_Alchemists_Ateliers_of_the_New_World_Appreciation_House_DLC_NSW-SUXXORS
2019-04-16 02:12:06 TV-HD-X264 Consumer.101.S01E17.1080p.WEB.x264-CookieMonster
2019-04-16 02:12:14 TV-X264 Consumer.101.S01E17.WEB.x264-CookieMonster
2019-04-16 02:12:23 XXX-0DAY JaysPOV.19.04.15.Sharon.Lee.Busty.Asian.Step.Mom.Gets.Creampied.XXX.1080p.MP4-KTR
2019-04-16 02:12:33 TV-HD-X264 Earth.Odyssey.with.Dylan.Dreyer.S01E09.720p.WEB.x264-CookieMonster
2019-04-16 02:12:39 DAY Human_Fall_Flat_Update_v1.4.2_NSW-SUXXORS
2019-04-16 02:12:43 TV-HD-X264 Earth.Odyssey.with.Dylan.Dreyer.S01E09.1080p.WEB.x264-CookieMonster
2019-04-16 02:12:46 TV-HD-X264 Police.Interceptors.S16E05.1080p.HDTV.x264-PLUTONiUM
2019-04-16 02:12:51 TV-X264 Earth.Odyssey.with.Dylan.Dreyer.S01E09.WEB.x264-CookieMonster
2019-04-16 02:13:08 TV-HD-X264 Naturally.Danny.Seo.S03E19.720p.WEB.x264-CookieMonster
2019-04-16 02:13:17 TV-HD-X264 Naturally.Danny.Seo.S03E19.1080p.WEB.x264-CookieMonster
2019-04-16 02:13:28 TV-X264 Naturally.Danny.Seo.S03E19.WEB.x264-CookieMonster
2019-04-16 02:13:47 TV-HD-X264 Police.Interceptors.S16E05.720p.HDTV.x264-PLUTONiUM
2019-04-16 02:13:52 TV-HD-X264 The.Voyager.with.Josh.Garcia.S03E19.720p.WEB.x264-CookieMonster
2019-04-16 02:14:01 TV-HD-X264 The.Voyager.with.Josh.Garcia.S03E19.1080p.WEB.x264-CookieMonster
2019-04-16 02:14:05 XXX-0DAY BrutalSessions.19.04.15.Luna.Rival.XXX.720p.MP4-KTR
2019-04-16 02:14:09 TV-X264 The.Voyager.with.Josh.Garcia.S03E19.WEB.x264-CookieMonster
2019-04-16 02:14:27 TV-HD-X264 Vets.Saving.Pets.S01E27.720p.WEB.x264-CookieMonster
2019-04-16 02:14:38 TV-HD-X264 Vets.Saving.Pets.S01E27.1080p.WEB.x264-CookieMonster
2019-04-16 02:14:48 TV-SD-X264 Police.Interceptors.S16E05.HDTV.x264-PLUTONiUM
2019-04-16 02:14:49 TV-X264 Vets.Saving.Pets.S01E27.WEB.x264-CookieMonster
2019-04-16 02:15:51 TV-HD-X264 24.Hours.In.Police.Custody.S08E06.Sudden.Death.Think.Murder.1080p.HDTV.h264-PLUTONiUM
2019-04-16 02:16:12 XXX-0DAY Fitting-Room.19.04.15.Gerda.XXX.2160p.MP4-KTR
2019-04-16 02:16:52 TV-HD-X264 24.Hours.In.Police.Custody.S08E06.Sudden.Death.Think.Murder.720p.HDTV.x264-PLUTONiUM
2019-04-16 02:17:53 TV-SD-X264 24.Hours.In.Police.Custody.S08E06.Sudden.Death.Think.Murder.HDTV.x264-PLUTONiUM
2019-04-16 02:18:31 XXX-0DAY JaysPOV.19.04.15.Sharon.Lee.Busty.Asian.Step.Mom.Gets.Creampied.XXX.2160p.MP4-KTR
2019-04-16 02:20:32 TV-SD-X264 IndyCar.2019.Long.Beach.Grand.Prix.PDTV.x264-GRiP
2019-04-16 02:21:41 TV-HD-X264 One.Piece.E880.SUBFRENCH.720p.HDTV.x264-AMB3R
2019-04-16 02:21:47 XXX-0DAY CzechExecutor.19.04.16.Espoir.CZECH.XXX.2160p.MP4-KTR
2019-04-16 02:22:18 TV-SD-X264 One.Piece.E880.SUBFRENCH.HDTV.x264-AMB3R
2019-04-16 02:45:13 TV-HD-NORDIC Over.Atlanten.S01E05.DANISH.720p.WEB.x264-BALLIN
2019-04-16 02:45:50 TV-X264 Over.Atlanten.S01E05.DANISH.1080p.WEB.x264-BALLIN
2019-04-16 02:47:02 TV-HD-NORDIC Gidseltagningen.S02E05.DANISH.720p.WEBRip.x264-BALLIN
2019-04-16 02:51:05 TV-HD-X264 Days.of.our.Lives.S54E143.720p.WEB.x264-W4F
2019-04-16 03:00:15 TV-HD-X264 DCs.Legends.of.Tomorrow.S04E11.720p.HDTV.x264-AVS
2019-04-16 03:00:52 TV-SD-X264 DCs.Legends.of.Tomorrow.S04E11.HDTV.x264-SVA
2019-04-16 03:02:09 TV-X264 9-1-1.S02E14.WEB.x264-TBS
2019-04-16 03:02:32 TV-HD-X264 9-1-1.S02E14.720p.WEB.x264-TBS
2019-04-16 03:02:58 TV-X264-HD 9-1-1.S02E14.1080p.WEB.x264-TBS
2019-04-16 03:04:19 TV-X264-SD Street.Outlaws.S13E06.WEB.x264-TBS
2019-04-16 03:04:34 TV-X264-HD Street.Outlaws.S13E06.720p.WEB.x264-TBS
2019-04-16 03:04:57 TV-X264-HD Street.Outlaws.S13E06.1080p.WEB.x264-TBS
2019-04-16 03:07:29 TV-HD-X264 Days.of.our.Lives.S54E143.1080p.WEB.x264-W4F
2019-04-16 03:07:40 TV-X264 Days.of.our.Lives.S54E143.WEB.x264-W4F
2019-04-16 03:11:13 XXX-0DAY PrivateSociety.19.04.15.Heidi.Goes.Black.Again.XXX.720p.MP4-KTR
2019-04-16 03:12:57 XXX-0DAY Bang.Surprise.19.04.16.Maya.Bijou.XXX.1080p.MP4-KTR
2019-04-16 03:14:28 XXX-0DAY HotLegsAndFeet.19.04.16.Rose.Full.Of.Fetish.Surprises.XXX.1080p.MP4-KTR
2019-04-16 03:16:28 XXX-0DAY HotLegsAndFeet.19.04.16.Rose.Full.Of.Fetish.Surprises.XXX.2160p.MP4-KTR
2019-04-16 03:24:44 TV-X264 Dancing.With.The.Stars.AU.S16E09.WEB.H264-FLX
2019-04-16 03:26:35 TV-X264 Australian.Story.S24E09.WEB.x264-FLX
2019-04-16 03:54:48 TV-HD-X264 How.Close.Can.I.Beach.S02E09.Stationed.Together.in.Gulfport.Mississippi.720p.WEBRip.x264-CAFFEiNE
2019-04-16 03:56:38 XXX-0DAY X-Art.19.04.15.Katy.And.Kaisa.Cum.In.For.A.Threesome.Tiger.XXX.1080p.MP4-KTR
2019-04-16 03:57:35 TV-SD-X264 How.Close.Can.I.Beach.S02E09.Stationed.Together.in.Gulfport.Mississippi.WEBRip.x264-CAFFEiNE
2019-04-16 03:59:15 XXX-0DAY X-Art.19.04.15.Katy.And.Kaisa.Cum.In.For.A.Threesome.Tiger.XXX.2160p.MP4-KTR
2019-04-16 04:00:12 TV-HD-X264 Arrow.S07E18.720p.HDTV.x264-AVS
2019-04-16 04:00:50 TV-SD-X264 Arrow.S07E18.HDTV.x264-SVA
2019-04-16 04:00:51 TV-X264 How.Close.Can.I.Beach.S02E10.Sailing.Toward.Ponce.Inlet.Florida.720p.WEBRip.x264-CAFFEiNE
2019-04-16 04:03:02 TV-SD-X264 How.Close.Can.I.Beach.S02E10.Sailing.Toward.Ponce.Inlet.Florida.WEBRip.x264-CAFFEiNE
2019-04-16 04:03:24 MP3 Akrosonix-Hypnoz-(LR116)-WEB-2019-NDE
2019-04-16 04:06:01 MP3 AVIAN-The_Ship_Of_A_Billion_Years-(4061798242085)-WEB-2019-NDE
2019-04-16 04:07:17 MP3 Dark_And_Dark-Dark_And_Dark-(0193428154889)-WEB-2019-NDE
2019-04-16 04:10:32 MP3 DJ_Luciano-DJ_Luciano_And_Friends_Vol_3-(CAT294506)-WEB-2019-NDE
2019-04-16 04:11:55 MP3 Doors_Can_Jam-Doors-(DOM306)-WEB-2019-NDE
2019-04-16 04:13:26 MP3 Eco-Hot_Stones-(5056197473825)-WEB-2019-NDE
2019-04-16 04:13:30 TV-SD-X264 American.Dad.S15E01.WEBRip.x264-TBS
2019-04-16 04:13:57 XXX-0DAY Cosmid.19.04.15.Sarah.Russi.First.Video.XXX.1080p.MP4-KTR
2019-04-16 04:14:25 TV-HD-X264 American.Dad.S15E01.720p.WEBRip.x264-TBS
2019-04-16 04:14:29 TV-HD-X264 Into.The.Badlands.S03E09.SPANiSH.1080p.HDTV.x264-4FiRE
2019-04-16 04:14:47 MP3 GS-B17-(3615938017388)-WEB-2019-NDE
2019-04-16 04:14:50 TV-HD-X264 Into.The.Badlands.S03E09.SPANiSH.720p.HDTV.x264-4FiRE
2019-04-16 04:15:10 TV-SD-X264 Into.The.Badlands.S03E09.SPANiSH.HDTV.x264-4FiRE
2019-04-16 04:15:30 TV-HD-X264 Into.The.Badlands.S03E10.SPANiSH.1080p.HDTV.x264-4FiRE
2019-04-16 04:15:32 XXX-0DAY WankItNow.19.04.14.Laura.I.Need.This.XXX.1080p.MP4-KTR
2019-04-16 04:15:50 TV-HD-X264 Into.The.Badlands.S03E10.SPANiSH.720p.HDTV.x264-4FiRE
2019-04-16 04:16:04 TV-HD-X264 American.Dad.S15E01.1080p.WEBRip.x264-TBS
2019-04-16 04:16:10 TV-SD-X264 Into.The.Badlands.S03E10.SPANiSH.HDTV.x264-4FiRE
2019-04-16 04:16:41 TV-SD-X264 Teen.Titans.Go.S05E28.WEBRip.x264-TBS
2019-04-16 04:16:45 MP3 Justine_Blazer-Pioneer_Soul_Shaker-(824833025241)-WEB-2019-NDE
2019-04-16 04:16:50 XXX-0DAY WankItNow.19.04.14.Lilah.Masturbation.Instruction.XXX.1080p.MP4-KTR
2019-04-16 04:17:59 MP3 Mini_Esco-Life_Force_Energy-(PI225)-WEB-2019-NDE
2019-04-16 04:18:03 TV-HD-X264 Teen.Titans.Go.S05E28.720p.WEBRip.x264-TBS
2019-04-16 04:18:22 XXX-0DAY WankItNow.19.04.15.Rose.R.Big.Package.XXX.1080p.MP4-KTR
2019-04-16 04:19:22 TV-HD-X264 Spring.Baking.Championship.S05E05.Easter.Delights.720p.WEBRip.x264-CAFFEiNE
2019-04-16 04:19:23 MP3 Myoss-Dance_Music_Vol_3_(VIdeo_Game_Music)-(WMDM3)-WEB-2019-NDE
2019-04-16 04:19:39 XXX-0DAY WankItNow.19.04.16.Sophia.Smith.Stroke.It.For.Sophia.XXX.1080p.MP4-KTR
2019-04-16 04:20:41 TV-X264 Teen.Titans.Go.S05E28.1080p.WEBRip.x264-TBS
2019-04-16 04:21:00 XXX-0DAY WankItNow.19.04.16.Violet.Go.On.Sir.XXX.1080p.MP4-KTR
2019-04-16 04:21:33 MP3 Proxyon-The_Rise_Of_Skywalker-(5945)-WEB-2019-NDE
2019-04-16 04:21:55 TV-SD-X264 Spring.Baking.Championship.S05E05.Easter.Delights.WEBRip.x264-CAFFEiNE
2019-04-16 04:22:52 XXX-0DAY WankItNow.19.04.14.Laura.I.Need.This.XXX.2160p.MP4-KTR
2019-04-16 04:23:58 MP3 RUFUS-Eye_In_The_Sky-(5059033438835)-WEB-2019-NDE
2019-04-16 04:24:06 XXX-0DAY WankItNow.19.04.14.Lilah.Masturbation.Instruction.XXX.2160p.MP4-KTR
2019-04-16 04:24:49 TV-XVID Diesel.Brothers.S05E02.WEB.x264-TBS
2019-04-16 04:25:13 TV-X264 Diesel.Brothers.S05E02.720p.WEB.x264-TBS
2019-04-16 04:25:18 MP3 SamRas-Deepok-(DKNW48)-WEB-2019-NDE
2019-04-16 04:25:31 XXX-0DAY WankItNow.19.04.15.Rose.R.Big.Package.XXX.2160p.MP4-KTR
2019-04-16 04:25:36 TV-HD-X264 Diesel.Brothers.S05E02.1080p.WEB.x264-TBS
2019-04-16 04:26:43 XXX-0DAY WankItNow.19.04.16.Sophia.Smith.Stroke.It.For.Sophia.XXX.2160p.MP4-KTR
2019-04-16 04:27:19 MP3 Sghenny_Madattak-Infinity-(4061798244232)-WEB-2019-NDE
2019-04-16 04:28:02 XXX-0DAY WankItNow.19.04.16.Violet.Go.On.Sir.XXX.2160p.MP4-KTR
2019-04-16 04:45:12 X264 100.Percent.Footy.2019.04.15.WEB.H264-LASTPLACE
2019-04-16 04:46:00 X264 100.Percent.Footy.2019.04.15.720p.WEB.H264-LASTPLACE
2019-04-16 04:47:01 X264 Footy.Classified.2019.04.15.WEB.H264-LASTPLACE
2019-04-16 04:47:45 X264 Footy.Classified.2019.04.15.720p.WEB.H264-LASTPLACE
2019-04-16 04:49:13 X264 Talking.Footy.2019.04.15.WEB.H264-LASTPLACE
2019-04-16 04:49:47 X264 The.Oval.Office.2019.04.15.WEB.H264-LASTPLACE
2019-04-16 04:50:29 X264 The.Oval.Office.2019.04.15.720p.WEB.H264-LASTPLACE
2019-04-16 04:58:56 TV-X264 Into.the.Badlands.S03E13.720p.WEB.h264-TBS
2019-04-16 05:00:32 HDTV Into.the.Badlands.S03E13.1080p.WEB.h264-TBS
2019-04-16 05:01:31 TV-HD-X264 Into.the.Badlands.S03E13.720p.HDTV.x264-AVS
2019-04-16 05:02:09 TV-SD-X264 Into.the.Badlands.S03E13.HDTV.x264-SVA
2019-04-16 05:04:19 TV-HD-X264 Knightfall.S02E04.720p.HDTV.x264-aAF
2019-04-16 05:11:49 MP3 Harmonious_Thelonious-Petrolia-(MARMO_008)-WEB-2019-MOHAWK
2019-04-16 05:13:05 MP3 Terror_Danjah-Red_Flag_EP-(HDR031)-WEB-2019-MOHAWK
2019-04-16 05:24:44 PRE Jens_Lekman_and_Annika_Norlin-CORRESPONDENCE-PROPER-(SC370DIGITAL)-WEB-2019-MOHAWK
2019-04-16 05:25:11 APPS Lynda.Box.com.Essential.Training-APoLLo
2019-04-16 05:25:41 APPS Lynda.Bracketology.Club.Using.March.Madness.to.Learn.Data.Science-APoLLo
2019-04-16 05:25:55 ISO-BOOKWARE Lynda.Brain-Based.Elearning.Design-APoLLo
2019-04-16 05:26:25 APPS Lynda.Brand.Redesign.Small.Business-APoLLo
2019-04-16 05:26:36 APPS Lynda.Building.a.Flexible.Career-APoLLo
2019-04-16 05:26:49 BOOKWARE Lynda.Building.a.Recommendation.System.with.Python.Machine.Learning.and.AI-APoLLo
2019-04-16 05:27:22 TV-HD-X264 Bagges.Hemlosa.Hundar.S03E02.SWEDiSH.1080p.WEB.X264-EXECUTION
2019-04-16 05:27:38 ISO-BOOKWARE Lynda.Building.a.Web.Application.on.Microsoft.Azure-APoLLo
2019-04-16 05:28:04 ISO-BOOKWARE Lynda.Building.an.In-House.Photo.Studio-APoLLo
2019-04-16 05:29:03 APPS Lynda.Building.an.Online.Portfolio-APoLLo
2019-04-16 05:29:17 APPS Lynda.Building.and.Deploying.Deep.Learning.Applications.with.TensorFlow-APoLLo
2019-04-16 05:30:27 APPS Lynda.Building.Angular.and.ASP.NET.Core.Apps.with.Authentication-APoLLo
2019-04-16 05:30:48 APPS Lynda.Building.Angular.and.ASP.NET.Web.API.Apps-APoLLo
2019-04-16 05:31:05 TV-HD-X264 The.Neighborhood.S01E20.1080p.WEB.H264-MEMENTO
2019-04-16 05:31:39 ISO-BOOKWARE Lynda.Building.Angular.and.Node.Apps.with.Authentication-APoLLo
2019-04-16 05:31:49 TV-X264-HD The.Neighborhood.S01E20.720p.WEB.H264-MEMENTO
2019-04-16 05:32:20 ISO-BOOKWARE Lynda.Building.Declarative.Apps.Using.Functional.JavaScript-APoLLo
2019-04-16 05:32:40 PRE Lynda.Building.Professional.Relationships-APoLLo
2019-04-16 05:33:01 ISO-BOOKWARE Lynda.Building.Rapport.with.Customers-APoLLo
2019-04-16 05:33:12 APPS Lynda.Building.React.and.ASP.NET.MVC.5.Applications-APoLLo
2019-04-16 05:34:22 XXX-IMAGESET ATKPremium.com_19.04.16.Alison.Rey.XXX.IMAGESET-FuGLi
2019-04-16 05:36:23 MP3 Cam_Gnarly-GNARVANA-(TOL-064)-WEB-2019-MOHAWK
2019-04-16 05:36:54 TV-X264 30.Minute.Meals.S28E15.Chicken.Change-Up.720p.WEBRip.x264-CAFFEiNE
2019-04-16 05:38:31 TV-SD-X264 30.Minute.Meals.S28E15.Chicken.Change-Up.WEBRip.x264-CAFFEiNE
2019-04-16 05:39:39 MP3 Fox_Millions_Duo-Biting_Through-(THRILL-484)-WEB-2019-MOHAWK
2019-04-16 05:41:10 TV-X264-SD The.Neighborhood.S01E20.WEB.x264-TBS
2019-04-16 05:41:37 TV-HD-X264 The.Neighborhood.S01E20.iNTERNAL.720p.WEB.x264-BAMBOOZLE
2019-04-16 05:46:00 TV-HD-X264 Fiskedestination.S05E05.SWEDiSH.1080p.WEB.X264-EXECUTION
2019-04-16 05:48:42 TV-HD-X264 Food-Fact.or.Fiction.S04E19.Paradise.Nosh.720p.WEBRip.x264-CAFFEiNE
2019-04-16 05:51:12 TV-SD-X264 Food-Fact.or.Fiction.S04E19.Paradise.Nosh.WEBRip.x264-CAFFEiNE
2019-04-16 05:52:30 MP3 Old_Dominion-Old_Dominion-DIGITAL_45-WEB-2019-ENRiCH
2019-04-16 05:56:39 MP3 Beck-Saw_Lightning-SINGLE-WEB-2019-ENTiTLED
2019-04-16 05:56:55 MP3 Silversun_Pickups-It_Doesnt_Matter_Why-SINGLE-WEB-2019-ENTiTLED
2019-04-16 05:57:11 MP3 Tame_Impala-Borderline-SINGLE-WEB-2019-ENTiTLED
2019-04-16 05:57:27 MP3 The_Raconteurs-Hey_Gyp_(Dig_the_Slowness)-SINGLE-WEB-2019-ENTiTLED
2019-04-16 06:00:32 TV-HD-X264 Man.with.a.Plan.S03E10.720p.WEB.H264-MEMENTO
2019-04-16 06:00:51 TV-HD-X264 Man.with.a.Plan.S03E10.1080p.WEB.H264-MEMENTO
2019-04-16 06:00:55 TV-HD-X264 Man.With.a.Plan.S03E10.1080p.WEB.H264-AMCON
2019-04-16 06:03:24 MP3 Delain-Lucidity_(10th_Anniversary_Edition)-READ_NFO-WEB-2006-ENTiTLED
2019-04-16 06:08:10 X264 Becoming.Warren.Buffett.2017.SPANiSH.DOC.1080p.WEB.h264-4FiRE
2019-04-16 06:08:30 X264 Becoming.Warren.Buffett.2017.SPANiSH.DOC.720p.WEB.h264-4FiRE
2019-04-16 06:08:54 X264 Becoming.Warren.Buffett.2017.SPANiSH.DOC.WEB.h264-4FiRE
2019-04-16 06:09:15 X264 Los.Asesinatos.De.Cheshire.2013.SPANiSH.DOC.1080p.WEB.h264-4FiRE
2019-04-16 06:09:33 TV-XVID Man.with.a.Plan.S03E10.WEB.x264-TBS
2019-04-16 06:09:36 X264 Los.Asesinatos.De.Cheshire.2013.SPANiSH.DOC.720p.WEB.h264-4FiRE
2019-04-16 06:09:49 TV-HD-X264 Man.with.a.Plan.S03E10.iNTERNAL.720p.WEB.x264-BAMBOOZLE
2019-04-16 06:10:03 X264 Los.Asesinatos.De.Cheshire.2013.SPANiSH.DOC.WEB.h264-4FiRE
2019-04-16 06:10:28 X264 Ninyas.Robadas.Secuestradas.Por.Boko.Haram.2018.SPANiSH.DOC.1080p.WEB.h264-4FiRE
2019-04-16 06:10:49 X264 Ninyas.Robadas.Secuestradas.Por.Boko.Haram.2018.SPANiSH.DOC.720p.WEB.h264-4FiRE
2019-04-16 06:11:10 X264 Ninyas.Robadas.Secuestradas.Por.Boko.Haram.2018.SPANiSH.DOC.WEB.h264-4FiRE
2019-04-16 06:14:37 FLAC Edwyn_Collins-Badbea-(AEDEC25CD)-CD-FLAC-2019-HOUND
2019-04-16 06:16:50 MP3 David_Rodigan-BBC1Xtra-SAT-04-14-2019-YARD
2019-04-16 06:18:11 TV-HD-X264 Hostile.Planet.S01E03.Grasslands.720p.WEBRip.x264-CAFFEiNE
2019-04-16 06:23:48 TV-HD-X264 45.Revoluciones.S01E05.SPANiSH.1080p.HDTV.x264-4FiRE
2019-04-16 06:24:08 TV-HD-X264 45.Revoluciones.S01E05.SPANiSH.720p.HDTV.x264-4FiRE
2019-04-16 06:24:28 TV-SD-X264 45.Revoluciones.S01E05.SPANiSH.HDTV.x264-4FiRE
2019-04-16 06:27:00 TV-SD-X264 Hostile.Planet.S01E03.Grasslands.WEBRip.x264-CAFFEiNE
2019-04-16 06:32:32 X264 Mortal.Engines.2018.PLDUB.BDRip.x264-FLAME
2019-04-16 06:33:15 BOOKWARE Pluralsight.com.A.Comprehensive.Introduction.to.Microsoft.Project.2019-ELOHiM
2019-04-16 06:33:25 X264 Mortal.Engines.2018.PLDUB.DUAL.720p.BluRay.x264-FLAME
2019-04-16 06:33:49 X264 Mortal.Engines.2018.PLDUB.DUAL.1080p.BluRay.x264-FLAME
2019-04-16 06:34:51 BLURAY The.Shield.S07D02.COMPLETE.BLURAY-o0o
2019-04-16 06:39:19 BLURAY The.Shield.S07D03.COMPLETE.BLURAY-o0o
2019-04-16 07:00:50 TV-HD-X264 The.Code.2019.S01E02.720p.WEB.H264-MEMENTO
2019-04-16 07:01:02 TV-HD-X264 The.Code.2019.S01E02.1080p.WEB.H264-MEMENTO
2019-04-16 07:02:59 TV-HD-X264 Life.in.Pieces.S03E12.FRENCH.720p.HDTV.x264-SH0W
2019-04-16 07:03:10 TV-HD-X264 Vernon.Subutex.S01E04.FRENCH.720p.HDTV.x264-SH0W
2019-04-16 07:03:13 TV-HD-X264 Vernon.Subutex.S01E05.FRENCH.720p.HDTV.x264-SH0W
2019-04-16 07:03:17 TV-HD-X264 Vernon.Subutex.S01E06.FRENCH.720p.HDTV.x264-SH0W
2019-04-16 07:05:12 TV-X264-HD DCs.Legends.of.Tomorrow.S04E11.1080p.WEB.h264-TBS
2019-04-16 07:06:24 TV-HD-X264 DCs.Legends.of.Tomorrow.S04E11.iNTERNAL.720p.WEB.h264-BAMBOOZLE
2019-04-16 07:07:48 TV-HD-X264 Arrow.S07E18.iNTERNAL.720p.WEB.h264-BAMBOOZLE
2019-04-16 07:07:53 TV-HD-X264 Knightfall.S02E04.SPANiSH.1080p.WEBRip.x264-4FiRE
2019-04-16 07:08:13 TV-HD-X264 Knightfall.S02E04.SPANiSH.720p.WEBRip.x264-4FiRE
2019-04-16 07:08:14 TV-X264-HD Arrow.S07E18.1080p.WEB.h264-TBS
2019-04-16 07:08:33 TV-SD-X264 Knightfall.S02E04.SPANiSH.WEBRip.x264-4FiRE
2019-04-16 07:12:22 EBOOK Il.Corriere.Della.Sera.04.16.2019.iTALiAN.RETAiL.eBook-DiVER
2019-04-16 07:12:43 TV-XVID The.Code.2019.S01E02.WEB.x264-TBS
2019-04-16 07:13:08 TV-HD-X264 The.Code.2019.S01E02.iNTERNAL.720p.WEB.x264-BAMBOOZLE
2019-04-16 07:17:39 TV-HD-X264 Yakari.S05E02.GERMAN.720P.WEB.X264-WAYNE
2019-04-16 07:18:35 TV-HD-X264 Yakari.S05E03.GERMAN.720P.WEB.X264-WAYNE
2019-04-16 07:19:12 TV-HD-X264 Yakari.S05E04.GERMAN.720P.WEB.X264-WAYNE
2019-04-16 07:19:46 TV-HD-X264 Yakari.S05E05.GERMAN.720P.WEB.X264-WAYNE
2019-04-16 07:20:18 TV-HD-X264 Yakari.S05E06.GERMAN.720P.WEB.X264-WAYNE
2019-04-16 07:20:52 TV-X264 Yakari.S05E07.GERMAN.720P.WEB.X264-WAYNE
2019-04-16 07:21:52 TV-HD-X264 Yakari.S05E08.GERMAN.720P.WEB.X264-WAYNE
2019-04-16 07:22:27 TV-HD-X264 Yakari.S05E09.GERMAN.720P.WEB.X264-WAYNE
2019-04-16 07:23:02 TV-HD-X264 Yakari.S05E10.GERMAN.720P.WEB.X264-WAYNE
2019-04-16 07:23:39 FLAC Atjazz-Labfunk-(MANTCD001)-CD-FLAC-2001-dL
2019-04-16 07:24:14 TV-HD-X264 Yakari.S05E02.GERMAN.1080P.WEB.X264-WAYNE
2019-04-16 07:25:00 TV-HD-X264 Yakari.S05E03.GERMAN.1080P.WEB.X264-WAYNE
2019-04-16 07:25:44 TV-HD-X264 Yakari.S05E04.GERMAN.1080P.WEB.X264-WAYNE
2019-04-16 07:25:51 FLAC Atlantic_Connection-2_Years_And_Back__Republic-(PRG011)-PROMO-VINYL-FLAC-2008-dL
2019-04-16 07:26:38 TV-HD-X264 Yakari.S05E05.GERMAN.1080P.WEB.X264-WAYNE
2019-04-16 07:27:34 TV-HD-X264 Yakari.S05E06.GERMAN.1080P.WEB.X264-WAYNE
2019-04-16 07:28:01 FLAC Baby_Ford-Fetish-(BFORD10CD)-CDM-FLAC-1992-dL
2019-04-16 07:28:21 TV-X264 Yakari.S05E07.GERMAN.1080P.WEB.X264-WAYNE
2019-04-16 07:28:45 MP3 Andre_Bratten-HS-(STS356SD1)-SINGLE-WEB-2019-ENSLAVE
2019-04-16 07:28:56 MP3 Shygirl-Beauts-(PDA001)-WEB-2019-ENSLAVE
2019-04-16 07:28:57 MP3 VA-Frndzne_01-(FRNDZNE01)-WEB-2017-ENTANGLE
2019-04-16 07:29:07 MP3 VA-Frndzne_02-(FRNDZNE02)-WEB-2019-ENTANGLE
2019-04-16 07:29:26 TV-X264 Yakari.S05E08.GERMAN.1080P.WEB.X264-WAYNE
2019-04-16 07:30:10 FLAC Big_Brovaz_Vs_Ray_Keith-Yours_Fatally-(XPR-3712)-Limited_Edition-VINYL-FLAC-2004-dL
2019-04-16 07:30:30 TV-X264 Yakari.S05E09.GERMAN.1080P.WEB.X264-WAYNE
2019-04-16 07:31:24 TV-X264 Yakari.S05E10.GERMAN.1080P.WEB.X264-WAYNE
2019-04-16 07:31:52 TV-X264 Yakari.S05E11.GERMAN.720P.WEB.X264-WAYNE
2019-04-16 07:32:18 TV-X264 Yakari.S05E12.GERMAN.720P.WEB.X264-WAYNE
2019-04-16 07:32:20 FLAC Callide-Nuclear_Warhead__Pure_Dubplate-(MNB034)-VINYL-FLAC-2008-dL
2019-04-16 07:32:21 TV-X264 Love.and.Hip.Hop.Atlanta.S08E05.The.Skin.Youre.In.720p.HDTV.x264-CRiMSON
2019-04-16 07:32:46 TV-HD-X264 Yakari.S05E13.GERMAN.720P.WEB.X264-WAYNE
2019-04-16 07:32:51 TV-SD-X264 Love.and.Hip.Hop.Atlanta.S08E05.The.Skin.Youre.In.HDTV.x264-CRiMSON
2019-04-16 07:33:18 TV-HD-X264 Yakari.S05E11.GERMAN.1080P.WEB.X264-WAYNE
2019-04-16 07:33:22 TV-HD-X264 My.600-Lb.Life.S07E15.Angelas.Story.720p.HDTV.x264-CRiMSON
2019-04-16 07:33:51 TV-SD-X264 My.600-Lb.Life.S07E15.Angelas.Story.HDTV.x264-CRiMSON
2019-04-16 07:33:59 TV-HD-X264 Yakari.S05E12.GERMAN.1080P.WEB.X264-WAYNE
2019-04-16 07:34:21 TV-HD-X264 Summer.House.S03E07.Epic.Grand.Gesture.720p.HDTV.x264-CRiMSON
2019-04-16 07:34:29 FLAC Digital_Feat_Irie_J__Version-Get_Away__Spice-(BB1210)-VINYL-FLAC-2004-dL
2019-04-16 07:34:39 TV-X264 Yakari.S05E13.GERMAN.1080P.WEB.X264-WAYNE
2019-04-16 07:34:51 TV-XVID Summer.House.S03E07.Epic.Grand.Gesture.HDTV.x264-CRiMSON
2019-04-16 07:35:21 TV-XVID T.I.and.Tiny.Friends.and.Family.Hustle.S02E01.In.With.the.New.HDTV.x264-CRiMSON
2019-04-16 07:35:52 TV-HD-X264 Weather.Gone.Viral.S04E01.When.Weather.Attacks.720p.HDTV.x264-CRiMSON
2019-04-16 07:36:12 MP3 Andrew_Fontana-Around-(FNT001)-WEB-2019-EBM
2019-04-16 07:36:21 TV-SD-X264 Weather.Gone.Viral.S04E01.When.Weather.Attacks.HDTV.x264-CRiMSON
2019-04-16 07:36:37 FLAC Dusk_Till_Dawn-Cave_Troll__Night_Shift-(EROC006)-VINYL-FLAC-2003-dL
2019-04-16 07:36:40 MP3 Andrew_Fontana-Digital_Stories_EP-(657664_715742)-WEB-2018-EBM
2019-04-16 07:36:51 TV-HD-X264 Weather.Gone.Viral.S04E02.Split.Second.Survival.720p.HDTV.x264-CRiMSON
2019-04-16 07:37:03 MP3 Calling_Marian-Rainmaking-(CVNT003)-WEB-2019-EBM
2019-04-16 07:37:21 TV-SD-X264 Weather.Gone.Viral.S04E02.Split.Second.Survival.HDTV.x264-CRiMSON
2019-04-16 07:37:32 MP3 Greg_Strubutas-Saturn-(BVR064)-WEB-2019-EBM
2019-04-16 07:37:48 MP3 Starmist-Sublime_Attack-(STARRECS015)-SINGLE-WEB-2019-EBM
2019-04-16 07:37:52 TV-X264 Weather.Gone.Viral.S04E03.Weather.Without.Warning.720p.HDTV.x264-CRiMSON
2019-04-16 07:38:22 TV-XVID Weather.Gone.Viral.S04E03.Weather.Without.Warning.HDTV.x264-CRiMSON
2019-04-16 07:38:46 FLAC Green_Velvet-Whatever-(RR2006-2)-CD-FLAC-2001-dL
2019-04-16 07:38:51 TV-SD-X264 Weather.Gone.Viral.S04E04.Weird.Weather.HDTV.x264-CRiMSON
2019-04-16 07:39:22 TV-HD-X264 Weather.Gone.Viral.S04E05.Weather.Without.Warning.720p.HDTV.x264-CRiMSON
2019-04-16 07:39:51 TV-SD-X264 Weather.Gone.Viral.S04E05.Weather.Without.Warning.HDTV.x264-CRiMSON
2019-04-16 07:39:56 MP3 Alien-Alien_Invasion-WEB-2019-KLIN
2019-04-16 07:40:21 TV-HD-X264 Weather.Gone.Viral.S04E06.Defying.Nature.720p.HDTV.x264-CRiMSON
2019-04-16 07:40:52 TV-SD-X264 Weather.Gone.Viral.S04E06.Defying.Nature.HDTV.x264-CRiMSON
2019-04-16 07:40:56 FLAC Hidden_Agenda-Far_Out__Stay-(METH049)-VINYL-FLAC-2003-dL
2019-04-16 07:41:23 MP3 Alex_Deeper-Things_I_Said-WEB-2019-KLIN
2019-04-16 07:42:26 DAY La.Gazzetta.Dello.Sport.04.16.2019.iTALiAN.RETAiL.eBook-DiVER
2019-04-16 07:43:00 TV-HD-X264 Chris.And.Julias.Sunday.Night.Takeaway.S01E08.720p.HDTV.x264-CCT
2019-04-16 07:43:06 FLAC Jaydan__Dr_Dub-More_Or_Less__Terrorist-(SMOKE006)-SPLIT-VINYL-FLAC-2009-dL
2019-04-16 07:45:15 FLAC Jayline-Sinbads_Bitch_EP_(Part_2)-(FINN014C-D)-PROMO-VINYL-FLAC-2008-dL
2019-04-16 07:46:28 MP3 Israel_Gifting-What_I_Say-WEB-2018-KLIN
2019-04-16 07:46:31 MP3 A_Thousand_Details-Hidden_Anger-(HR005)-WEB-2019-EBM
2019-04-16 07:46:56 FLAC DJ_Thoka-Party_People_And_The_One-(8800769)-CDM-FLAC-1997-BTTR
2019-04-16 07:46:58 FLAC Dilemma-In_Spirit-(EMI_8681462)-CDM-FLAC-1996-BTTR
2019-04-16 07:47:01 FLAC Dannii-All_I_Wanna_Do-(WEA119CD)-CDM-FLAC-1997-BTTR
2019-04-16 07:47:08 FLAC Dannii-Everything_I_Wanted-(WEA137CD)-CDM-FLAC-1997-BTTR
2019-04-16 07:47:15 FLAC DJ_Pierro-Another_World-(063015756-2)-CDM-FLAC-1996-BTTR
2019-04-16 07:47:25 FLAC John_Tejada-The_Toiling_Of_Idle_Hands-(IMMCD02)-CD-FLAC-2003-dL
2019-04-16 07:47:30 PRE El_Brujo-Pinned_(The_Remixes)-(FWR066)-WEB-2019-EBM
2019-04-16 07:48:18 MP3 Greg_Strubutas-Phases-(KR268)-WEB-2019-EBM
2019-04-16 07:48:58 MP3 Guen_B-Mana_Efficiency-(BSD2019057)-WEB-2019-EBM
2019-04-16 07:49:33 MP3 The_Second_Wave-Neural_Cortex-(CRB022)-WEB-2019-EBM
2019-04-16 07:49:35 FLAC Juggernaut-Fyre__The_Portal-(JUGG003)-VINYL-FLAC-2009-dL
2019-04-16 07:50:05 MP3 Jack_Mode-Concubines-SINGLE-WEB-2019-KLIN
2019-04-16 07:50:42 MP3 Alliston_Davis-Concubine-SINGLE-WEB-2018-KLIN
2019-04-16 07:51:44 FLAC K.O.T.P.-Hurricane__Pressure-(PBLR032)-VINYL-FLAC-2004-dL
2019-04-16 07:53:54 FLAC Kirk_Degiorgio_Presents_As_One-21st_Century_Soul-(URCD091)-CD-FLAC-2001-dL
2019-04-16 07:56:03 FLAC Lab_4-Alien-(PODUKCD024)-CD-FLAC-1995-dL
2019-04-16 07:56:33 MP3 Code_701-Time_To_Change-(BBREC006)-WEB-2019-EBM
2019-04-16 07:56:34 MP3 Hashaholic-Harvard_Square-2019-ROSiN
2019-04-16 07:57:07 MP3 Benny_V_and_K-Warren-You_Know_Me__Open_Your_Eyes-(PTSM041)-WEB-2019-ENSLAVE
2019-04-16 07:57:15 MP3 D-Tech--Evolved-(TD129)-WEB-2019-EBM
2019-04-16 07:57:19 MP3 VA-Worst_Behavior_Vol_2-(WRST002)-WEB-2019-ENSLAVE
2019-04-16 07:57:44 MP3 D-Tech--The_Matrix_EP-(MTZN0046)-WEB-2019-EBM
2019-04-16 07:57:44 MP3 Team_Workout-Tropical_Beach_Body_Workout_Vol_2-WEB-2018-KLIN
2019-04-16 07:58:13 FLAC Marky_And_Drumagick-Super_Bass__Outside_Moon-(BMR004)-PROMO-VINYL-FLAC-2009-dL
2019-04-16 07:58:26 MP3 Greg_Strubutas-Charisma-(TCHNLGCL057S)-WEB-2019-EBM
2019-04-16 07:59:43 MP3 Individualist-Feel_Like-WEB-2019-KLIN
2019-04-16 08:00:23 FLAC MC_Shabba_D-Junglist_Guy-(HB002)-VINYL-FLAC-2003-dL
2019-04-16 08:02:00 TV-HD-X264 T.I.and.Tiny.Friends.and.Family.Hustle.S02E01.In.With.the.New.720p.HDTV.x264-CRiMSON
2019-04-16 08:02:12 TV-HD-X264 Better.Things.S03E07.SUBFRENCH.720p.HDTV.x264-HYBRiS
2019-04-16 08:02:34 FLAC Mickey_Finn_And_L_Double-When_The_Morning_Comes-(URBTAKE32)-VINYL-FLAC-2002-dL
2019-04-16 08:03:06 MP3 Antonia-In_Oglinda-SINGLE-WEB-2019-KLIN
2019-04-16 08:03:10 TV-HD-X264 Jesus.His.Life.S01E07.720p.WEB.h264-TBS
2019-04-16 08:03:19 TV-X264 Jesus.His.Life.S01E07.WEB.h264-TBS
2019-04-16 08:04:05 TV-HD-X264 Vernon.Subutex.S01E06.FRENCH.1080p.HDTV.x264-HYBRiS
2019-04-16 08:04:43 FLAC Mijatoho-05.05.05__Jazgal-(JF012)-VINYL-FLAC-2008-dL
2019-04-16 08:05:58 TV-HD-X264 Brooklyn.Nine-Nine.S06E12.SUBFRENCH.1080p.HDTV.H264-HYBRiS
2019-04-16 08:06:54 FLAC Moving_Fusion-Walk_On__Symbols-(DRMCLTR003)-PROMO-VINYL-FLAC-2007-dL
2019-04-16 08:07:28 TV-HD-X264 Knightfall.S02E04.iNTERNAL.720p.WEB.h264-BAMBOOZLE
2019-04-16 08:07:30 MP3 Petter_Preston-Blue_Print_Meets_Complatt-WEB-2018-KLIN
2019-04-16 08:08:01 FLAC Claudia_Chin-Reach_Out_For_Love-(DAN6641572)-CDM-FLAC-1997-BTTR
2019-04-16 08:08:02 FLAC Chiara-Nowhere_To_Run-(SRCDM53351)-CDM-FLAC-1997-BTTR
2019-04-16 08:08:04 FLAC Boy_George-Funtime-(VSCDT1538)-CDM-FLAC-1995-BTTR
2019-04-16 08:08:08 FLAC Decosta-Baby_Dont_Go-(2REC001)-CDM-FLAC-1996-BTTR
2019-04-16 08:08:11 FLAC Celetia-Rewind-(530_0_281)-CDM-FLAC-1998-BTTR
2019-04-16 08:08:15 FLAC Bordeaux-Hit_Me-(EMI8681912)-CDM-FLAC-1996-BTTR
2019-04-16 08:08:32 TV-HD-X264 Semester.S02E08.NORWEGiAN.720p.WEB.X264-HENRETTELSE
2019-04-16 08:09:03 TV-HD-X264 Bull.2016.S03E19.720p.WEB.x264-TBS
2019-04-16 08:09:03 FLAC Muffler-Ruff_Life__Emotive-(MUFF003)-PROMO-VINYL-FLAC-2004-dL
2019-04-16 08:09:05 PRE Bull.2016.S03E19.WEB.x264-TBS
2019-04-16 08:09:13 TV-HD-X264 Semester.S02E08.NORWEGiAN.1080p.WEB.X264-HENRETTELSE
2019-04-16 08:09:55 TV-HD-X264 Semester.S02E09.NORWEGiAN.720p.WEB.X264-HENRETTELSE
2019-04-16 08:10:43 TV-HD-X264 Semester.S02E09.NORWEGiAN.1080p.WEB.X264-HENRETTELSE
2019-04-16 08:10:55 TV-X264 Bull.2016.S03E19.1080p.WEB.x264-TBS
2019-04-16 08:14:02 TV-XVID Knightfall.S02E04.WEBRip.x264-TBS
2019-04-16 08:15:04 TV-HD-X264 Betrayed.2016.S03E07.Pretty.in.Black.720p.WEBRip.x264-CAFFEiNE
2019-04-16 08:18:12 TV-SD-X264 Betrayed.2016.S03E07.Pretty.in.Black.WEBRip.x264-CAFFEiNE
2019-04-16 08:18:52 PRE TMZ.on.TV.2019.04.12.720p.WEB.x264-TBS
2019-04-16 08:18:57 TV-XVID TMZ.on.TV.2019.04.12.WEB.x264-TBS
2019-04-16 08:23:22 MP3 Justin_Dahl_-_Glass_Lipstick-(LADAL_19015)-SINGLE-WEB-2019-ZzZz
2019-04-16 08:23:23 TV-HD-X264 Paaskereisen.S01E01.NORWEGiAN.720p.WEB.H264-HENRETTELSE
2019-04-16 08:23:47 MP3 Carlos_Francisco_-_Method_One-(SP261)-SINGLE-WEB-2018-ZzZz
2019-04-16 08:23:53 TV-HD-X264 Paaskereisen.S01E02.NORWEGiAN.720p.WEB.H264-HENRETTELSE
2019-04-16 08:45:42 TV-HD-X264 Vanderpump.Rules.S07E19.The.Exorcism.of.Stassi.Schroeder.720p.HDTV.x264-CRiMSON
2019-04-16 08:45:59 TV-SD-X264 Vanderpump.Rules.S07E19.The.Exorcism.of.Stassi.Schroeder.HDTV.x264-CRiMSON
2019-04-16 08:53:41 TV-HD-X264 Paranormal.911.S01E07.Through.the.Looking.Glass.720p.WEBRip.x264-CAFFEiNE
2019-04-16 08:57:06 TV-SD-X264 Paranormal.911.S01E07.Through.the.Looking.Glass.WEBRip.x264-CAFFEiNE
2019-04-16 08:59:31 TV-X264 De.Ambassade.S01E01.FLEMISH.WEB.x264-MERCATOR
2019-04-16 09:00:38 TV-X264 Shadowhunters.The.Mortal.Instruments.S03E18.1080p.WEB.x264-STRiFE
2019-04-16 09:02:10 TV-HD-X264 The.Enemy.Within.S01E08.720p.WEB.H264-AMCON
2019-04-16 09:02:25 TV-HD-X264 The.Enemy.Within.S01E08.1080p.WEB.H264-AMCON
2019-04-16 09:03:30 TV-XVID The.Enemy.Within.S01E08.WEB.H264-MEMENTO
2019-04-16 09:03:48 TV-X264 De.Noodcentrale.S03E01.FLEMISH.WEB.H264-MERCATOR
2019-04-16 09:04:06 TV-HD-X264 One.Of.A.Kind.S01E05.The.Bank.Bathroom.1080p.WEB.x264-CAFFEiNE
2019-04-16 09:05:15 TV-X264 Komen.Te.Gaan.S01E05.FLEMISH.WEB.H264-MERCATOR
2019-04-16 09:07:08 TV-HD-X264 Shadowhunters.The.Mortal.Instruments.S03E18.iNTERNAL.1080p.WEB.h264-BAMBOOZLE
2019-04-16 09:08:14 TV-HD-X264 Escaping.Polygamy.S04E13.720p.WEB.h264-TBS
2019-04-16 09:08:20 TV-XVID Escaping.Polygamy.S04E13.WEB.h264-TBS
2019-04-16 09:08:49 TV-XVID Jesus.His.Life.S01E08.WEB.h264-TBS
2019-04-16 09:09:06 TV-HD-X264 Jesus.His.Life.S01E08.720p.WEB.h264-TBS
2019-04-16 09:11:24 MP3 Dobie_-_Ballade_Pour-(UFR_0002)-SINGLE-WEB-2017-ZzZz
2019-04-16 09:12:29 TV-X264 Leonie.Zkt.Lief.Weekoverzicht.S01E05.FLEMISH.WEB.x264-MERCATOR
2019-04-16 09:13:25 X264 Louis.Theroux.My.Scientology.Movie.2015.NLSUBBED.WEB.H264-MERCATOR
2019-04-16 09:14:13 MP3 Dobie_-_Ballade_Pour_(Extended_Mix)-(UFR_0003)-SINGLE-WEB-2017-ZzZz
2019-04-16 09:14:13 APPS PLURALSIGHT.JAVA.WRITING.READABLE.AND.MAINTAINABLE.CODE-JGTiSO
2019-04-16 09:14:46 X264 Nachtwacht.2019.Part.10.FLEMISH.WEB.H264-MERCATOR
2019-04-16 09:14:50 TV-HD-X264 One.Of.A.Kind.S01E05.The.Bank.Bathroom.720p.WEB.x264-CAFFEiNE
2019-04-16 09:17:48 TV-X264 One.Of.A.Kind.S01E05.The.Bank.Bathroom.WEB.x264-CAFFEiNE
2019-04-16 09:20:45 TV-HD-X264 House.Hunters.S162E12.Two.Sisters.Search.Palm.Springs.1080p.WEB.x264-CAFFEiNE
2019-04-16 09:21:39 TV-HD-X264 House.Hunters.S162E12.Two.Sisters.Search.Palm.Springs.720p.WEB.x264-CAFFEiNE
2019-04-16 09:23:22 TV-X264 House.Hunters.S162E12.Two.Sisters.Search.Palm.Springs.WEB.x264-CAFFEiNE
2019-04-16 09:27:25 TV-X264 Nachtwacht.S04E10.FLEMISH.WEB.H264-MERCATOR
2019-04-16 09:28:19 TV-X264 Rond.De.Noordzee.S01E08.FLEMISH.WEB.H264-MERCATOR
2019-04-16 09:28:47 X264 Die.Supermonster.Tierisch.gute.Freunde.2019.GERMAN.DL.1080P.WEB.X264-WAYNE
2019-04-16 09:29:03 MP3 Rene_LaVice_-_BBC_Radio1s_Drum_and_Bass_Show__Incl_Kings_of_The_Rollers_Guestmix-SAT-04-16-2019-TALiON
2019-04-16 09:29:18 TV-X264 Shadowhunters.The.Mortal.Instruments.S03E18.FRENCH.720p.WEB.x264-CARAPiLS
2019-04-16 09:29:48 TV-X264 MotoGP.2019.The.Americas.Highlights.1080p.HDTV.x264-GRiP
2019-04-16 09:30:13 TV-HD-X264 Shadowhunters.The.Mortal.Instruments.S03E18.MULTi.1080p.WEB.x264-CARAPiLS
2019-04-16 09:30:49 TV-HD-X264 MotoGP.2019.The.Americas.Highlights.720p.HDTV.x264-GRiP
2019-04-16 09:31:50 TV-SD-X264 MotoGP.2019.The.Americas.Highlights.HDTV.x264-GRiP
2019-04-16 09:31:59 TV-SD-X264 Le.Monde.De.Jamy.Avec.Thomas.Pesquet.DOC.FRENCH.HDTV.x264-SH0W
2019-04-16 09:32:07 TV-HD-X264 Le.Monde.De.Jamy.Avec.Thomas.Pesquet.DOC.FRENCH.720p.HDTV.x264-SH0W
2019-04-16 09:32:13 TV-HD-X264 Le.Monde.De.Jamy.Avec.Thomas.Pesquet.DOC.FRENCH.1080p.HDTV.H264-SH0W
2019-04-16 09:32:47 EBOOK Packt.Android.Continuous.Integration.With.Docker.And.Jenkins-ANALYTiCS
2019-04-16 09:34:26 APPS MSC.ADAMS.V2019-MAGNiTUDE
2019-04-16 09:37:42 TV-HD-X264 Have.I.Got.News.For.You.S57E02.EXTENDED.1080p.HDTV.x264-PLUTONiUM
2019-04-16 09:38:43 TV-SD-X264 Have.I.Got.News.For.You.S57E02.EXTENDED.HDTV.x264-PLUTONiUM
2019-04-16 09:39:20 MP3 Dobie_feat_Myra_Bro_-_Dublin_Rain-(UFR_0006)-SINGLE-WEB-2018-ZzZz
2019-04-16 09:42:05 TV-HD-X264 Worlds.Busiest.Train.Stations.S01E02.1080p.HDTV.h264-PLUTONiUM
2019-04-16 09:43:07 TV-HD-X264 Worlds.Busiest.Train.Stations.S01E02.720p.HDTV.x264-PLUTONiUM
2019-04-16 09:44:08 TV-SD-X264 Worlds.Busiest.Train.Stations.S01E02.HDTV.x264-PLUTONiUM
2019-04-16 09:45:12 TV-HD-X264 Allsvenskan.2019.Djurgarden.vs.Goteborg.SWEDiSH.720p.HDTV.x264-NEGERLEiF
2019-04-16 09:53:08 TV-X264 Rond.De.Noordzee.S01E09.FLEMISH.WEB.H264-MERCATOR
2019-04-16 09:54:43 TV-X264 Schatten.Van.Mensen.S01E04.FLEMISH.WEB.x264-MERCATOR
2019-04-16 10:01:52 TV-SD-X264 Follow.The.Money.S03E03.SUBBED.HDTV.x264-ONTHERUN
2019-04-16 10:02:27 TV-X264 Follow.The.Money.S03E03.SUBBED.720p.HDTV.x264-ONTHERUN
2019-04-16 10:03:02 TV-HD-X264 Follow.The.Money.S03E03.SUBBED.1080p.HDTV.x264-ONTHERUN
2019-04-16 10:03:50 TV-XVID Follow.The.Money.S03E04.SUBBED.HDTV.x264-ONTHERUN
2019-04-16 10:04:24 TV-HD-X264 Follow.The.Money.S03E04.SUBBED.720p.HDTV.x264-ONTHERUN
2019-04-16 10:04:41 XXX-IMAGESET Nubiles.net_19.04.16.Dominica.Back.For.More.XXX.IMAGESET-FuGLi
2019-04-16 10:04:59 TV-X264 Follow.The.Money.S03E04.SUBBED.1080p.HDTV.x264-ONTHERUN
2019-04-16 10:05:27 XXX-IMAGESET Nubiles.net_19.04.16.Delphina.Bad.Bunny.XXX.IMAGESET-FuGLi
2019-04-16 10:06:40 FLAC Rothko-A_Continual_Search_For_Origins-(PURE127CD)-CD-FLAC-2002-dL
2019-04-16 10:07:43 XXX-IMAGESET Nubiles.net_19.04.16.Rachel.Adjani.Pink.Pleasures.XXX.IMAGESET-FuGLi
2019-04-16 10:08:49 FLAC VA-Bio_Rhythm_2_808_909_1991-(BIOCD2)-CD-FLAC-1990-dL
2019-04-16 10:11:00 FLAC VA-Live_At_The_Social_Volume_2_Mixed_By_Jon_Carter_(Monkey_Mafia)-(HVNLP15CD)-CD-FLAC-1996-dL
2019-04-16 10:13:11 FLAC VA-Rockers_Hi-Fi_DJ-Kicks_The_Black_Album-(K7056CD)-CD-FLAC-1997-dL
2019-04-16 10:13:23 TV-HD-X264 Barry.S02E03.SPANiSH.1080p.WEB.h264-FCC
2019-04-16 10:13:34 TV-HD-X264 Barry.S02E03.SPANiSH.720p.WEB.h264-FCC
2019-04-16 10:13:37 TV-HD-X264 And.Proud.S01E01.Shoplifters.and.Proud.1080p.HDTV.H264-UNDERBELLY
2019-04-16 10:13:47 TV-X264 Barry.S02E03.SPANiSH.WEB.h264-FCC
2019-04-16 10:14:41 TV-HD-X264 Worlds.Greatest.Food.Markets.S01E02.1080p.HDTV.H264-UNDERBELLY
2019-04-16 10:16:19 DAY Engineered.Software.Pump-FLO.v10-AMPED
2019-04-16 10:20:18 TV-X264 Schoeters.En.Bellen.S01E06.FLEMISH.WEB.H264-MERCATOR
2019-04-16 10:24:39 XXX-0DAY BabyGotBoobs.19.04.16.Quinn.Wilde.Field.Day.Fuck.XXX.1080p.MP4-KTR
2019-04-16 10:24:54 TV-X264 Temptation.Island.BE.S11E10.FLEMISH.WEB.x264-MERCATOR
2019-04-16 10:25:36 TV-X264 Twee.Tot.De.Zesde.Macht.S06E08.FLEMISH.WEB.H264-MERCATOR
2019-04-16 10:26:00 XXX-0DAY MommyGotBoobs.19.04.16.Kaylani.Lei.Big.Bad.MILF.XXX.1080p.MP4-KTR
2019-04-16 10:27:28 PRE Accident.Suicide.or.Murder.S01E04.Two.Deaths.One.Suspect.WEB.x264-UNDERBELLY
2019-04-16 10:28:07 XXX PervsOnPatrol.19.04.16.Autumn.Falls.Autumn.Nights.XXX.1080p.MP4-KTR
2019-04-16 10:28:30 TV-X264 Accident.Suicide.or.Murder.S01E04.Two.Deaths.One.Suspect.720p.WEB.x264-UNDERBELLY
2019-04-16 10:29:33 TV-X264 Accident.Suicide.or.Murder.S01E04.Two.Deaths.One.Suspect.1080p.WEB.x264-UNDERBELLY
2019-04-16 10:30:59 X265 The.Karate.Kid.1984.2160p.UHD.BluRay.X265-IAMABLE
2019-04-16 10:32:28 TV-XVID Dancing.With.The.Stars.AU.S16E09.HDTV.x264-CCT
2019-04-16 10:33:41 TV-X264 Dancing.With.The.Stars.AU.S16E09.720p.HDTV.x264-CCT
2019-04-16 10:35:46 DOX Staxel_v1.4.26_Update-RazorDOX
2019-04-16 10:39:00 TV-HD-X264 Modern.Family.S10E19.SPANiSH.1080p.HDTV.x264-FCC
2019-04-16 10:39:20 TV-HD-X264 Modern.Family.S10E19.SPANiSH.720p.HDTV.x264-FCC
2019-04-16 10:39:31 TV-SD-X264 Modern.Family.S10E19.SPANiSH.HDTV.x264-FCC
2019-04-16 10:39:56 TV-X264 Undercover.S01E08.FLEMISH.WEB.H264-MERCATOR
2019-04-16 10:40:37 XXX BurningAngel.19.04.16.Joanna.Angel.And.Kenzie.Reeves.XXX.1080p.MP4-KTR
2019-04-16 10:41:32 EBOOK PLURALSIGHT.PYGAL.PYTHON.DATA.PLAYBOOK-JGTiSO
2019-04-16 10:41:49 XXX GrandpasFuckTeens.19.04.16.Julia.Red.My.Grannys.New.Boyfriend.XXX.1080p.MP4-KTR
2019-04-16 10:43:45 XXX-0DAY HardX.19.04.16.Noemie.Bilas.Ebony.Anal.Creampie.XXX.1080p.MP4-KTR
2019-04-16 10:46:51 TV-X264 Van.Algemeen.Nut.S02E09.FLEMISH.WEB.H264-MERCATOR
2019-04-16 10:48:20 XXX-0DAY MomsOnMoms.19.04.16.Dana.Vespoli.And.Katie.Morgan.Mothers.Playdate.XXX.1080p.MP4-KTR
2019-04-16 10:50:17 XXX PureTaboo.19.04.16.Casey.Calvert.A.Casey.Calvert.Story.XXX.1080p.MP4-KTR
2019-04-16 10:50:52 TV-XVID Vranckx.2019.Superfoods.FLEMISH.WEB.H264-MERCATOR
2019-04-16 10:53:53 XXX-0DAY DevilsFilm.19.04.16.Bobbi.Dylan.Blacked.Out.XXX.1080p.MP4-KTR
2019-04-16 10:56:50 XXX-0DAY ImmoralLive.19.04.16.Barbie.Sins.XXX.1080p.MP4-KTR
2019-04-16 10:58:00 TV-X264 Snapped.S25E06.Lisa.Jones-Orock.WEB.x264-UNDERBELLY
2019-04-16 10:58:17 XXX-0DAY ImmoralLive.19.04.16.Barbie.Sins.XXX.2160p.MP4-KTR
2019-04-16 10:59:02 TV-HD-X264 Snapped.S25E06.Lisa.Jones-Orock.720p.WEB.x264-UNDERBELLY
2019-04-16 11:00:03 TV-HD-X264 Snapped.S25E06.Lisa.Jones-Orock.1080p.WEB.x264-UNDERBELLY
2019-04-16 11:00:30 TV-X264 The.Fix.2019.S01E05.WEB.h264-TBS
2019-04-16 11:00:59 PRE The.Fix.2019.S01E05.1080p.WEB.h264-TBS
2019-04-16 11:01:09 TV-X264 The.Fix.2019.S01E05.720p.WEB.h264-TBS
2019-04-16 11:03:02 XXX-0DAY MyDirtyMaid.19.04.16.Alexa.Vega.XXX.1080p.MP4-KTR
2019-04-16 11:04:19 TV-X264-SD American.Idol.S17E13.WEB.h264-TBS
2019-04-16 11:04:42 TV-X264-HD American.Idol.S17E13.720p.WEB.h264-TBS
2019-04-16 11:05:53 XXX-0DAY BurningAngel.19.04.16.Joanna.Angel.And.Kenzie.Reeves.XXX.2160p.MP4-KTR
2019-04-16 11:07:37 PRE Busy.Tonight.2019.04.15.Cedric.the.Entertainer.720p.WEB.x264-TBS
2019-04-16 11:07:38 XXX-0DAY GrandpasFuckTeens.19.04.16.Julia.Red.My.Grannys.New.Boyfriend.XXX.2160p.MP4-KTR
2019-04-16 11:07:44 X264 Busy.Tonight.2019.04.15.Cedric.the.Entertainer.1080p.WEB.x264-TBS
2019-04-16 11:07:53 X264 Busy.Tonight.2019.04.15.Cedric.the.Entertainer.WEB.x264-TBS
2019-04-16 11:12:21 X264 James.Corden.2019.04.15.Max.Minghella.720p.WEB.x264-TBS
2019-04-16 11:12:43 TV-XVID James.Corden.2019.04.15.Max.Minghella.WEB.x264-TBS
2019-04-16 11:14:50 TV-HD-X264 Hughesy.We.Have.A.Problem.S03E12.1080p.HDTV.x264-CCT
2019-04-16 11:14:56 XXX-0DAY HardX.19.04.16.Noemie.Bilas.Ebony.Anal.Creampie.XXX.2160p.MP4-KTR
2019-04-16 11:14:59 X264 A.Matter.of.Faith.2014.LIMITED.720p.WEB.x264-ASSOCiATE
2019-04-16 11:15:52 TV-X264 James.Corden.2019.04.15.Max.Minghella.1080p.WEB.x264-TBS
2019-04-16 11:16:03 X264 Lovely.Still.2008.LIMITED.INTERNAL.WEB.x264-ASSOCiATE
2019-04-16 11:16:43 TV-HD-X264 Chris.And.Julias.Sunday.Night.Takeaway.S01E08.1080p.HDTV.x264-CCT
2019-04-16 11:17:09 X264 Lovely.Still.2008.LIMITED.720p.WEB.x264-ASSOCiATE
2019-04-16 11:18:06 XXX-0DAY MomsOnMoms.19.04.16.Dana.Vespoli.And.Katie.Morgan.Mothers.Playdate.XXX.2160p.MP4-KTR
2019-04-16 11:18:14 X264 Nowhere.Mind.2018.LIMITED.WEB.x264-ASSOCiATE
2019-04-16 11:19:20 X264 Nowhere.Mind.2018.LIMITED.720p.WEB.x264-ASSOCiATE
2019-04-16 11:20:25 X264 Whitefolks.2017.LIMITED.WEB.x264-ASSOCiATE
2019-04-16 11:21:07 XXX-0DAY MyDirtyMaid.19.04.16.Alexa.Vega.XXX.2160p.MP4-KTR
2019-04-16 11:21:31 X264 Whitefolks.2017.LIMITED.720p.WEB.x264-ASSOCiATE
2019-04-16 11:22:36 X264 Wildflower.2016.LIMITED.WEB.x264-ASSOCiATE
2019-04-16 11:23:41 X264 Wildflower.2016.LIMITED.720p.WEB.x264-ASSOCiATE
2019-04-16 11:24:44 XXX-0DAY PureTaboo.19.04.16.Casey.Calvert.A.Casey.Calvert.Story.XXX.2160p.MP4-KTR
2019-04-16 11:25:35 TV Secrets.Of.The.Brain.S01E09.Sleep.HDR.2160p.UHDTV.H265-CBFM
2019-04-16 11:28:05 TV-X264 Weg.Zijn.Wij.S03E08.FLEMISH.WEB.H264-MERCATOR
2019-04-16 11:28:51 XXX-0DAY DevilsFilm.19.04.16.Bobbi.Dylan.Blacked.Out.XXX.2160p.MP4-KTR
2019-04-16 11:33:02 EBOOK Io.Donna.NR15.2019.iTALiAN.RETAiL.MAGAZiNE.eBook-DiVER
2019-04-16 11:36:10 XXX AmateurCFNM.19.04.16.Sasha.Rose.Want.An.Extra.Inch.XXX.1080p.MP4-KTR
2019-04-16 11:37:13 EBOOK La.Lettura.NR385.2019.iTALiAN.RETAiL.MAGAZiNE.eBook-DiVER
2019-04-16 11:37:16 XXX Anilos.19.04.16.Alby.Daor.Prime.Time.XXX.1080p.MP4-KTR
2019-04-16 11:38:15 XXX-0DAY Hegre.19.04.16.Leona.Nude.Intro.XXX.1080p.MP4-KTR
2019-04-16 11:38:33 EBOOK Sette.NR15.2019.iTALiAN.RETAiL.MAGAZiNE.eBook-DiVER
2019-04-16 11:39:49 XXX Hegre.19.04.16.Leona.Nude.Intro.XXX.2160p.MP4-KTR
2019-04-16 11:40:11 EBOOK L.Economia.Del.Corriere.Della.Sera.04.15.2019.iTALiAN.RETAiL.eBook-DiVER
2019-04-16 11:41:33 XXX HollyRandall.19.04.16.Katy.Jayne.Blue.Bikini.XXX.1080p.MP4-KTR
2019-04-16 11:42:46 XXX MetArt.19.04.16.Crystal.Wings.Hit.The.Gym.XXX.1080p.MP4-KTR
2019-04-16 11:44:01 XXX-0DAY MetArtX.19.04.16.Lucretia.K.Closer.To.Nature.XXX.1080p.MP4-KTR
2019-04-16 11:45:33 XXX Nubiles.19.04.16.April.Storm.Beautiful.Boobs.XXX.1080p.MP4-KTR
2019-04-16 11:45:54 X264 Frenzy.2018.BDRip.x264-ARiES
2019-04-16 11:46:30 XXX Nubiles.19.04.16.Kate.Rose.Sexy.Fun.XXX.1080p.MP4-KTR
2019-04-16 11:47:00 X264 Frenzy.2018.720p.BluRay.x264-ViRGO
2019-04-16 11:47:43 XXX Nubiles.19.04.16.Terry.Bloom.Young.Love.XXX.1080p.MP4-KTR
2019-04-16 11:48:21 MP3 Da_Angerboyz-Insanity_For_Life-(CAT294473)-WEB-2019-NDE
2019-04-16 11:48:39 XXX PlayboyPlus.19.04.16.Bella.Chase.All.Smiles.XXX.1080p.MP4-KTR
2019-04-16 11:49:55 MP3 Neeo-Transience_EP-(8790001255715)-WEB-2019-NDE
2019-04-16 11:50:27 XXX-0DAY VivThomas.19.04.16.Blue.Angel.And.Helena.Moeller.Honey.Im.Home.XXX.1080p.MP4-KTR
2019-04-16 11:50:54 X264 Frenzy.2018.1080p.BluRay.x264-CAPRiCORN
2019-04-16 11:51:44 XXX-0DAY WetAndPissy.19.04.16.Roxy.Lips.Her.First.Streams.XXX.1080p.MP4-KTR
2019-04-16 11:52:19 TV-XVID Bite.Club.S01E06.GERMAN.1080p.WEB.H264-FENDT
2019-04-16 11:52:25 TV-X264 Made.In.Chelsea.S17E04.1080p.HDTV.h264-PLUTONiUM
2019-04-16 11:52:48 TV-X264 Bite.Club.S01E06.GERMAN.720p.WEB.H264-FENDT
2019-04-16 11:53:12 TV-X264 The.Piketon.Family.Murders.2019.WEB.x264-UNDERBELLY
2019-04-16 11:53:20 MP3 GHA-Solid_Walls-(RAVEMUZIK021)-WEB-2019-NDE
2019-04-16 11:53:26 TV-X264 Made.In.Chelsea.S17E04.720p.HDTV.x264-PLUTONiUM
2019-04-16 11:54:13 X264 The.Piketon.Family.Murders.2019.720p.WEB.x264-UNDERBELLY
2019-04-16 11:54:27 TV-SD-X264 Made.In.Chelsea.S17E04.HDTV.x264-PLUTONiUM
2019-04-16 11:55:15 XXX MetArtX.19.04.16.Lucretia.K.Closer.To.Nature.XXX.2160p.MP4-KTR
2019-04-16 11:55:16 X264 The.Piketon.Family.Murders.2019.1080p.WEB.x264-UNDERBELLY
2019-04-16 11:57:10 XXX-0DAY VivThomas.19.04.16.Blue.Angel.And.Helena.Moeller.Honey.Im.Home.XXX.2160p.MP4-KTR
2019-04-16 11:58:54 BLURAY Frenzy.2018.COMPLETE.BLURAY-AQUARiUS
2019-04-16 11:59:45 XXX-0DAY WetAndPissy.19.04.16.Roxy.Lips.Her.First.Streams.XXX.2160p.MP4-KTR
2019-04-16 12:02:16 MP3 VA-Fucking_Hardcore_11-(MOK194)-WEB-2019-NDE
2019-04-16 12:02:59 XXX-0DAY DevilsFilm.Blacked.Out.11.XXX.720p.MP4-KTR
2019-04-16 12:05:02 MP3 Dvkes_-_Let_Me_Go_Into_The_Wild-2013-DDS
2019-04-16 12:05:04 MP3 VA-Fucking_Hardcore_10-(MOK183)-WEB-2018-NDE
2019-04-16 12:05:05 BLURAY Mid90s.2018.MULTi.COMPLETE.BLURAY-SharpHD
2019-04-16 12:05:26 TV-HD-X264 Game.of.Thrones.S08E01.GERMAN.DL.720p.WEB.H264.iNTERNAL-FENDT
2019-04-16 12:05:55 TV-HD-X264 Game.of.Thrones.S08E01.GERMAN.DL.1080p.WEB.H264.iNTERNAL-FENDT
2019-04-16 12:07:25 APPS Heavens.Vault-TiNYiSO
2019-04-16 12:10:10 XXX-0DAY AllOver30.19.04.16.Lauren.Phillips.Ladies.With.Toys.XXX.1080p.MP4-KTR
2019-04-16 12:12:32 XXX-0DAY AllOver30.19.04.16.Brianna.Bree.Ladies.In.Action.XXX.1080p.MP4-KTR
2019-04-16 12:14:38 XXX-0DAY BlacksOnBlondes.19.04.16.Sharon.Lee.XXX.1080p.MP4-KTR
2019-04-16 12:14:40 MP3 Judy_Niemack-New_York_Stories-2018-404
2019-04-16 12:15:15 MP3 The_Weight_Band-World_Gone_Mad-2018-404
2019-04-16 12:15:41 MP3 VA-Arawak_(Compiled_By_Kleiman)-(UGM080)-WEB-2019-NDE
2019-04-16 12:16:18 X265 Captain.America.The.Winter.Soldier.2014.2160p.UHD.BluRay.x265-TERMiNAL
2019-04-16 12:16:24 XXX Cucked.19.04.16.Edyn.Blair.A.Real.Man.Lasts.Longer.Than.30.Seconds.XXX.1080p.MP4-KTR
2019-04-16 12:17:40 MP3 VA-Club_Tracks_Selection-(M2ITRAX268)-WEB-2019-NDE
2019-04-16 12:18:16 APPS PLURALSIGHT.BUILDING.CHARTS.AND.VISUALIZATIONS.IN.QLIK.SENSE-JGTiSO
2019-04-16 12:18:53 XXX-0DAY OpenFamily.19.04.16.Kate.England.XXX.1080p.MP4-KTR
2019-04-16 12:21:00 MP3 VA-DEEP_HOUSE_SPRING_IS_HERE-(SIFARE0042)-WEB-2019-NDE
2019-04-16 12:21:42 XXX-0DAY WildOnCam.19.04.16.Paisley.Porter.Solo.XXX.1080p.MP4-KTR
2019-04-16 12:23:24 MP3 VA-Deep_Techno_Music_Mix_2019_Vol_9_(Compiled_And_Mixed_By_Gerti_Prenjasi)-(GPA0038)-WEB-2019-NDE
2019-04-16 12:25:20 XXX-0DAY DaughterSwap.19.04.16.Cleo.Clementine.And.Brooklyn.Gray.Domino.Dick.Down.XXX.1080p.MP4-KTR
2019-04-16 12:27:47 XXX-0DAY GingerPatch.19.04.16.Penny.Pax.And.Jaycee.Starr.Embrace.The.Ginger.XXX.1080p.MP4-KTR
2019-04-16 12:29:02 MP3 VA-Enhanced_Spring_19-(FM382)-WEB-2019-NDE
2019-04-16 12:29:29 GAMES World.War.Z-CODEX
2019-04-16 12:31:30 XXX-0DAY ATKGirlfriends.19.04.16.Emily.Willis.XXX.1080p.MP4-KTR
2019-04-16 12:33:01 XXX-0DAY ATKGirlfriends.19.04.16.Megan.Winters.XXX.1080p.MP4-KTR
2019-04-16 12:34:13 MP3 Alexander_Miroshnichenko_-_Dedicated-(BSR515)-WEB-2019-JUSTiFY
2019-04-16 12:34:43 XXX-0DAY Yanks.19.04.16.Alisha.Adams.Sexy.Snatch.XXX.720p.MP4-KTR
2019-04-16 12:35:11 MP3 Astral_Legacy_-_Feveran-(SR373)-SINGLE-WEB-2019-JUSTiFY
2019-04-16 12:35:13 MP3 VA-FLY_DEEP_HOUSE-(SIFARE0027)-WEB-2019-NDE
2019-04-16 12:36:14 XXX-0DAY GirlsOutWest.19.04.16.Billie.Shower.Power.XXX.1080p.MP4-TRASHBIN
2019-04-16 12:36:16 MP3 Basic_Beatz_-_Better_Off_Alone-(RE156)-WEB-2019-JUSTiFY
2019-04-16 12:37:19 TV-X264 Katie.Price.My.Crazy.Life.S03E02.Life.is.a.Highway.WEB.x264-GIMINI
2019-04-16 12:37:21 MP3 VA-Ibiza_Reunion_2019-(4061707154638)-WEB-2019-NDE
2019-04-16 12:37:36 XXX-0DAY GirlsOutWest.19.04.16.Billie.Shower.Power.XXX.2160p.MP4-TRASHBIN
2019-04-16 12:38:03 MP3 Render_-_Incorrect_Information-(RR007EP)-WEB-2019-JUSTiFY
2019-04-16 12:38:21 TV-HD-X264 Katie.Price.My.Crazy.Life.S03E02.Life.is.a.Highway.720p.WEB.x264-GIMINI
2019-04-16 12:38:39 XXX-0DAY Hustler.19.04.16.Lotus.Lain.XXX.1080p.MP4-TRASHBIN
2019-04-16 12:39:23 TV-HD-X264 Katie.Price.My.Crazy.Life.S03E02.Life.is.a.Highway.1080p.WEB.x264-GIMINI
2019-04-16 12:40:47 MP3 VA-JCTEAK_Vol_7-(HIFICOMP205)-WEB-2015-NDE
2019-04-16 12:41:21 XXX-0DAY AllOver30.19.04.16.Lauren.Phillips.Ladies.With.Toys.XXX.2160p.MP4-KTR
2019-04-16 12:43:04 MP3 VA-Moodmakers_From_Amsterdam_Vol_2-(ABM003)-WEB-2015-NDE
2019-04-16 12:43:50 X264 Die.Supermonster.Tierisch.gute.Freunde.2019.GERMAN.DL.720P.WEB.X264-WAYNE
2019-04-16 12:44:44 MP3 VA-Music_Is_Your_Life_EDM_Vol_28-(SLR502)-WEB-2019-NDE
2019-04-16 12:44:51 XXX-0DAY AllOver30.19.04.16.Brianna.Bree.Ladies.In.Action.XXX.2160p.MP4-KTR
2019-04-16 12:47:04 MP3 VA-Rules_Of_Thumb-(7640168997519)-WEB-2019-NDE
2019-04-16 12:47:58 XXX-0DAY ATKGirlfriends.19.04.16.Emily.Willis.XXX.2160p.MP4-KTR
2019-04-16 12:50:20 XXX-0DAY ATKGirlfriends.19.04.16.Megan.Winters.XXX.2160p.MP4-KTR
2019-04-16 12:50:56 MP3 VA-Sound_Of_The_Underground_2019-(HLR0143)-WEB-2019-NDE
2019-04-16 12:51:47 TV-X264-HD The.Voice.S16E12.720p.WEB.x264-TBS
2019-04-16 12:52:05 TV-X264 The.Voice.S16E12.WEB.x264-TBS
2019-04-16 12:52:07 TV-HD-X264 The.Voice.S16E12.1080p.WEB.x264-TBS
2019-04-16 12:54:29 XXX-0DAY BrutalPOV.E18.Natalie.Brooks.XXX.1080p.MP4-KTR
2019-04-16 12:55:29 MP3 VA-Subway_Deep_House_Classics-(0733991257787)-WEB-2019-NDE
2019-04-16 12:55:59 X264 Surviving.In.The.Lagoon.2018.1080p.WEBRip.x264-BRAINFUEL
2019-04-16 12:57:30 X264 Surviving.In.The.Lagoon.2018.720p.WEBRip.x264-BRAINFUEL
2019-04-16 12:57:38 MP3 VA-Thank_God_Its_Deep_House_Music_Vol_3-(COMP003)-WEB-2019-NDE
2019-04-16 12:59:02 X264 The.True.Story.Of.King.Tuts.Tomb.2018.1080p.WEBRip.x264-BRAINFUEL
2019-04-16 12:59:39 XXX-0DAY Cucked.19.04.16.Edyn.Blair.A.Real.Man.Lasts.Longer.Than.30.Seconds.XXX.2160p.MP4-KTR
2019-04-16 13:00:34 X264 The.True.Story.Of.King.Tuts.Tomb.2018.720p.WEBRip.x264-BRAINFUEL
2019-04-16 13:00:47 TV-HD-X264 Plus.S44E09.SWEDiSH.720p.WEB.H264-EXECUTION
2019-04-16 13:01:15 MP3 VA-The_Annual_Spring_19-(FFR206)-WEB-2019-NDE
2019-04-16 13:01:27 XXX BrutalPOV.E18.Natalie.Brooks.XXX.2160p.MP4-KTR
2019-04-16 13:02:42 TV-HD-X264 Mighty.Cruise.Ships.S01E02.Le.Soleal.1080p.WEB.x264-UNDERBELLY
2019-04-16 13:02:56 TV-HD-X264 Rodzinka.pl.S14E05.POLISH.720p.HDTV.x264-ProPLTV
2019-04-16 13:03:08 MP3 VA-The_Best_Of_EDM_Festivals.1-(CAT293722)-WEB-2019-NDE
2019-04-16 13:03:58 TV-HD-X264 Rodzinka.pl.S14E06.POLISH.720p.HDTV.x264-ProPLTV
2019-04-16 13:05:35 TV-HD-X264 Stulecie.Winnych.S01E06.POLISH.720p.HDTV.x264-ProPLTV
2019-04-16 13:05:50 XXX-0DAY OpenFamily.19.04.16.Kate.England.XXX.2160p.MP4-KTR
2019-04-16 13:06:59 MP3 VA-Vintage_Tech_House_Spring_19-(SBR241)-WEB-2019-NDE
2019-04-16 13:07:09 TV-HD-X264 Stulecie.Winnych.S01E07.POLISH.720p.HDTV.x264-ProPLTV
2019-04-16 13:07:45 MP3 Jan_Bendig-Roma_Boy-WEB-CZ-2018-I_KnoW_INT
2019-04-16 13:08:13 MP3 Jan_Bendig-Viva_La_Vida-(Single)-WEB-CZ-2019-I_KnoW_INT
2019-04-16 13:08:51 TV-X264 9-1-1.S02E12.POLISH.720p.HDTV.x264-ProPLTV
2019-04-16 13:10:03 TV-DVDRIP Silent.Witness.S22E01.DVDRip.x264-OUIJA
2019-04-16 13:10:33 TV-HD-X264 Chylka.Zaginiecie.S01E01.POLISH.720p.HDTV.x264-ProPLTV
2019-04-16 13:11:25 TV-DVDRIP Silent.Witness.S22E02.DVDRip.x264-OUIJA
2019-04-16 13:11:26 MP3 VA-Welcome_To_Spring_Vol_72-(SRR0072)-WEB-2019-NDE
2019-04-16 13:12:13 TV-DVDRIP Silent.Witness.S22E03.DVDRip.x264-OUIJA
2019-04-16 13:12:21 TV-HD-X264 Chylka.Zaginiecie.S01E02.POLISH.720p.HDTV.x264-ProPLTV
2019-04-16 13:13:03 MP3 VA-You_Make_Me_Feel-(PFR404)-WEB-2019-NDE
2019-04-16 13:13:16 TV-DVDRIP Silent.Witness.S22E04.DVDRip.x264-OUIJA
2019-04-16 13:13:42 TV-DVDRIP Silent.Witness.S22E05.DVDRip.x264-OUIJA
2019-04-16 13:14:22 TV-HD-X264 Chylka.Zaginiecie.S01E03.POLISH.720p.HDTV.x264-ProPLTV
2019-04-16 13:14:54 TV-DVDRIP Silent.Witness.S22E06.DVDRip.x264-OUIJA
2019-04-16 13:15:33 TV-DVDRIP Silent.Witness.S22E07.DVDRip.x264-OUIJA
2019-04-16 13:15:49 TV-HD-X264 Diagnoza.S04E07.POLISH.720p.HDTV.x264-ProPLTV
2019-04-16 13:16:09 XXX-0DAY FTVMilfs.19.04.16.Cindy.Starfall.Vietnamese.Heat.XXX.1080p.MP4-KTR
2019-04-16 13:16:57 TV-X264 Jimmy.Fallon.2019.04.15.Cher.1080p.WEB.x264-TBS
2019-04-16 13:17:03 X264 Jimmy.Fallon.2019.04.15.Cher.WEB.x264-TBS
2019-04-16 13:17:12 PRE Jimmy.Fallon.2019.04.15.Cher.720p.WEB.x264-TBS
2019-04-16 13:17:34 TV-HD-X264 I.Am.the.Night.S01E06.POLISH.720p.HDTV.x264-ProPLTV
2019-04-16 13:19:18 TV-DVDRIP Silent.Witness.S22E08.DVDRip.x264-OUIJA
2019-04-16 13:19:49 TV-X264 The.Name.Of.The.Rose.S01E03.POLISH.720p.HDTV.x264-ProPLTV
2019-04-16 13:20:22 XXX FTVMilfs.19.04.16.Cindy.Starfall.Vietnamese.Heat.XXX.2160p.MP4-KTR
2019-04-16 13:22:00 TV-HD-X264 The.Name.Of.The.Rose.S01E04.POLISH.720p.HDTV.x264-ProPLTV
2019-04-16 13:23:21 TV-HD-X264 The.Passage.S01E08.POLISH.720p.HDTV.x264-ProPLTV
2019-04-16 13:23:31 TV-HD-X264 WWE.Monday.Night.RAW.2019.04.15.720p.HDTV.x264-KYR
2019-04-16 13:23:59 TV-XVID My.Kitchen.Rules.S10E46.HDTV.x264-FQM
2019-04-16 13:25:05 MP3 2B_-_Feel_Desire-WEB-2000-iDC
2019-04-16 13:25:23 MP3 Go-Kko_-_Techno_Muscles-WEB-2003-iDC
2019-04-16 13:25:48 MP3 Nicole_-_Heaven-WEB-2001-iDC
2019-04-16 13:26:07 MP3 Speedwave_-_Hear_The_Drummer_Get_Wicked-WEB-2003-iDC
2019-04-16 13:26:26 DAY KORG_Gadget_Update_v2.2.0_NSW-SUXXORS
2019-04-16 13:26:56 MP3 Surprise_-_Dream-WEB-1998-iDC
2019-04-16 13:27:09 TV-HD-X264 Formula1.2019.Chinese.Grand.Prix.POLISH.720p.HDTV.x264-ProPLTV
2019-04-16 13:27:23 MP3 Vanni_G_-_All_My_Illusions-WEB-2004-iDC
2019-04-16 13:27:45 XXX-0DAY StunningButts.19.04.16.Laurita.Peralta.REMASTERED.XXX.1080p.MP4-KTR
2019-04-16 13:27:47 TV-DVDRIP Silent.Witness.S22E09.DVDRip.x264-OUIJA
2019-04-16 13:27:57 TV-DVDRIP Silent.Witness.S22E10.DVDRip.x264-OUIJA
2019-04-16 13:29:28 XXX-0DAY ClubSeventeen.19.04.16.Lexi.Lou.Hardcore.XXX.INTERNAL.1080p.MP4-KTR
2019-04-16 13:29:46 TV-HD-X264 Wentworth.S04E04.1080p.HDTV.H264-ONTHERUN
2019-04-16 13:30:45 XXX-0DAY ClubSeventeen.19.04.16.Nikki.Hill.Solo.XXX.1080p.MP4-KTR
2019-04-16 13:32:58 XXX-0DAY ClubSeventeen.19.04.16.Nikki.Hill.Solo.XXX.2160p.MP4-KTR
2019-04-16 13:37:01 EBOOK Le.Monde.17.Avril.2019.French.Retail.eBook-FMR
2019-04-16 13:42:32 TV-HD-X264 My.Kitchen.Rules.S10E46.720p.HDTV.x264-ORENJI
2019-04-16 13:44:18 FLAC Kid606-Shout_At_The_Doner-(meow146)-2LP-FLAC-2009-BEATOCUL
2019-04-16 13:52:19 MP3 Mendy_Indigo_-_Circoloco_Radio-DAB-04-14-2019-TALiON
2019-04-16 13:53:03 MP3 Alexander_Orue_-_Detox-DAB-04-09-2019-TALiON
2019-04-16 13:53:17 MP3 Alexander_Orue_-_Detox-DAB-04-11-2019-TALiON
2019-04-16 13:53:36 MP3 Kristen_Knight_-_Knight_Klub-DAB-03-13-2019-TALiON
2019-04-16 13:53:52 MP3 Mednas_-_Mednas_Madness-DAB-04-12-2019-TALiON
2019-04-16 13:54:14 MP3 Salvatore_-_Rippin_Radio-DAB-04-15-2019-TALiON
2019-04-16 13:54:28 MP3 Urban_Brainchild_-_305_Takeover-DAB-04-09-2019-TALiON
2019-04-16 13:54:41 MP3 Urban_Brainchild_-_305_Takeover-DAB-04-10-2019-TALiON
2019-04-16 13:54:45 XXX-IMAGESET Only-Secretaries.com.17.07.01.Rebecca.G.XXX.IMAGESET-IEVA
2019-04-16 13:54:56 MP3 Urban_Brainchild_-_305_Takeover-DAB-04-11-2019-TALiON
2019-04-16 13:55:13 MP3 Urban_Brainchild_-_305_Takeover-DAB-04-12-2019-TALiON
2019-04-16 13:55:28 XXX-IMAGESET Only-Secretaries.com.17.07.02.Abigail.B.XXX.IMAGESET-IEVA
2019-04-16 13:55:28 MP3 VE3_-_Andromeda-DAB-04-09-2019-TALiON
2019-04-16 13:55:44 MP3 Alexander_Orue_-_Detox-DAB-04-10-2019-TALiON
2019-04-16 13:56:11 XXX-IMAGESET Only-Secretaries.com.17.07.03.Lily.May.XXX.IMAGESET-IEVA
2019-04-16 13:56:53 XXX-IMAGESET Only-Secretaries.com.17.07.05.Lauren.Louise.XXX.IMAGESET-IEVA
2019-04-16 13:57:38 XXX-IMAGESET Only-Secretaries.com.17.07.06.Alice.Brookes.XXX.IMAGESET-IEVA
2019-04-16 13:58:20 XXX-IMAGESET Only-Secretaries.com.17.07.07.Rebecca.Elizabeth.XXX.IMAGESET-IEVA
2019-04-16 13:58:27 GAMES South.Park.The.Fractured.But.Whole.Gold.Edition-CODEX
2019-04-16 13:59:05 XXX-IMAGESET Only-Secretaries.com.17.07.08.Jimena.Lago.XXX.IMAGESET-IEVA
2019-04-16 13:59:49 XXX-IMAGESET Only-Secretaries.com.17.07.09.Sophie.W.XXX.IMAGESET-IEVA
2019-04-16 14:00:17 MP3 Ecstatic_-_Aliens-(DWX606)-SINGLE-WEB-2019-MMS
2019-04-16 14:00:20 MP3 Enemy_Contact_ft._Last_Word_-_Black-SINGLE-WEB-2019-MMS
2019-04-16 14:00:34 XXX-IMAGESET Only-Secretaries.com.17.07.11.Sammy.Braddy.XXX.IMAGESET-IEVA
2019-04-16 14:01:20 XXX-IMAGESET Only-Secretaries.com.17.07.12.Chastity.XXX.IMAGESET-IEVA
2019-04-16 14:02:05 XXX-IMAGESET Only-Secretaries.com.17.07.13.Daisy.Watts.XXX.IMAGESET-IEVA
2019-04-16 14:02:48 XXX-IMAGESET Only-Secretaries.com.17.07.14.Rachelle.XXX.IMAGESET-IEVA
2019-04-16 14:03:31 XXX-IMAGESET Only-Secretaries.com.17.07.15.Scarlot.Rose.XXX.IMAGESET-IEVA
2019-04-16 14:04:14 XXX-IMAGESET Only-Secretaries.com.17.07.16.Scarlett.T.XXX.IMAGESET-IEVA
2019-04-16 14:04:57 XXX-IMAGESET Only-Secretaries.com.17.07.17.Kara.Carter.XXX.IMAGESET-IEVA
2019-04-16 14:05:40 XXX-IMAGESET Only-Secretaries.com.17.07.18.Victoria.S.XXX.IMAGESET-IEVA
2019-04-16 14:06:22 XXX-IMAGESET Only-Secretaries.com.17.07.20.Laura.H.XXX.IMAGESET-IEVA
2019-04-16 14:07:06 XXX-IMAGESET Only-Secretaries.com.17.07.21.Suzi.XXX.IMAGESET-IEVA
2019-04-16 14:07:49 XXX-IMAGESET Only-Secretaries.com.17.07.22.Lycia.XXX.IMAGESET-IEVA
2019-04-16 14:08:31 XXX-IMAGESET Only-Secretaries.com.17.07.23.Chrissy.XXX.IMAGESET-IEVA
2019-04-16 14:08:50 TV-HD-X264 Hockeyklubben.S01E23.SWEDiSH.720p.WEB.H264-EXECUTION
2019-04-16 14:09:10 TV-HD-X264 Hockeyklubben.S01E23.SWEDiSH.1080p.WEB.H264-EXECUTION
2019-04-16 14:09:14 XXX-IMAGESET Only-Secretaries.com.17.07.24.Terri.Lou.XXX.IMAGESET-IEVA
2019-04-16 14:09:45 X264 Karate.Kid.1984.German.DL.2160p.UHD.BluRay.x265-ENDSTATiON
2019-04-16 14:09:57 XXX-IMAGESET Only-Secretaries.com.17.07.26.Rosa.XXX.IMAGESET-IEVA
2019-04-16 14:10:25 MP3 Impact_-_Begin_Again_(Sam_Auscore_Remix)-(EXE083)-SINGLE-WEB-2019-MMS
2019-04-16 14:10:41 XXX-IMAGESET Only-Secretaries.com.17.07.27.Candice.XXX.IMAGESET-IEVA
2019-04-16 14:11:24 XXX-IMAGESET Only-Secretaries.com.17.07.28.Sarah.James.XXX.IMAGESET-IEVA
2019-04-16 14:11:27 MP3 Technikore_-_Space_Cadet_2019-(SNKRUS9)-WEB-2019-MMS
2019-04-16 14:11:36 MP3 Arborik1-Premier_Regard-SINGLE-WEB-FR-2019-OND
2019-04-16 14:12:07 XXX-IMAGESET Only-Secretaries.com.17.07.29.Millie.P.XXX.IMAGESET-IEVA
2019-04-16 14:12:49 XXX-IMAGESET Only-Secretaries.com.17.07.30.Kirstie.Collins.XXX.IMAGESET-IEVA
2019-04-16 14:12:56 MP3 Aty-Sois_Calme-WEB-FR-2019-OND
2019-04-16 14:13:32 XXX-IMAGESET Only-Secretaries.com.17.08.01.Cikita.XXX.IMAGESET-IEVA
2019-04-16 14:14:12 MP3 Brigitte_Bardot-Kaleidoscope-WEB-FR-2019-OND
2019-04-16 14:14:17 XXX-IMAGESET Only-Secretaries.com.17.08.02.Becky.X.XXX.IMAGESET-IEVA
2019-04-16 14:15:00 XXX-IMAGESET Only-Secretaries.com.17.08.03.Jess.XXX.IMAGESET-IEVA
2019-04-16 14:15:28 MP3 Charles_Aznavour-Sunrise-WEB-FR-2019-OND
2019-04-16 14:15:43 XXX-IMAGESET Only-Secretaries.com.17.08.04.Brook.A.XXX.IMAGESET-IEVA
2019-04-16 14:16:26 XXX-IMAGESET Only-Secretaries.com.17.08.05.Harper.XXX.IMAGESET-IEVA
2019-04-16 14:16:44 MP3 Claude_Francois-Kaleidoscope-WEB-FR-2019-OND
2019-04-16 14:17:08 XXX-IMAGESET Only-Secretaries.com.17.08.07.Asha.Evans.XXX.IMAGESET-IEVA
2019-04-16 14:17:52 XXX-IMAGESET Only-Secretaries.com.17.08.08.Jo.E.XXX.IMAGESET-IEVA
2019-04-16 14:18:01 MP3 Claude_Francois-Sunrise-WEB-FR-2019-OND
2019-04-16 14:18:34 XXX-IMAGESET Only-Secretaries.com.17.08.09.Gracie.Adams.XXX.IMAGESET-IEVA
2019-04-16 14:19:17 MP3 DEM-G1-WEB-FR-2019-OND
2019-04-16 14:19:17 XXX-IMAGESET Only-Secretaries.com.17.08.10.Deannah.XXX.IMAGESET-IEVA
2019-04-16 14:20:00 XXX-IMAGESET Only-Secretaries.com.17.08.11.Stacey.P.XXX.IMAGESET-IEVA
2019-04-16 14:20:33 MP3 Edith_Piaf-Sunrise-WEB-FR-2019-OND
2019-04-16 14:20:43 XXX-IMAGESET Only-Secretaries.com.17.08.12.Alexa.B.XXX.IMAGESET-IEVA
2019-04-16 14:21:20 TV-HD-X264 Down.Met.Johnny.S03E05.DUTCH.720p.HDTV.x264-DTOD
2019-04-16 14:21:25 XXX-IMAGESET Only-Secretaries.com.17.08.13.Emma.Jones.XXX.IMAGESET-IEVA
2019-04-16 14:21:36 TV-XVID Seth.Meyers.2019.04.15.Tracy.Morgan.WEB.x264-TBS
2019-04-16 14:21:49 MP3 El_Jay-Conte_De_Fee-SINGLE-WEB-FR-2019-OND
2019-04-16 14:22:09 XXX Only-Secretaries.com.17.08.14.Charlotte.H.XXX.IMAGESET-IEVA
2019-04-16 14:22:34 PRE Seth.Meyers.2019.04.15.Tracy.Morgan.1080p.WEB.x264-TBS
2019-04-16 14:22:53 XXX Only-Secretaries.com.17.08.15.Charley.S.XXX.IMAGESET-IEVA
2019-04-16 14:23:06 MP3 Francoise_Hardy-Sunrise-WEB-FR-2019-OND
2019-04-16 14:23:36 XXX Only-Secretaries.com.17.08.17.Kay.XXX.IMAGESET-IEVA
2019-04-16 14:24:19 XXX-IMAGESET Only-Secretaries.com.17.08.18.Natalie.C.XXX.IMAGESET-IEVA
2019-04-16 14:24:21 TV-HD-X264 Wereldreis.Op.Wielen.S01E24.DUTCH.720p.HDTV.x264-DTOD
2019-04-16 14:24:22 MP3 Galat-Yeux_Rouges-SINGLE-WEB-FR-2019-OND
2019-04-16 14:25:03 XXX-IMAGESET Only-Secretaries.com.17.08.19.Maria.XXX.IMAGESET-IEVA
2019-04-16 14:25:38 MP3 Gilbert_Becaud-Sunrise-WEB-FR-2019-OND
2019-04-16 14:25:47 XXX-IMAGESET Only-Secretaries.com.17.08.21.Holly.Jade.XXX.IMAGESET-IEVA
2019-04-16 14:26:28 XXX-IMAGESET Only-Secretaries.com.17.08.22.Reanna.XXX.IMAGESET-IEVA
2019-04-16 14:26:54 MP3 Jacques_Brel-Kaleidoscope-WEB-FR-2019-OND
2019-04-16 14:27:12 XXX-IMAGESET Only-Secretaries.com.17.08.23.Tianna.XXX.IMAGESET-IEVA
2019-04-16 14:27:57 XXX Only-Secretaries.com.17.08.24.Katie.Lou.XXX.IMAGESET-IEVA
2019-04-16 14:28:10 MP3 Jacques_Brel-Sunrise-WEB-FR-2019-OND
2019-04-16 14:28:40 XXX-IMAGESET Only-Secretaries.com.17.08.25.Ulysse.XXX.IMAGESET-IEVA
2019-04-16 14:29:08 TV-HD-X264 Down.Met.Johnny.S03E05.DUTCH.1080p.HDTV.x264-DTOD
2019-04-16 14:29:23 XXX-IMAGESET Only-Secretaries.com.17.08.26.Lola.A.XXX.IMAGESET-IEVA
2019-04-16 14:29:27 MP3 Jean_Ferrat-Sunrise-WEB-FR-2019-OND
2019-04-16 14:30:06 XXX-IMAGESET Only-Secretaries.com.17.08.27.Helen.G.XXX.IMAGESET-IEVA
2019-04-16 14:30:43 MP3 Jessy_Matador-Pardonner_(Feat_Jessica_Errero_Et_DJ_Flash)-SINGLE-WEB-FR-2019-OND
2019-04-16 14:30:51 XXX-IMAGESET Only-Secretaries.com.17.08.28.Zofeya.XXX.IMAGESET-IEVA
2019-04-16 14:31:33 XXX-IMAGESET Only-Secretaries.com.17.08.30.Cayla.Lyons.XXX.IMAGESET-IEVA
2019-04-16 14:31:59 MP3 Jeune.Geoff-Fenetre_Sur_Four-WEB-FR-2019-OND
2019-04-16 14:32:16 XXX-IMAGESET Only-Secretaries.com.17.08.31.Jessika.Jinx.XXX.IMAGESET-IEVA
2019-04-16 14:33:15 MP3 Jeune.Geoff-Idees_Sombres-SINGLE-WEB-FR-2018-OND
2019-04-16 14:34:31 MP3 Kiu_Dizzy-Loin_Dla_Swiss_ID-WEB-FR-2019-OND
2019-04-16 14:35:47 MP3 Michel_Legrand-Sunrise-WEB-FR-2019-OND
2019-04-16 14:37:03 MP3 Miel_De_Montagne-Miel_De_Montagne-WEB-FR-2019-OND
2019-04-16 14:38:20 MP3 Mirage-2eme_Vie-WEB-FR-2019-OND
2019-04-16 14:39:36 MP3 Moussa-Double_Vue-SINGLE-WEB-FR-2019-OND
2019-04-16 14:40:38 TV-HD-X264 Havna.S01E07.NORWEGiAN.1080p.WEB.x264-KOMPOST
2019-04-16 14:40:51 MP3 Sang_Dancre-Carnet_De_Bord-WEB-FR-2019-OND
2019-04-16 14:41:01 X264 The.Ghan.Australias.Greatest.Train.Journey.2018.1080p.BluRay.x264-GHOULS
2019-04-16 14:41:26 TV-HD-X264 Havna.S01E08.NORWEGiAN.1080p.WEB.x264-KOMPOST
2019-04-16 14:42:03 TV-HD-X264 Havna.S01E09.NORWEGiAN.1080p.WEB.x264-KOMPOST
2019-04-16 14:42:08 MP3 Sang_Dancre-Et_Rever-WEB-FR-2019-OND
2019-04-16 14:43:24 MP3 Sang_Dancre-On_Nest_Pas_Des_Marins-WEB-FR-2016-OND
2019-04-16 14:44:40 MP3 Sang_Dancre-Terre_Amere-WEB-FR-2016-OND
2019-04-16 14:45:01 X264 The.Ghan.Australias.Greatest.Train.Journey.2018.720p.BluRay.x264-GHOULS
2019-04-16 14:45:56 MP3 Serge_Gainsbourg-Kaleidoscope-WEB-FR-2019-OND
2019-04-16 14:47:12 PRE Serge_Gainsbourg-Sunrise-WEB-FR-2019-OND
2019-04-16 14:48:28 MP3 Yves_Montand-Sunrise-WEB-FR-2019-OND
2019-04-16 14:50:04 TV-SD-X264 Lee.and.Dean.S02E01.HDTV.x264-ONTHERUN
2019-04-16 14:50:37 TV-HD-X264 Lee.and.Dean.S02E01.720p.HDTV.x264-ONTHERUN
2019-04-16 14:54:21 MP3 Cruel_Buddhist-Plane_B-WEB-2018-CaHeSo
2019-04-16 14:54:35 MP3 Cruel_Buddhist-Transpacific_Slop-WEB-2019-CaHeSo
2019-04-16 14:56:48 BLURAY The.Ghan.Australias.Greatest.Train.Journey.2018.COMPLETE.BLURAY-VEXHD
2019-04-16 14:59:15 X264 The.Karate.Kid.1984.PL.DUAL.2160p.UHD.BluRay.x265-PLHD
2019-04-16 15:01:48 TV-X264 Shadowhunters.The.Mortal.Instruments.S03E18.FRENCH.WEB.x264-AMB3R
2019-04-16 15:05:56 MP3 Sonsez-Kalahari-(LUPSREC332)-WEB-2019-AFO
2019-04-16 15:06:18 MP3 David_Podhel-Euphoric_Pt._2-(PHWE229)-WEB-2019-AFO
2019-04-16 15:08:26 TV-HD-X264 Weather.Gone.Viral.S04E04.Weird.Weather.720p.HDTV.x264-CRiMSON
2019-04-16 15:08:38 MP3 Grimmaldika_and_TrixX_K-Edition-(LP187)-WEB-2019-AFO
2019-04-16 15:16:56 X264 Super.Monsters.Furever.Friends.2019.FRENCH.720p.WEB.x264-CARAPiLS
2019-04-16 15:17:34 X264 Super.Monsters.Furever.Friends.2019.MULTi.1080p.WEB.x264-CARAPiLS
2019-04-16 15:18:17 TV-HD-X264 Wereldreis.Op.Wielen.S01E24.DUTCH.1080p.HDTV.x264-DTOD
2019-04-16 15:26:43 PRE Seth.Meyers.2019.04.15.Tracy.Morgan.720p.WEB.x264-TBS
2019-04-16 15:31:02 X264 Spider.Man.A.New.Universe.2018.EXTENDED.German.DL.1080p.BluRay.x264-ENCOUNTERS
2019-04-16 15:31:30 TV-X264 T.I.and.Tiny.Friends.and.Family.Hustle.S02E01.1080p.WEB.x264-TBS
2019-04-16 15:33:33 TV-X264-HD Teen.Mom.2.S09E14.720p.WEB.x264-TBS
2019-04-16 15:34:02 TV-X264 Teen.Mom.2.S09E14.1080p.WEB.x264-TBS
2019-04-16 15:34:05 TV-X264-SD Teen.Mom.2.S09E14.WEB.x264-TBS
2019-04-16 15:35:21 X264 Spider.Man.A.New.Universe.2018.EXTENDED.German.720p.BluRay.x264-ENCOUNTERS
2019-04-16 15:36:11 TV-X264 Love.and.Hip.Hop.Atlanta.S08E05.1080p.WEB.x264-TBS
2019-04-16 15:39:36 TV-X264 Summer.House.S03E07.1080p.WEB.x264-TBS
2019-04-16 15:40:40 X264 Watch.What.Happens.Live.2019.04.08.Jax.Taylor.and.Brittany.Cartwright.720p.WEB.x264-TBS
2019-04-16 15:40:50 X264 Watch.What.Happens.Live.2019.04.08.Jax.Taylor.and.Brittany.Cartwright.WEB.x264-TBS
2019-04-16 15:42:45 TV-X264 Vanderpump.Rules.S07E19.1080p.WEB.x264-TBS
2019-04-16 15:44:55 PRE Stephen.Colbert.2019.04.15.Molly.Shannon.720p.WEB.x264-TBS
2019-04-16 15:45:04 TV-SD Stephen.Colbert.2019.04.15.Molly.Shannon.WEB.x264-TBS
2019-04-16 15:45:35 X264 Stephen.Colbert.2019.04.15.Molly.Shannon.1080p.WEB.x264-TBS
2019-04-16 15:46:10 X264 Spider.Man.A.New.Universe.German.2018.AC3.EXTENDED.BDRiP.x264-XF
2019-04-16 15:48:14 TV-XVID Jimmy.Kimmel.2019.04.15.Dax.Shepard.WEB.h264-TBS
2019-04-16 15:48:35 TV-X264 Jimmy.Kimmel.2019.04.15.Dax.Shepard.720p.WEB.h264-TBS
2019-04-16 15:48:40 TV-SD-X264 The.World.Game.2019.04.15.HDTV.x264-PLUTONiUM
2019-04-16 15:49:42 TV-HD-X264 The.World.Game.2019.04.15.720p.HDTV.x264-PLUTONiUM
2019-04-16 15:49:56 BOOKWARE Lynda.Building.Serverless.Apps.on.AWS-APoLLo
2019-04-16 15:50:44 TV-HD-X264 The.World.Game.2019.04.15.1080p.HDTV.x264-PLUTONiUM
2019-04-16 15:51:15 TV-HD-X264 Artico.S01E05.SPANiSH.1080p.HDTV.x264-FCC
2019-04-16 15:51:37 TV-HD-X264 Artico.S01E05.SPANiSH.720p.HDTV.x264-FCC
2019-04-16 15:51:57 TV-SD-X264 Artico.S01E05.SPANiSH.HDTV.x264-FCC
2019-04-16 15:58:01 MP3 Gary_Oconnor_and_Wayne_Smart_-_Kokaine-(DS_010)-SINGLE-WEB-2019-ZzZz
2019-04-16 16:00:05 MP3 Dave_Curtis_and_Gary_Oconnor_-_You_Make_Me-(DS_011)-SINGLE-WEB-2019-ZzZz
2019-04-16 16:03:10 X264 The.Green.Mile.1999.German.DL.1080p.BluRay.VC1-SAViOURHD
2019-04-16 16:09:57 X264 The.Visitants.1986.1080p.BluRay.x264-LATENCY
2019-04-16 16:11:06 TV-HD-X264 Sin.Palabras.S03E17.SPANiSH.1080p.HDTV.x264-FCC
2019-04-16 16:11:22 TV-HD-X264 Sin.Palabras.S03E17.SPANiSH.720p.HDTV.x264-FCC
2019-04-16 16:11:33 TV-XVID Sin.Palabras.S03E17.SPANiSH.HDTV.x264-FCC
2019-04-16 16:12:43 X264 The.Visitants.1986.720p.BluRay.x264-LATENCY
2019-04-16 16:14:10 MP3 Noelia-Explode_(Feat_Timbaland_Bk_Brasco)-(BLV5849516)-WEB-2019-KLIN
2019-04-16 16:15:20 X264 The.Visitants.1986.BDRip.x264-LATENCY
2019-04-16 16:15:49 EBOOK Packt.Hands.On.Full.Stack.Web.Development.With.GraphQL.And.React-ANALYTiCS
2019-04-16 16:17:15 MP3 Ali_Bakgor-Wonder-(SIR1058)-SINGLE-WEB-2019-KLIN
2019-04-16 16:19:30 X264 Mortal.Engines.Krieg.der.Staedte.3D.2018.German.DL.1080p.BluRay.x264-BluRay3D
2019-04-16 16:20:29 X264 Super.Monsters.Furever.Friends.2019.POLISH.720p.WEB.x264-OBLAKANY
2019-04-16 16:22:45 MP3 Alex_Spite-Need_To_Live-(DS000025)-SINGLE-WEB-2019-KLIN
2019-04-16 16:23:57 TV-X264 The.Big.Escape.S02E07.DUTCH.720p.HDTV.x264-DTOD
2019-04-16 16:24:33 TV-XVID Nuestro.Planeta.S01E01.2019.SPANiSH.DOC.WEB.X264-iBERiCO
2019-04-16 16:25:11 TV-X264 Nuestro.Planeta.S01E02.2019.SPANiSH.DOC.WEB.X264-iBERiCO
2019-04-16 16:25:24 BOOKWARE Packt.Learning.Julia.1.0-XQZT
2019-04-16 16:25:49 TV-X264 Nuestro.Planeta.S01E03.2019.SPANiSH.DOC.WEB.X264-iBERiCO
2019-04-16 16:26:27 TV-X264 Nuestro.Planeta.S01E04.2019.SPANiSH.DOC.WEB.X264-iBERiCO
2019-04-16 16:26:53 MP3 Vladmir_Diva_Feat__Edgar_Domingos_and_Kenny_Andre-Falida-(AMS024)-SINGLE-WEB-2018-KLIN
2019-04-16 16:27:05 TV-X264 Nuestro.Planeta.S01E05.2019.SPANiSH.DOC.WEB.X264-iBERiCO
2019-04-16 16:27:12 TV-HD-X264 The.Big.Escape.S02E07.DUTCH.1080p.HDTV.x264-DTOD
2019-04-16 16:27:43 TV-X264 Nuestro.Planeta.S01E06.2019.SPANiSH.DOC.WEB.X264-iBERiCO
2019-04-16 16:27:50 X264 Super.Monsters.Furever.Friends.2019.POLISH.1080p.WEB.x264-OBLAKANY
2019-04-16 16:28:22 TV-X264 Nuestro.Planeta.S01E07.2019.SPANiSH.DOC.WEB.X264-iBERiCO
2019-04-16 16:29:00 TV-X264 Nuestro.Planeta.S01E08.FiNAL.2019.SPANiSH.DOC.WEB.X264-iBERiCO
2019-04-16 16:30:00 MP3 Sonikem-Imi_Ni_Shinario_(Feat_Whale_Talx_Annie_The_Clumsy)-(BLV6226424)-SINGLE-WEB-2019-KLIN
2019-04-16 16:32:15 MP3 Roberto_Valentino-Schone_Blaue_Augen-(ALBALAB073)-SINGLE-WEB-2019-KLIN
2019-04-16 16:32:27 MP3 VA_-_Sound_For_DJ_Vol_27-(KCD_19056)-WEB-2019-ZzZz
2019-04-16 16:36:45 TV-HD-X264 Nuestro.Planeta.S01E01.2019.SPANiSH.DOC.MULTi.720p.WEB.X264-iBERiCO
2019-04-16 16:37:38 TV-HD-X264 Nuestro.Planeta.S01E02.2019.SPANiSH.DOC.MULTi.720p.WEB.X264-iBERiCO
2019-04-16 16:37:42 TV Extraordinary.Humans.S02E01.HDR.2160p.UHDTV.H265-CBFM
2019-04-16 16:37:42 TV-HD-X264 Nuestro.Planeta.S01E01.2019.SPANiSH.DOC.MULTi.1080p.WEB.X264-iBERiCO
2019-04-16 16:38:10 MP3 Krime-Soul_Needs_EP-WEB-2019-KLIN
2019-04-16 16:38:31 TV-HD-X264 Nuestro.Planeta.S01E03.2019.SPANiSH.DOC.MULTi.720p.WEB.X264-iBERiCO
2019-04-16 16:39:19 TV-HD-X264 Nuestro.Planeta.S01E02.2019.SPANiSH.DOC.MULTi.1080p.WEB.X264-iBERiCO
2019-04-16 16:39:25 TV-HD-X264 Nuestro.Planeta.S01E04.2019.SPANiSH.DOC.MULTi.720p.WEB.X264-iBERiCO
2019-04-16 16:39:43 MP3 Krime-Soul_Needs_EP-(WMGEP139)-WEB-2019-KLIN
2019-04-16 16:40:19 TV-HD-X264 Nuestro.Planeta.S01E05.2019.SPANiSH.DOC.MULTi.720p.WEB.X264-iBERiCO
2019-04-16 16:40:57 TV-HD-X264 Nuestro.Planeta.S01E03.2019.SPANiSH.DOC.MULTi.1080p.WEB.X264-iBERiCO
2019-04-16 16:41:12 SPDOCUHD Nuestro.Planeta.S01E06.2019.SPANiSH.DOC.MULTi.720p.WEB.X264-iBERiCO
2019-04-16 16:41:38 MP3 Slight_Return-Vicious_Tides-(MI5037)-SINGLE-WEB-2019-KLIN
2019-04-16 16:42:05 TV-HD-X264 Nuestro.Planeta.S01E07.2019.SPANiSH.DOC.MULTi.720p.WEB.X264-iBERiCO
2019-04-16 16:42:35 TV-HD-X264 Nuestro.Planeta.S01E04.2019.SPANiSH.DOC.MULTi.1080p.WEB.X264-iBERiCO
2019-04-16 16:42:59 TV-HD-X264 Nuestro.Planeta.S01E08.FiNAL.2019.SPANiSH.DOC.MULTi.720p.WEB.X264-iBERiCO
2019-04-16 16:44:14 TV-HD-X264 Nuestro.Planeta.S01E05.2019.SPANiSH.DOC.MULTi.1080p.WEB.X264-iBERiCO
2019-04-16 16:45:52 TV-HD-X264 Nuestro.Planeta.S01E06.2019.SPANiSH.DOC.MULTi.1080p.WEB.X264-iBERiCO
2019-04-16 16:47:29 TV-HD-X264 Nuestro.Planeta.S01E07.2019.SPANiSH.DOC.MULTi.1080p.WEB.X264-iBERiCO
2019-04-16 16:49:08 TV-HD-X264 Nuestro.Planeta.S01E08.FiNAL.2019.SPANiSH.DOC.MULTi.1080p.WEB.X264-iBERiCO
2019-04-16 16:53:11 TV-HD-X264 No.Good.Nick.S01E01.POLISH.720p.WEB.x264-OBLAKANY
2019-04-16 16:53:16 MP3 George_Escard-Shelter-(IND5CA1560B75)-SINGLE-WEB-2019-KLIN
2019-04-16 16:54:21 TV-XVID No.Time.To.Lose.S01E01.HDR.2160p.UHDTV.H265-CBFM
2019-04-16 16:54:29 TV-HD-X264 No.Good.Nick.S01E02.POLISH.720p.WEB.x264-OBLAKANY
2019-04-16 16:55:47 TV-HD-X264 No.Good.Nick.S01E03.POLISH.720p.WEB.x264-OBLAKANY
2019-04-16 16:56:55 X264 Mid90s.2018.German.720p.BluRay.x264-PL3X
2019-04-16 16:57:01 X264 Mid90s.German.2018.BDRiP.x264-PL3X
2019-04-16 16:57:10 TV-HD-X264 No.Good.Nick.S01E04.POLISH.720p.WEB.x264-OBLAKANY
2019-04-16 16:58:23 TV-HD-X264 No.Good.Nick.S01E05.POLISH.720p.WEB.x264-OBLAKANY
2019-04-16 16:58:57 GAMES DiRT.Rally.2.0.Update.v1.3.incl.DLC-CODEX
2019-04-16 16:59:41 TV-HD-X264 No.Good.Nick.S01E06.POLISH.720p.WEB.x264-OBLAKANY
2019-04-16 17:00:59 TV-HD-X264 No.Good.Nick.S01E07.POLISH.720p.WEB.x264-OBLAKANY
2019-04-16 17:02:14 TV-HD-X264 Paradise.Hotel.S11E22.NORWEGiAN.720p.WEB.H264-HENRETTELSE
2019-04-16 17:02:18 TV-HD-X264 No.Good.Nick.S01E08.POLISH.720p.WEB.x264-OBLAKANY
2019-04-16 17:02:37 TV-HD-X264 Paradise.Hotel.S11E22.NORWEGiAN.1080p.WEB.H264-HENRETTELSE
2019-04-16 17:03:17 DAY Supraland.Update.v1.3b-PLAZA
2019-04-16 17:03:34 TV-HD-X264 No.Good.Nick.S01E09.POLISH.720p.WEB.x264-OBLAKANY
2019-04-16 17:03:39 FLAC John_Doe-The_Best_Of_John_Doe_This_Far-(CD-YEP-2381)-PROMO-CD-FLAC-2014-HOUND
2019-04-16 17:04:23 FLAC John_Doe-The_Westerner-(CRR-101)-PROMO-CD-FLAC-2016-HOUND
2019-04-16 17:04:53 TV-X264 No.Good.Nick.S01E10.POLISH.720p.WEB.x264-OBLAKANY
2019-04-16 17:06:16 TV-X264 Ask.This.Old.House.S17E18.Smart.Irrigation.Jimmy.DiResta.1080p.WEB.x264-KOMPOST
2019-04-16 17:07:45 TV-HD-X264 Dateline.Secrets.Uncovered.S06E14.Family.Business.1080p.WEB.x264-KOMPOST
2019-04-16 17:08:36 X264 Captain.America.Civil.War.2016.2160p.UHD.BluRay.x265-TERMiNAL
2019-04-16 17:09:15 TV-X264 Dateline.Secrets.Uncovered.S06E14.Family.Business.720p.WEB.x264-KOMPOST
2019-04-16 17:10:03 X264 Mid90s.2018.German.DL.1080p.BluRay.x264-PL3X
2019-04-16 17:10:46 TV-X264 Dateline.Secrets.Uncovered.S06E14.Family.Business.WEB.x264-KOMPOST
2019-04-16 17:12:16 TV-HD-X264 Deadliest.Catch.S15E01.PROPER.1080p.WEB.x264-KOMPOST
2019-04-16 17:12:18 X264 Die.Unbezaehmbaren.German.1955.AC3.BDRiP.x264-SPiCY
2019-04-16 17:13:46 TV-HD-X264 Deadliest.Catch.S15E01.PROPER.720p.WEB.x264-KOMPOST
2019-04-16 17:15:15 TV-X264 Deadliest.Catch.S15E01.PROPER.WEB.x264-KOMPOST
2019-04-16 17:16:37 X264 Captain.America.The.Winter.Soldier.2014.MULTi.2160p.UHD.BluRay.x265-OohLaLa
2019-04-16 17:16:46 TV-HD-X264 Frontline.S37E11.Marcos.Doesnt.Live.Here.Anymore.1080p.WEB.h264-KOMPOST
2019-04-16 17:18:16 TV-HD-X264 Frontline.S37E11.Marcos.Doesnt.Live.Here.Anymore.720p.WEB.h264-KOMPOST
2019-04-16 17:19:46 TV-X264 Frontline.S37E11.Marcos.Doesnt.Live.Here.Anymore.WEB.h264-KOMPOST
2019-04-16 17:21:15 TV-HD-X264 Hope.in.the.Wild.S01E19.Raptor.Rehab.and.Release.1080p.WEB.x264-KOMPOST
2019-04-16 17:21:18 MP3 The_Maine-Live_At_The_Orpheum-2019-RTB
2019-04-16 17:21:35 XXX Cum4K.19.04.16.Kenna.James.Easter.Bunny.Creampied.XXX.1080p.MP4-KTR
2019-04-16 17:22:46 TV-HD-X264 Hope.in.the.Wild.S01E19.Raptor.Rehab.and.Release.720p.WEB.x264-KOMPOST
2019-04-16 17:23:11 X264 Die.Unbezaehmbaren.1955.German.720p.BluRay.x264-SPiCY
2019-04-16 17:24:03 XXX-0DAY Cum4K.19.04.16.Kenna.James.Easter.Bunny.Creampied.XXX.2160p.MP4-KTR
2019-04-16 17:24:16 X264 Captain.America.The.Winter.Soldier.2014.iNTERNAL.MULTi.2160p.UHD.BluRay.x265-SESKAPiLE
2019-04-16 17:24:16 TV-X264 Hope.in.the.Wild.S01E19.Raptor.Rehab.and.Release.WEB.x264-KOMPOST
2019-04-16 17:25:46 TV-HD-X264 Hope.in.the.Wild.S01E20.Waterproofing.Willard.1080p.WEB.x264-KOMPOST
2019-04-16 17:26:09 TV-SD-X264 Nocni.jezdci.1981.SLOVAK.PDTV.x264-I_KnoW
2019-04-16 17:26:35 TV-HD-X264 DCs.Legends.Of.Tomorrow.S04E05.iTALiAN.720p.WEB.x264-HWD
2019-04-16 17:26:48 MP3 Lemongrassmusic-Liquid_Radio-SAT-04-15-2019-PTC
2019-04-16 17:26:49 TV-HD-X264 DCs.Legends.Of.Tomorrow.S04E05.iTALiAN.MULTi.1080p.WEB.x264-HWD
2019-04-16 17:27:07 TV-HD-X264 Supernatural.S12E03.iTALiAN.1080p.WEB.x264-HWD
2019-04-16 17:27:15 TV-HD-X264 Hope.in.the.Wild.S01E20.Waterproofing.Willard.720p.WEB.x264-KOMPOST
2019-04-16 17:27:18 TV-HD-X264 Supernatural.S12E03.iTALiAN.720p.WEB.x264-HWD
2019-04-16 17:27:23 MP3 Time_Warp_2019-Ben_Klock_Live-WEB-04-06-2019-PTC_INT
2019-04-16 17:28:09 TV-HD-X264 The.Flash.2014.S05E06.iTALiAN.720p.WEB.x264-HWD
2019-04-16 17:28:22 TV-HD-X264 The.Flash.2014.S05E06.iTALiAN.MULTi.1080p.WEB.x264-HWD
2019-04-16 17:28:43 TV-HD-X264 The.Goldbergs.S06E07.iTALiAN.720p.WEB.x264-HWD
2019-04-16 17:28:44 TV-HD-X264 The.Goldbergs.S06E08.iTALiAN.720p.WEB.x264-HWD
2019-04-16 17:28:45 TV-X264 Hope.in.the.Wild.S01E20.Waterproofing.Willard.WEB.x264-KOMPOST
2019-04-16 17:29:08 TV-HD-X264 The.Goldbergs.S06E07.iTALiAN.MULTi.1080p.WEB.x264-HWD
2019-04-16 17:29:10 TV-HD-X264 The.Goldbergs.S06E08.iTALiAN.MULTi.1080p.WEB.x264-HWD
2019-04-16 17:30:00 XXX-0DAY PublicAgent.19.04.16.Shalina.Devine.XXX.1080p.MP4-KTR
2019-04-16 17:30:16 TV-HD-X264 Tails.of.Valor.S01E09.The.Force.of.the.Horse.1080p.WEB.x264-KOMPOST
2019-04-16 17:30:43 X264 Captain.America.The.Winter.Soldier.2014.iNTERNAL.NFOFiX.MULTi.2160p.UHD.BluRay.x265-SESKAPiLE
2019-04-16 17:31:05 FLAC Accept-Hungry_Years-(VLP-209)-VINYL-FLAC-1986-WRE
2019-04-16 17:31:46 TV-HD-X264 Tails.of.Valor.S01E09.The.Force.of.the.Horse.720p.WEB.x264-KOMPOST
2019-04-16 17:32:27 XXX-0DAY BigNaturals.19.04.16.Giselle.Palmer.The.34d.And.The.5k.XXX.1080p.MP4-KTR
2019-04-16 17:32:38 FLAC Elvis_Presley-On_Stage_February_1970-(506020_975037)-2CD-FLAC-2012-WRE
2019-04-16 17:33:16 TV-X264 Tails.of.Valor.S01E09.The.Force.of.the.Horse.WEB.x264-KOMPOST
2019-04-16 17:34:09 FLAC Elvis_Presley-Promised_Land-(602020-975019)-2CD-FLAC-2011-WRE
2019-04-16 17:34:22 XXX-0DAY MomsBangTeens.19.04.16.Rachael.Cavalli.And.Abby.Adams.My.Stepmom.Ruined.The.Study.Session.XXX.1080p.MP4-KTR
2019-04-16 17:34:46 TV-HD-X264 Tails.of.Valor.S01E10.Brave.and.Bouncy.1080p.WEB.x264-KOMPOST
2019-04-16 17:35:45 FLAC Gun_Barrel-Battle-Tested-(LMP_0302-50)-LIMITED_EDITION-CD-FLAC-2003-WRE
2019-04-16 17:36:16 TV-X264 Tails.of.Valor.S01E10.Brave.and.Bouncy.720p.WEB.x264-KOMPOST
2019-04-16 17:36:46 FLAC Levellers-We_The_Collective-(OTFCD029)-CD-FLAC-2018-WRE
2019-04-16 17:37:43 X264 Die.Unbezaehmbaren.1955.German.DL.1080p.BluRay.x264-SPiCY
2019-04-16 17:37:46 TV-X264 Tails.of.Valor.S01E10.Brave.and.Bouncy.WEB.x264-KOMPOST
2019-04-16 17:37:47 FLAC Luca_Turilli-Demonheart-(LMP_0209-044)-LIMITED_EDITION-VINYL-FLAC-2002-WRE
2019-04-16 17:37:54 XXX-0DAY Lustery.E176.Chris.And.Ashley.Lights.Camera.Action.XXX.1080p.MP4-KTR
2019-04-16 17:38:49 FLAC Luca_Turilli-Prophet_Of_The_Last_Eclipse-(LMP_0210-045)-LIMITED_EDITION-2LP-FLAC-2002-WRE
2019-04-16 17:39:16 TV-HD-X264 This.Old.House.S40E18.Norm.Revisits.a.Skylight.1080p.WEB.x264-KOMPOST
2019-04-16 17:39:18 XXX-0DAY Lustery.E177.James.And.Val.Do.Whatever.You.Want.To.Me.XXX.1080p.MP4-KTR
2019-04-16 17:40:14 XXX-0DAY Lustery.E178.Ulisse.And.Penelope.Fisheye.Fucking.XXX.1080p.MP4-KTR
2019-04-16 17:41:08 XXX-0DAY VickyAtHome.19.04.11.Maxine.X.Itty.Bitty.Baby.Cock.5.XXX.1080p.MP4-KTR
2019-04-16 17:41:22 FLAC Luca_Turilli-The_Ancient_Forest_Of_Elves-(LMP_9908-012_MS)-LIMITED_EDITION-VINYL-FLAC-1999-WRE
2019-04-16 17:43:01 FLAC Masterplan-Masterplan-(AFM_061-2)-CD-FLAC-2003-WRE
2019-04-16 17:44:04 FLAC Masterplan-MKII-(AFM_148-9)-LIMITED_EDITION-CD-FLAC-2007-WRE
2019-04-16 17:45:09 FLAC Michael_Kiske-Instant_Clarity-(RAW_CD_112)-CD-FLAC-1996-WRE
2019-04-16 17:45:46 XXX VickyAtHome.19.04.12.Maxine.X.Oiled.Up.MILFs.XXX.1080p.MP4-KTR
2019-04-16 17:46:17 FLAC Motores-Canibal_De_Lo_Ajeno-(5013-CD)-ES-CD-FLAC-2014-WRE
2019-04-16 17:47:18 FLAC Motores-Noche_De_Lobos-(9110-CD)-ES-CD-FLAC-1996-WRE
2019-04-16 17:47:23 XXX-0DAY FirstAnalQuest.19.04.16.Nikki.Hill.XXX.1080p.MP4-KTR
2019-04-16 17:48:29 FLAC Motores-Un_Dia_Perfecto-(4044-CD)-ES-CD-FLAC-1998-WRE
2019-04-16 17:49:31 FLAC Mr_Big-Live-(7567-80523-2)-CD-FLAC-1992-WRE
2019-04-16 17:50:38 FLAC Rage-21-(27361_28100)-PROPER-LIMITED_EDITION-2CD-FLAC-2012-WRE
2019-04-16 17:51:40 MP3 Ankhlejohn-A-Cold-World--WEB-2019-ENRAGED
2019-04-16 17:51:51 MP3 Cashis-Pacen-SINGLE-WEB-2019-ENRAGED
2019-04-16 17:52:03 MP3 Coach_Joey-Big_Money_2-SINGLE-WEB-2019-ENRAGED
2019-04-16 17:52:12 FLAC Rata_Blanca-El_Reino_Olvidado-(8869_7363652)-ES-LIMITED_EDITION-CD-FLAC-2008-WRE
2019-04-16 17:52:14 MP3 Daz_Dillinger-Gotta_Get_That_Money-SINGLE-WEB-2019-ENRAGED
2019-04-16 17:52:25 MP3 InglewoodBP-All_In-WEB-2019-ENRAGED
2019-04-16 17:52:36 MP3 Jack_Rox-Amazing_(feat_Berner_and_Lil_Yee)-SINGLE-WEB-2019-ENRAGED
2019-04-16 17:52:48 MP3 KAP-He_Cant_B_Frm_Dallas-WEB-2012-ENRAGED
2019-04-16 17:52:59 MP3 Lil_iceberg-Average-SINGLE-WEB-2019-ENRAGED
2019-04-16 17:53:10 PRE Lil_iceberg-Paperchaser-SINGLE-WEB-2019-ENRAGED
2019-04-16 17:53:21 MP3 Mac_J_and_Bris-Big_Headed-WEB-2019-ENRAGED
2019-04-16 17:53:22 FLAC Soziedad_Alkoholika-Soziedad_Alkoholika-(B_91001)-ES-VINYL-FLAC-1991-WRE
2019-04-16 17:53:33 MP3 Shuko_and_The_Breed_feat_King_Tee_and_MC_Eiht_and_Benny_Sings-Life_in_Los_Angeles-SINGLE-WEB-2019-ENRAGED
2019-04-16 17:53:44 MP3 SlimPoke-DripLove-WEB-2019-ENRAGED
2019-04-16 17:53:52 TV-XVID Close.Proximity.S01E02.HDR.2160p.UHDTV.H265-CBFM
2019-04-16 17:54:35 X264 Untamed.1955.1080p.BluRay.x264-GUACAMOLE
2019-04-16 17:54:56 FLAC The_Herbaliser-Same_As_It_Never_Was-(K7226CD)-CD-FLAC-2008-WRE
2019-04-16 17:57:21 0DAY AUTODESK_VEHICLE_TRACKING_V2020_WIN64-XFORCE
2019-04-16 18:00:18 TV-HD-X264 A.Vos.Risques.Et.Perils.S02E10.FRENCH.720p.HDTV.x264-BAWLS
2019-04-16 18:00:23 TV-SD-X264 A.Vos.Risques.Et.Perils.S02E10.FRENCH.HDTV.x264-BAWLS
2019-04-16 18:00:28 TV-HD-X264 A.Vos.Risques.Et.Perils.S02E12.FRENCH.720p.HDTV.x264-BAWLS
2019-04-16 18:00:33 TV-SD-X264 A.Vos.Risques.Et.Perils.S02E12.FRENCH.HDTV.x264-BAWLS
2019-04-16 18:00:38 TV-HD-X264 Avec.Ou.Sans.Cash.S01E01.FRENCH.720p.HDTV.x264-BAWLS
2019-04-16 18:00:42 TV-SD-X264 Avec.Ou.Sans.Cash.S01E01.FRENCH.HDTV.x264-BAWLS
2019-04-16 18:01:34 MP3 Alaska_-_Ethnic_Techno-(SCGR001)-WEB-2019-BarGhest
2019-04-16 18:01:44 MP3 Arcadia_-_Psynapse-WEB-2019-BarGhest
2019-04-16 18:01:54 MP3 Attik_(Mexico)_-_Cosmic_Structures-WEB-2019-BarGhest
2019-04-16 18:02:08 MP3 Electric_Gene_-_Infinity_And_Complex-(ARC382)-WEB-2019-BarGhest
2019-04-16 18:02:21 MP3 Hairbass_-_The_Sound-(PNR004)-WEB-2019-BarGhest
2019-04-16 18:02:31 MP3 Pangea_-_Tamba_Way-WEB-2019-BarGhest
2019-04-16 18:02:44 MP3 Plastic_Reality_-_The_Key_Of_The_Universe-(RESON8018)-WEB-2018-BarGhest
2019-04-16 18:02:54 MP3 Status_Zero_-_Mifletzet-(X7M159)-WEB-2019-BarGhest
2019-04-16 18:03:06 MP3 Tripo_-_Narda-(ARC390)-WEB-2019-BarGhest
2019-04-16 18:03:19 MP3 Vibration_-_Lagrima_De_Amor-(EMOV084)-WEB-2019-BarGhest
2019-04-16 18:05:13 TV-HD-X264 Hudson.and.Rex.S01E04.720p.HDTV.x264-aAF
2019-04-16 18:05:19 DVDR Bumblebee.2018.COMPLETE.NTSC.DVD9-HONOR
2019-04-16 18:05:37 TV-SD-X264 Milijonar.S01E19.SI.HDTV.x264-RADiOACTiVE
2019-04-16 18:05:38 TV-HD-X264 Milijonar.S01E19.SI.720p.HDTV.x264-RADiOACTiVE
2019-04-16 18:06:10 TV-HD-X264 Avec.Ou.Sans.Cash.S01E03.FRENCH.720p.HDTV.x264-BAWLS
2019-04-16 18:06:14 TV-SD-X264 Avec.Ou.Sans.Cash.S01E03.FRENCH.HDTV.x264-BAWLS
2019-04-16 18:06:19 TV-HD-X264 District.31.S03E117.FRENCH.720p.HDTV.x264-BAWLS
2019-04-16 18:06:24 TV-SD-X264 District.31.S03E117.FRENCH.HDTV.x264-BAWLS
2019-04-16 18:06:31 TV-HD-X264 Les.Chefs.S09E03.FRENCH.720p.HDTV.x264-BAWLS
2019-04-16 18:06:36 TV-SD-X264 Les.Chefs.S09E03.FRENCH.HDTV.x264-BAWLS
2019-04-16 18:06:57 X264 Memento.Mori.2018.FLEMISH.1080p.BluRay.x264-HDEX
2019-04-16 18:07:25 TV-SD-X264 Hudson.and.Rex.S01E04.HDTV.x264-aAF
2019-04-16 18:07:29 X264 Memento.Mori.2018.FLEMISH.720p.BluRay.x264-HDEX
2019-04-16 18:10:17 FLAC Cloud_Cult-Advice_From_The_Happy_Hippopotamus-CD-FLAC-2005-HOUND
2019-04-16 18:12:24 MP3 Dance_with_the_Dead-Tension-SINGLE-WEB-2019-ENTiTLED
2019-04-16 18:13:23 TV-X264 The.Murders.S01E04.720p.HDTV.x264-aAF
2019-04-16 18:13:30 FLAC Cloud_Cult-Feel_Good_Ghosts_(Tea-Partying_Through_Tornadoes)-CD-FLAC-2008-HOUND
2019-04-16 18:14:49 TV-SD-X264 The.Murders.S01E04.HDTV.x264-aAF
2019-04-16 18:14:56 XXX-0DAY Swallowed.19.04.16.Katrina.Jade.Sofi.Ryan.And.Lena.Paul.XXX.1080p.MP4-KTR
2019-04-16 18:16:57 MP3 Keros-N-Mal_Toune-SINGLE-WEB-FR-2019-OND
2019-04-16 18:18:03 TV-HD-X264 Passe.Partout.2019.S01E22.FRENCH.720p.HDTV.x264-BAWLS
2019-04-16 18:18:08 TV-SD-X264 Passe.Partout.2019.S01E22.FRENCH.HDTV.x264-BAWLS
2019-04-16 18:18:13 TV-HD-X264 Storage.Wars.S11E16.FRENCH.720p.HDTV.x264-BAWLS
2019-04-16 18:18:19 TV-SD-X264 Storage.Wars.S11E16.FRENCH.HDTV.x264-BAWLS
2019-04-16 18:18:23 TV-HD-X264 Storage.Wars.S11E26.FRENCH.720p.HDTV.x264-BAWLS
2019-04-16 18:18:28 TV-SD-X264 Storage.Wars.S11E26.FRENCH.HDTV.x264-BAWLS
2019-04-16 18:18:41 TV-HD-X264 Storage.Wars.S11E27.FRENCH.720p.HDTV.x264-BAWLS
2019-04-16 18:18:47 TV-SD-X264 Storage.Wars.S11E27.FRENCH.HDTV.x264-BAWLS
2019-04-16 18:19:00 X264 Mid90s.2018.German.DL.1080p.BluRay.AVC-PL3X
2019-04-16 18:20:14 MP3 Rafael_Osmo_pres._RFL-Harbour_(Extended_Mix)-(PRFBL043)-SINGLE-WEB-2019-AFO
2019-04-16 18:20:42 MP3 Joan_Retamero-She_Dreamed_Through_the_Sky-(PRFBL035)-WEB-2018-AFO
2019-04-16 18:21:10 MP3 Paul_Hawcroft-Touch-(PRFBL032)-WEB-2018-AFO
2019-04-16 18:21:28 MP3 Boxer-Youu_(Extended_Mix)-(PRFBL037)-WEB-2018-AFO_INT
2019-04-16 18:21:49 MP3 DJ_Paul_(AR)-Everything_We_Know_Its_Wrong_(Extended_Mix)-(PRFBL031)-WEB-2018-AFO_INT
2019-04-16 18:22:09 PRE Yuriy_from_Russia_and_Ira_Ange-Feel_for_You_(Extended_Mix)-(PRFBL039)-WEB-2019-AFO_INT
2019-04-16 18:22:28 MP3 Dezza-Stella_(Extended_Mix)-(PRFBL034)-SINGLE-WEB-2018-AFO_INT
2019-04-16 18:22:46 MP3 Galestian-The_Gathering_(Extended_Mix)-(PRFBL033)-SINGLE-WEB-2018-AFO_INT
2019-04-16 18:23:08 MP3 Sandra_Collins_and_Micke-Four_(Extended_Mix)-(PRFBL038)-SINGLE-WEB-2018-AFO_INT
2019-04-16 18:23:33 MP3 Kevin_Saunderson_As_E-Dancer--Ponderous-(KMS_316)-WEB-2019-BB8
2019-04-16 18:23:38 MP3 Anthony_Yarranton-Nestor-(PRFBL036)-WEB-2018-AFO
2019-04-16 18:23:57 MP3 Oliver_Harper-Chaparral_(Extended_Mix)-(PRFBL028)-SINGLE-WEB-2018-AFO
2019-04-16 18:24:17 MP3 Harper_and_Green-Belegost_(Extended_Mix)-(PRFBL040)-SINGLE-WEB-2019-AFO_INT
2019-04-16 18:24:43 MP3 Michael_and_Levan_and_Stiven_Rivic-Almanac-(PRFBL041)-WEB-2019-AFO
2019-04-16 18:25:04 MP3 Paul_Hawcroft-Ochi_(Extended_Mix)-(PRFBL042)-SINGLE-WEB-2019-AFO
2019-04-16 18:30:12 FLAC Cloud_Cult-The_Meaning_Of_8-CD-FLAC-2007-HOUND
2019-04-16 18:35:27 MP3 Thomas_Hoffknecht-Hektik-(KDRAW_028)-WEB-2019-BB8
2019-04-16 18:35:37 BLURAY Mortal.Engines.Krieg.der.Staedte.3D.2018.MULTi.COMPLETE.BLURAY-GMB
2019-04-16 18:36:40 FR2160P Karate.Kid.1984.MULTi.2160p.UHD.BluRay.x265-SESKAPiLE
2019-04-16 18:41:53 TV-HD-X264 Barefoot.Contessa.S11E18.Impromptu.Dinner.720p.HDTV.x264-W4F
2019-04-16 18:41:58 TV-SD-X264 Barefoot.Contessa.S11E18.Impromptu.Dinner.HDTV.x264-W4F
2019-04-16 18:48:05 TV-HD-X264 Nuestro.Planeta.S01E01.2019.iNTERNAL.SPANiSH.DOC.HDR.1080p.WEB.h265-iBERiCO
2019-04-16 18:50:13 TV-HD-X264 Nuestro.Planeta.S01E02.2019.iNTERNAL.SPANiSH.DOC.HDR.1080p.WEB.h265-iBERiCO
2019-04-16 18:50:32 MP3 Peter_May-Sal_smrti-WEB-CZ-2017-I_KnoW_INT
2019-04-16 18:51:13 MP3 Peter_May-Hadohlavec-WEB-CZ-2018-I_KnoW_INT
2019-04-16 18:51:47 MP3 Peter_May-Ochranim_te-WEB-CZ-2019-I_KnoW_INT
2019-04-16 18:52:21 X264 Nuestro.Planeta.S01E03.2019.iNTERNAL.SPANiSH.DOC.HDR.1080p.WEB.h265-iBERiCO
2019-04-16 18:54:30 TV-HD-X264 Nuestro.Planeta.S01E04.2019.iNTERNAL.SPANiSH.DOC.HDR.1080p.WEB.h265-iBERiCO
2019-04-16 18:54:39 MP3 Johnny_Mans_-_The_Day_You_Left_Me-(406170_7157998)-WEB-2019-ZzZz
2019-04-16 18:56:38 TV-HD-X264 Nuestro.Planeta.S01E05.2019.iNTERNAL.SPANiSH.DOC.HDR.1080p.WEB.h265-iBERiCO
2019-04-16 18:58:46 TV-HD-X264 Nuestro.Planeta.S01E06.2019.iNTERNAL.SPANiSH.DOC.HDR.1080p.WEB.h265-iBERiCO
2019-04-16 19:01:04 TV-X264 Flea.Market.Flip.S05E06.Battle.of.The.British.Empire.Brits.vs.Kiwis.WEB.x264-GIMINI
2019-04-16 19:02:06 TV-HD-X264 Flea.Market.Flip.S05E06.Battle.of.The.British.Empire.Brits.vs.Kiwis.720p.WEB.x264-GIMINI
2019-04-16 19:03:09 TV-HD-X264 Flea.Market.Flip.S05E06.Battle.of.The.British.Empire.Brits.vs.Kiwis.1080p.WEB.x264-GIMINI
2019-04-16 19:03:46 TV-HD-X264 Jenke.macht.Mut.E02.Der.schwere.Kampf.gegen.die.Kilos.GERMAN.DOKU.720p.HDTV.x264-RTL
2019-04-16 19:04:11 TV-X264 Flea.Market.Flip.S05E07.Seasoned.Pickers.Take.On.Rookie.Flippers.WEB.x264-GIMINI
2019-04-16 19:05:09 X264 WWE.Monday.Night.RAW.2019.04.15.1080p.WEB.x264-PLUTONiUM
2019-04-16 19:05:13 TV-HD-X264 Flea.Market.Flip.S05E07.Seasoned.Pickers.Take.On.Rookie.Flippers.720p.WEB.x264-GIMINI
2019-04-16 19:06:16 TV-HD-X264 Flea.Market.Flip.S05E07.Seasoned.Pickers.Take.On.Rookie.Flippers.1080p.WEB.x264-GIMINI
2019-04-16 19:14:22 X264 Untamed.1955.720p.BluRay.x264-GUACAMOLE
2019-04-16 19:18:06 TV-HD-X264 Nuestro.Planeta.S01E07.2019.iNTERNAL.SPANiSH.DOC.HDR.1080p.WEB.h265-iBERiCO
2019-04-16 19:19:33 TV-HD-X264 Match.Of.The.Day.Two.2019.04.14.1080p.HDTV.x264-VERUM
2019-04-16 19:20:14 TV-HD-X264 Nuestro.Planeta.S01E08.2019.FiNAL.iNTERNAL.SPANiSH.DOC.HDR.1080p.WEB.h265-iBERiCO
2019-04-16 19:22:03 TV-HD-X264 Snack.World.S01E11.FRENCH.720p.HDTV.x264-D4KiD
2019-04-16 19:22:38 X264 SBK.2019.Assen.Race.Two.REPACK.1080p.WEB.h264-VERUM
2019-04-16 19:22:49 TV-SD-X264 Snack.World.S01E11.FRENCH.HDTV.x264-D4KiD
2019-04-16 19:23:37 TV-HD-X264 Snack.World.S01E12.FRENCH.720p.HDTV.x264-D4KiD
2019-04-16 19:23:41 MP3 Exale__Tega-Tension-(SPIR0042)-SINGLE-WEB-2019-KLIN
2019-04-16 19:24:12 X264 Captain.America.Civil.War.2016.MULTi.2160p.UHD.BluRay.x265-OohLaLa
2019-04-16 19:24:24 TV-SD-X264 Snack.World.S01E12.FRENCH.HDTV.x264-D4KiD
2019-04-16 19:25:53 X264 EPL.2019.04.15.Watford.vs.Arsenal.720p.WEB.h264-VERUM
2019-04-16 19:26:13 MP3 DJ_Luciano_-_Classical_Music_(Remixes)-(CAT_294482)-WEB-2019-ZzZz
2019-04-16 19:28:19 MP3 Candii_-_Anymore-SINGLE-WEB-2019-iDC
2019-04-16 19:28:21 MP3 Emmanuelle_-_Luomo_Daffari_E_Italove-WEB-IT-2016-iDC
2019-04-16 19:28:22 MP3 Dmitry_Meretskiy_-_Annet-SINGLE-WEB-2019-iDC
2019-04-16 19:28:23 MP3 Stazam_-_Love_And_Unity-WEB-2019-iDC
2019-04-16 19:28:25 MP3 Steven_Kass_-_Game-WEB-2019-iDC
2019-04-16 19:28:40 MP3 Falco_-_Feel_This_Moment-(406179_8242375)-SINGLE-WEB-2019-ZzZz
2019-04-16 19:31:41 MP3 Aora_Paradox-Polymorphia-(BLV6247485)-WEB-2019-KLIN
2019-04-16 19:31:52 FLAC VA-Rappers_Paradise_Vol.2-2CD-FLAC-1996-D2H
2019-04-16 19:32:26 MP3 Kj_Topp-Hungover___-SINGLE-WEB-2019-KLIN
2019-04-16 19:32:56 MP3 Jessc-Hungover-SINGLE-WEB-2019-KLIN
2019-04-16 19:33:33 MP3 Jen_Awad-Hungover-SINGLE-WEB-2019-KLIN
2019-04-16 19:34:38 DAY Avanquest.Mediaforma.Formation.Libre.Office.Calc.French-NGEN
2019-04-16 19:36:33 MP3 Madilyn_-_One_Way_Street-(AWD_389265)-SINGLE-WEB-2019-ZzZz
2019-04-16 19:37:09 TV-HD-X264 Reka.Ljubezni.S04E29.SI.720p.HDTV.x264-RADiOACTiVE
2019-04-16 19:37:09 TV-SD-X264 Reka.Ljubezni.S04E29.SI.HDTV.x264-RADiOACTiVE
2019-04-16 19:39:00 MP3 Extazzzers-Inclined_To_You-(ESI235)-SINGLE-WEB-2019-KLIN
2019-04-16 19:41:27 MP3 Ace_Marino_-_The_Flamingo_Returns-(FXT_483)-WEB-2019-ZzZz
2019-04-16 19:42:57 TV-SD-X264 Jenke.macht.Mut.E02.Der.schwere.Kampf.gegen.die.Kilos.GERMAN.DOKU.HDTV.x264-RTL
2019-04-16 19:42:59 MP3 Bistro_Boy_and_Bjartmar-Broken-(URD01)-WEB-2019-KLIN
2019-04-16 19:44:28 TV-HD-X264 Bull.2016.S03E19.iNTERNAL.1080p.WEB.H264-AMRAP
2019-04-16 19:44:58 TV-HD-X264 One-Punch.Man.Second.Season.E02.SUBFRENCH.1080p.WEB.x264-AMB3R
2019-04-16 19:45:28 TV-HD-X264 Bull.2016.S03E19.iNTERNAL.720p.WEB.H264-AMRAP
2019-04-16 19:46:51 TV-HD-X264 Ex.On.The.Beach.Danmark.S02E14.DANiSH.720p.WEB.x264-DANES
2019-04-16 19:46:52 TV-HD-X264 Abels.Tarn.S04E08.NORWEGiAN.720p.WEB.X264-HENRETTELSE
2019-04-16 19:47:26 MP3 Bi_Pomi_Junior-Reconciliation-WEB-2013-KLIN
2019-04-16 19:48:13 MP3 Junio-Reconcile-(BLV6252895)-WEB-2019-KLIN
2019-04-16 19:49:40 TV-HD-X264 Ex.On.The.Beach.Danmark.S02E14.DANiSH.1080p.WEB.x264-DANES
2019-04-16 19:50:32 XXX-0DAY Tushy.19.04.16.Ember.Snow.XXX.1080p.MP4-KTR
2019-04-16 19:53:24 XXX-0DAY Tushy.19.04.16.Ember.Snow.XXX.2160p.MP4-KTR
2019-04-16 19:54:56 TV-SD-X264 The.Middle.S09E23.Der.verlorene.Sohn.German.HDTV.x264-ITG
2019-04-16 19:55:20 TV-HD-X264 The.Middle.S09E23.Der.verlorene.Sohn.GERMAN.HDTV.720p.x264-ZZGtv
2019-04-16 19:56:07 TV-SD-X264 The.Middle.S09E24.Die.Zeit.heilt.German.HDTV.x264-ITG
2019-04-16 19:56:51 TV-HD-X264 The.Middle.S09E24.Die.Zeit.heilt.GERMAN.HDTV.720p.x264-ZZGtv
2019-04-16 20:02:21 TV-HD-X264 Ullared.S10E14.SWEDiSH.720p.WEB.X264-EXECUTION
2019-04-16 20:02:56 TV-HD-X264 Lyxfallan.S26E13.SWEDiSH.720p.WEB.H264-EXECUTION
2019-04-16 20:03:41 TV-HD-X264 Ullared.S10E14.SWEDiSH.1080p.WEB.X264-EXECUTION
2019-04-16 20:04:10 TV-HD-X264 Lyxfallan.S26E13.SWEDiSH.1080p.WEB.H264-EXECUTION
2019-04-16 20:05:59 TV-HD-X264 Vinnarskallar.S01E06.SWEDiSH.720p.WEB.X264-EXECUTION
2019-04-16 20:07:28 XXX-0DAY AbbyWinters.19.04.15.Annika.Solo.XXX.1080p.MP4-KTR
2019-04-16 20:08:43 XXX-IMAGESET AmKingdom.com_19.04.16.Footfetish.7.Hardcore.135.Lana.Mars.XXX.IMAGESET-FuGLi
2019-04-16 20:08:56 X264 Karate.Kid.1984.German.DL.2160p.UHD.BluRay.HEVC-UNTHEVC
2019-04-16 20:09:04 XXX-0DAY AbbyWinters.19.04.16.Lucia.M.Intimate.Moments.XXX.1080p.MP4-KTR
2019-04-16 20:09:25 XXX-IMAGESET AmKingdom.com_19.04.16.Footfetish.7.Hardcore.135.Lily.Adams.XXX.IMAGESET-FuGLi
2019-04-16 20:10:34 MP3 Nvpvlm-Broken_Heart-(BRC13)-SINGLE-WEB-2019-KLIN
2019-04-16 20:10:53 XXX-IMAGESET AmKingdom.com_19.04.16.Footfetish.7.Hardcore.135.Nova.Cane.XXX.IMAGESET-FuGLi
2019-04-16 20:11:49 TV-HD-X264 Salvage.Hunters.S13E15.1080p.WEB.x264-GIMINI
2019-04-16 20:12:58 TV-X264 River.Cottage.S13E01.DVDRIP.X264-WATCHABLE
2019-04-16 20:13:25 MP3 Minus_8--So_Lonely-(19_3)-SINGLE-WEB-2019-dh
2019-04-16 20:13:36 XXX AmKingdom.com_19.04.16.Footfetish.7.Hardcore.135.Serena.Skye.XXX.IMAGESET-FuGLi
2019-04-16 20:13:38 TV-X264 River.Cottage.S13E02.DVDRIP.X264-WATCHABLE
2019-04-16 20:14:18 TV-X264 River.Cottage.S13E03.DVDRIP.X264-WATCHABLE
2019-04-16 20:14:57 TV-DVDRIP River.Cottage.S13E04.DVDRIP.X264-WATCHABLE
2019-04-16 20:15:07 TV-HD-X264 Total.Dreamer.S01E45.GERMAN.1080p.HDTV.x264-REQiT
2019-04-16 20:15:37 TV-DVDRIP River.Cottage.S13E06.DVDRIP.X264-WATCHABLE
2019-04-16 20:16:17 TV-DVDRIP River.Cottage.S13E07.DVDRIP.X264-WATCHABLE
2019-04-16 20:16:29 TV-HD-X264 Total.Dreamer.S01E45.GERMAN.720p.HDTV.x264-REQiT
2019-04-16 20:16:57 TV-DVDRIP River.Cottage.S13E08.DVDRIP.X264-WATCHABLE
2019-04-16 20:17:42 TV-SD-X264 Total.Dreamer.S01E45.GERMAN.HDTV.x264-REQiT
2019-04-16 20:18:43 MOVIES River.Cottage.S13E09.DVDRIP.X264-WATCHABLE
2019-04-16 20:18:50 TV-HD-X264 Total.Dreamer.S01E46.GERMAN.1080p.HDTV.x264-REQiT
2019-04-16 20:18:59 FLAC VA-MTV_Raps-2CD-FLAC-1996-D2H
2019-04-16 20:19:58 TV-HD-X264 Total.Dreamer.S01E46.GERMAN.720p.HDTV.x264-REQiT
2019-04-16 20:20:55 TV-SD-X264 Total.Dreamer.S01E46.GERMAN.HDTV.x264-REQiT
2019-04-16 20:22:06 TV-HD-X264 Allsvenskan.2019.AIK.vs.Sirius.SWEDiSH.720p.HDTV.x264-1891
2019-04-16 20:23:30 TV-HD-X264 Hachigatsu.no.Cinderella.Nine.E01.SUBFRENCH.1080p.WEB.x264-AMB3R
2019-04-16 20:23:46 TV-HD-X264 Hachigatsu.no.Cinderella.Nine.E02.SUBFRENCH.1080p.WEB.x264-AMB3R
2019-04-16 20:23:50 FLAC VA-Black_Hits_Vol.2-2CD-FLAC-1998-D2H
2019-04-16 20:29:35 TV-HD-X264 Fairy.Tail.E304.SUBFRENCH.720p.HDTV.x264-AMB3R
2019-04-16 20:29:42 TV-SD-X264 Fairy.Tail.E304.SUBFRENCH.HDTV.x264-AMB3R
2019-04-16 20:33:26 TV-HD-X264 Salvage.Hunters.S13E15.720p.WEB.x264-GIMINI
2019-04-16 20:34:27 TV-X264 Salvage.Hunters.S13E15.WEB.x264-GIMINI
2019-04-16 20:34:42 TV-HD-X264 Ted.Bundy.Selbstportraet.eines.Serienmoerders.S01E01.GERMAN.SUBBED.DOKU.1080P.WEB.X264-WAYNE
2019-04-16 20:35:47 TV-HD-X264 Ted.Bundy.Selbstportraet.eines.Serienmoerders.S01E02.GERMAN.SUBBED.DOKU.1080P.WEB.X264-WAYNE
2019-04-16 20:36:34 TV-HD-X264 Ted.Bundy.Selbstportraet.eines.Serienmoerders.S01E03.GERMAN.SUBBED.DOKU.1080P.WEB.X264-WAYNE
2019-04-16 20:37:01 TV-HD-X264 Ted.Bundy.Selbstportraet.eines.Serienmoerders.S01E04.GERMAN.SUBBED.DOKU.1080P.WEB.X264-WAYNE
2019-04-16 20:41:52 XXX-0DAY LeanneCrowVideos.18.10.08.Leanne.Crow.Arrives.In.St.Maarten.XXX.720p.MP4-Zsex3i
2019-04-16 20:43:05 XXX-0DAY 40SomethingMag.19.04.04.Raelynn.loves.sucking.and.fucking.that.BBC.XXX.720p.MP4-Zsex3i
2019-04-16 20:44:08 XXX-0DAY 40SomethingMag.19.04.11.Former.kindergarten.teacher.gets.ass.fucked.XXX.720p.MP4-Zsex3i
2019-04-16 20:44:42 TV-HD-X264 The.Biggest.Loser.Slovenija.S03E25.SI.720p.HDTV.x264-RADiOACTiVE
2019-04-16 20:44:42 TV-SD-X264 The.Biggest.Loser.Slovenija.S03E25.SI.HDTV.x264-RADiOACTiVE
2019-04-16 20:45:50 TV-HD-X264 Vinnarskallar.S01E06.SWEDiSH.1080p.WEB.X264-EXECUTION
2019-04-16 20:46:05 XXX-0DAY 40SomethingMag.19.04.12.Albys.Toy.Story.XXX.720p.MP4-Zsex3i
2019-04-16 20:46:20 TV-HD-X264 Vinnarskallar.Samtalen.S01E07.SWEDiSH.720p.WEB.X264-EXECUTION
2019-04-16 20:46:50 TV-HD-X264 Vinnarskallar.Samtalen.S01E07.SWEDiSH.1080p.WEB.X264-EXECUTION
2019-04-16 20:49:55 FLAC VA-Mr_Music_Country_01-CD-FLAC-2008-LoKET
2019-04-16 20:50:16 FLAC VA-Mr_Music_Country_02-CD-FLAC-2008-LoKET
2019-04-16 20:50:34 FLAC VA-Mr_Music_Country_03-CD-FLAC-2008-LoKET
2019-04-16 20:50:53 FLAC VA-Mr_Music_Country_04-CD-FLAC-2008-LoKET
2019-04-16 20:51:45 FLAC VA-Mr_Music_Country_05-CD-FLAC-2008-LoKET
2019-04-16 20:52:04 FLAC VA-Mr_Music_Country_06-CD-FLAC-2008-LoKET
2019-04-16 20:52:21 FLAC VA-Mr_Music_Country_07-CD-FLAC-2008-LoKET
2019-04-16 20:52:41 FLAC VA-Mr_Music_Country_08-CD-FLAC-2008-LoKET
2019-04-16 20:52:42 MP3 Betapsi-The_Sunrise_(Feat_Thommo)-SINGLE-WEB-2019-KLIN
2019-04-16 20:53:29 FLAC VA-Mr_Music_Country_09-CD-FLAC-2008-LoKET
2019-04-16 20:53:47 FLAC VA-Mr_Music_Country_10-CD-FLAC-2008-LoKET
2019-04-16 20:54:06 FLAC VA-Mr_Music_Country_11-CD-FLAC-2008-LoKET
2019-04-16 20:54:25 FLAC VA-Mr_Music_Country_12-CD-FLAC-2008-LoKET
2019-04-16 20:56:22 TV-X264 Shed.and.Buried.S02E01.Stormy.Weather.Hidden.Treasure.WEB.x264-GIMINI
2019-04-16 20:56:48 TV-HD-X264 Vinnarskallar.S01E06.REPACK.SWEDiSH.1080p.WEB.X264-EXECUTION
2019-04-16 20:57:10 MP3 Steve_Zerbysound-Disorder_(Feat_Nya)-(BLV6271740)-WEB-2018-KLIN
2019-04-16 20:57:25 TV-HD-X264 Shed.and.Buried.S02E01.Stormy.Weather.Hidden.Treasure.720p.WEB.x264-GIMINI
2019-04-16 20:58:12 TV-HD-X264 Ljepotice.I.Genijalci.S01E10.CROATiAN.720p.WEB.x264-RADiOACTiVE
2019-04-16 20:58:28 TV-HD-X264 Shed.and.Buried.S02E01.Stormy.Weather.Hidden.Treasure.1080p.WEB.x264-GIMINI
2019-04-16 20:58:51 TV-HD-X264 Vinnarskallar.S01E06.REPACK.SWEDiSH.720p.WEB.X264-EXECUTION
2019-04-16 20:59:30 TV-X264 Shed.and.Buried.S02E02.Hot.Rods.Trucks.and.Miniature.Bikes.WEB.x264-GIMINI
2019-04-16 21:00:32 TV-HD-X264 Shed.and.Buried.S02E02.Hot.Rods.Trucks.and.Miniature.Bikes.720p.WEB.x264-GIMINI
2019-04-16 21:01:03 X264 Mary.Poppins.Rueckkehr.2018.German.DL.1080p.BluRay.AVC-AVC4D
2019-04-16 21:01:35 TV-HD-X264 Shed.and.Buried.S02E02.Hot.Rods.Trucks.and.Miniature.Bikes.1080p.WEB.x264-GIMINI
2019-04-16 21:02:20 TV-HD-X264 Pa.Gransen.Med.Peter.Jihde.S01E02.SWEDiSH.720p.WEB.H264-EXECUTION
2019-04-16 21:02:42 TV-HD-X264 Pa.Gransen.Med.Peter.Jihde.S01E02.SWEDiSH.1080p.WEB.H264-EXECUTION
2019-04-16 21:07:08 TV-XVID Landmand.Soeger.Kaerlighed.Jorden.Rundt.S01E01.DANiSH.HDTV.x264-RCDiVX
2019-04-16 21:07:38 X264 Mortal.Engines.2018.3D.1080p.BluRay.x264-VETO
2019-04-16 21:08:43 APPS DriftForce-TiNYiSO
2019-04-16 21:10:33 TV-HD-X264 Landmand.Soeger.Kaerlighed.Jorden.Rundt.S01E01.DANiSH.720p.HDTV.x264-RCDiVX
2019-04-16 21:11:05 APPS PACKT.CHEF.FUNDAMENTALS.A.RECIPE.FOR.AUTOMATING.INFRASTRUCTURE-JGTiSO
2019-04-16 21:11:11 MP3 Mike_Duran-Dime_Donde_Estas-SINGLE-WEB-2019-KLIN
2019-04-16 21:12:44 MP3 DJ_Matute-Fire-(IND5CAAAB79117)-SINGLE-WEB-2019-KLIN
2019-04-16 21:14:57 TV-HD-X264 Ljepotice.I.Genijalci.S01E11.CROATiAN.720p.WEB.x264-RADiOACTiVE
2019-04-16 21:15:21 APPS PACKT.COMPLETE.ETHICAL.HACKING.AND.PENETRATION.TESTING.FOR.WEB.APPS-JGTiSO
2019-04-16 21:18:06 TV-HD-X264 Oak.Island.Fluch.und.Legende.Special.Chronik.einer.Schatzsuche.GERMAN.DOKU.720p.HDTV.x264-RiO
2019-04-16 21:18:46 TV-HD-X264 Barefoot.Contessa.S14E07.Perfect.French.Dinner.Party.720p.HDTV.x264-W4F
2019-04-16 21:18:50 TV-SD-X264 Barefoot.Contessa.S14E07.Perfect.French.Dinner.Party.HDTV.x264-W4F
2019-04-16 21:18:57 TV-HD-X264 Barefoot.Contessa.S15E01.Herb.Story.720p.HDTV.x264-W4F
2019-04-16 21:18:58 TV-SD-X264 Oak.Island.Fluch.und.Legende.Special.Chronik.einer.Schatzsuche.GERMAN.DOKU.HDTV.x264-RiO
2019-04-16 21:19:00 TV-SD-X264 Barefoot.Contessa.S15E01.Herb.Story.HDTV.x264-W4F
2019-04-16 21:19:11 TV-HD-X264 Barefoot.Contessa.S21E05.Birthday.Boat.Party.720p.HDTV.x264-W4F
2019-04-16 21:19:15 TV-SD-X264 Barefoot.Contessa.S21E05.Birthday.Boat.Party.HDTV.x264-W4F
2019-04-16 21:19:25 TV-HD-X264 Rachael.Ray.2019.04.09.Super-Mom.Daphne.Oz.720p.HDTV.x264-W4F
2019-04-16 21:19:28 TV-XVID Rachael.Ray.2019.04.09.Super-Mom.Daphne.Oz.HDTV.x264-W4F
2019-04-16 21:20:21 DAY DriftForce.RIP-Unleashed
2019-04-16 21:21:09 MP3 Pon2mik-Tu_Ne_Veux_Pas-SINGLE-WEB-FR-2019-AZF
2019-04-16 21:26:13 GAMES The.Sims.4.Strangerville.Update.v1.51.75.1020-CODEX
2019-04-16 21:28:21 TV-SD-X264 Pripad.Mauricius.1970.CZECH.PDTV.x264-I_KnoW
2019-04-16 21:30:17 TV-HD-X264 Bondi.Vet.S06E07.1080p.WEB.x264-GIMINI
2019-04-16 21:31:18 TV-HD-X264 Bondi.Vet.S06E07.720p.WEB.x264-GIMINI
2019-04-16 21:32:16 TV-X264 Beier.Bygger.Have.E01.DANiSH.720p.HDTV.x264-RCDiVX
2019-04-16 21:32:19 TV-X264 Bondi.Vet.S06E07.WEB.x264-GIMINI
2019-04-16 21:33:22 TV-HD-X264 Bondi.Vet.S06E08.1080p.WEB.x264-GIMINI
2019-04-16 21:34:24 TV-HD-X264 Bondi.Vet.S06E08.720p.WEB.x264-GIMINI
2019-04-16 21:34:53 PRE Rocket.League.Rocket.Pass.3-PLAZA
2019-04-16 21:35:07 0DAY AUTODESK_VRED_DESIGN_V2020_WIN64-XFORCE
2019-04-16 21:35:25 TV-X264 Bondi.Vet.S06E08.WEB.x264-GIMINI
2019-04-16 21:35:35 TV-HD-X264 I.Hus.Til.Halsen.S07E03.DANiSH.720p.WEB.h264-DANES
2019-04-16 21:36:32 TV-XVID Beier.Bygger.Have.E01.DANiSH.HDTV.x264-RCDiVX
2019-04-16 21:37:30 TV-HD-X264 Kronks.New.Groove.2005.MULTi.1080p.HDTV.H264-UKDHD
2019-04-16 21:42:00 0DAY AUTODESK_VRED_PRESENTER_V2020_WIN64-XFORCE
2019-04-16 21:42:24 TV-HD-X264 Ljepotice.I.Genijalci.S01E12.CROATiAN.720p.WEB.x264-RADiOACTiVE
2019-04-16 21:43:57 TV-HD-X264 My.Kitchen.Rules.S10E45.1080p.HDTV.h264-CCT
2019-04-16 21:48:47 0DAY AUTODESK_VRED_PRO_V2020_WIN64-XFORCE
2019-04-16 21:54:39 MP3 Aurolab--Victory-(SOVEL004)-WEB-2019-dh
2019-04-16 21:55:34 TV-X264 Pandaerne.Kommer.E03.DANiSH.720p.HDTV.x264-RCDiVX
2019-04-16 21:55:39 TV-XVID Australian.Crime.Stories.S03E07.HDTV.x264-CCT
2019-04-16 21:56:44 TV-HD-X264 Australian.Crime.Stories.S03E07.720p.HDTV.x264-CCT
2019-04-16 21:57:17 MP3 Super_Paolo--MSLU-(DMSP009)-WEB-2019-dh
2019-04-16 21:57:20 TV-HD-X264 Seattle.Firefighters.Die.jungen.Helden.S02E04.GERMAN.DUBBED.720p.WEB.h264-idTV
2019-04-16 21:57:51 PRE Australian.Crime.Stories.S03E07.1080p.HDTV.h264-CCT
2019-04-16 21:58:01 EBOOK Packt.The.Complete.Self-Driving.Car.Course.Applied.Deep.Learning-XQZT
2019-04-16 21:58:15 TV-X264 Seattle.Firefighters.Die.jungen.Helden.S02E04.GERMAN.DUBBED.WEBRiP.x264-idTV
2019-04-16 22:00:22 TV-HD-X264 Holby.City.S21E16.720p.HDTV.x264-ORGANiC
2019-04-16 22:00:39 TV-HD-X264 Seattle.Firefighters.Die.jungen.Helden.S02E04.GERMAN.DL.DUBBED.1080p.WEB.h264-VoDTv
2019-04-16 22:01:00 TV-X264 Nightmare.Tenant.2019.720p.HDTV.x264-CRiMSON
2019-04-16 22:01:20 X264 Nightmare.Tenant.2019.HDTV.x264-CRiMSON
2019-04-16 22:01:41 TV-X264 Steve.2019.04.15.720p.HDTV.x264-CRiMSON
2019-04-16 22:02:00 TV-SD-X264 Steve.2019.04.15.HDTV.x264-CRiMSON
2019-04-16 22:03:49 TV-X264 Boernechok.Paa.Plejehjemmet.E01.DANiSH.720p.HDTV.x264-RCDiVX
2019-04-16 22:05:21 TV-HD-X264 Holby.City.S21E16.North.And.South.1080p.HDTV.H264-KETTLE
2019-04-16 22:06:25 MP3 Pete_Tong_-_All_Gone_Pete_Tong__Incl_The_Hotmix_by_Sasha-CABLE-04-16-2019-TALiON
2019-04-16 22:07:30 X264 Rasen.1998.1080p.BluRay.x264-GHOULS
2019-04-16 22:07:37 TV-XVID Boernechok.Paa.Plejehjemmet.E01.DANiSH.HDTV.x264-RCDiVX
2019-04-16 22:09:32 X264 The.Return.of.the.First.Avenger.2014.German.DL.2160p.UHD.BluRay.x265-ENDSTATiON
2019-04-16 22:09:54 FLAC Lafayette_Afro_Rock_Band-Darkest_Light_The_Best_Of_The_Lafayette_Afro_Rock_Band-Promo-CD-FLAC-1999-MUNDANE
2019-04-16 22:10:21 TV-SD-X264 Holby.City.S21E16.North.And.South.HDTV.x264-KETTLE
2019-04-16 22:11:05 X264 The.Cabin.In.The.Woods.2012.German.DL.2160p.UHD.BluRay.x265-HDMEDiA
2019-04-16 22:11:07 TV-SD-X264 Pandaerne.Kommer.E03.DANiSH.HDTV.x264-RCDiVX
2019-04-16 22:11:17 DAY Juicy.News.S03.Special.Paaske-edition.Jonass.Og.Teitur.Overtager.Studiet.DANiSH.720p.WEB.h264-DANES
2019-04-16 22:11:25 X264 Rasen.1998.720p.BluRay.x264-GHOULS
2019-04-16 22:11:26 X264 Gone.Are.the.Days.2018.RERip.1080p.BluRay.x264-CAPRiCORN
2019-04-16 22:14:02 APPS PACKT.HOW.HACKERS.FIND.SQL.INJECTIONS.IN.MINUTES.WITH.SQLMAP-JGTiSO
2019-04-16 22:15:02 APPS PACKT.COMPTIA.SECURITY.PLUS.SY0.501.COMPLETE.COURSE.AND.PRACTICE.EXAM-JGTiSO
2019-04-16 22:15:07 X264 The.Return.of.the.First.Avenger.2014.German.DL.2160p.UHD.BluRay.HEVC-UNTHEVC
2019-04-16 22:17:03 TV-SD-X264 Billions.S04E05.SUBFRENCH.HDTV.x264-AMB3R
2019-04-16 22:17:13 X264 Rasen.1998.REMASTERED.BDRip.x264-GHOULS
2019-04-16 22:19:26 X264 Ringu.2.1999.1080p.BluRay.x264-GHOULS
2019-04-16 22:20:26 MP3 VA-Disco_Polo_Part_5-(KLLKTR005DP)-WEB-2019-dh
2019-04-16 22:21:01 TV-HD-X264 Billions.S04E05.SUBFRENCH.1080p.HDTV.H264-HYBRiS
2019-04-16 22:21:28 TV-HD-X264 Dancing.With.The.Stars.AU.S16E09.1080p.HDTV.x264-CCT
2019-04-16 22:22:02 DAY Rocket_League_Ultimate_Edition_Update_v1.1.8_NSW-VENOM
2019-04-16 22:22:56 TV-SD-X264 Super.Rugby.Womens.2019.04.14.NSW.vs.QLD.HDTV.x264-WiNNiNG
2019-04-16 22:23:25 MP3 Nu_Souls--Strings_Of_Love-(CUCU031)-SINGLE-WEB-2019-dh
2019-04-16 22:24:47 X264 Ringu.2.1999.720p.BluRay.x264-GHOULS
2019-04-16 22:26:41 MP3 Hatik-Chaise_Pliante_Pt_6-SINGLE-WEB-FR-2019-OND
2019-04-16 22:27:35 DAY One.Finger.Death.Punch.2.RIP-SiMPLEX
2019-04-16 22:27:42 TV-HD-X264 The.Good.Doctor.S02E17.GERMAN.720p.HDTV.x264-ACED
2019-04-16 22:28:13 MP3 Layanah-Pecho-SINGLE-WEB-FR-2019-OND
2019-04-16 22:28:21 TV-HD-X264 The.Good.Doctor.S02E17.GERMAN.DL.1080p.HDTV.h264-ACED
2019-04-16 22:29:00 TV-SD-X264 The.Good.Doctor.S02E17.GERMAN.HDTV.x264-ACED
2019-04-16 22:29:26 X264 Ringu.2.1999.REMASTERED.BDRip.x264-GHOULS
2019-04-16 22:29:43 MP3 New_School-Ca_Bouge_Pas-SINGLE-WEB-FR-2019-OND
2019-04-16 22:31:14 MP3 New_School-Dou_Je_Viens-SINGLE-WEB-FR-2019-OND
2019-04-16 22:31:55 0DAY Staxel.v1.4.26.RIP-SiMPLEX
2019-04-16 22:32:18 MP3 Rod_Rinnert--From_The_Moon-(4061798227921)-WEB-2019-dh
2019-04-16 22:32:45 MP3 New_School-New_School-WEB-FR-2015-OND
2019-04-16 22:34:28 TV-X264 Im.Sorry.S02E05.Extramoepse.GERMAN.HDTVRip.x264-MDGP
2019-04-16 22:35:56 TV-HD-X264 Im.Sorry.S02E05.Extramoepse.GERMAN.720p.HDTV.x264-MDGP
2019-04-16 22:36:04 TV-HD-X264 Mayonaka.no.Occult.Koumuin.E02.SUBFRENCH.1080p.WEB.x264-AMB3R
2019-04-16 22:37:41 XVID The.Trap.2019.SPANiSH.WEB.X264-iBERiCO
2019-04-16 22:38:10 X264 The.Trap.2019.SPANiSH.MULTi.720p.WEB.X264-iBERiCO
2019-04-16 22:38:17 TV-HD-X264 Deadly.Class.S01E08.Kein.Weg.zurueck.GERMAN.DL.1080p.HDTV.x264-TMSF
2019-04-16 22:38:27 X264 The.Trap.2019.SPANiSH.MULTi.1080p.WEB.X264-iBERiCO
2019-04-16 22:39:39 TV-HD-X264 Deadly.Class.S01E08.Kein.Weg.zurueck.GERMAN.DL.720p.HDTV.x264-TMSF
2019-04-16 22:40:03 TV-SD-X264 Deadly.Class.S01E08.Kein.Weg.zurueck.GERMAN.WS.HDTVRip.x264-TMSF
2019-04-16 22:40:22 TV-HD-X264 Im.Sorry.S02E05.Extramoepse.GERMAN.1080p.HDTV.x264-MDGP
2019-04-16 22:42:07 TV-HD-X264 Super.Rugby.Womens.2019.04.14.NSW.vs.QLD.720p.HDTV.x264-WiNNiNG
2019-04-16 22:43:11 DAY Star.Traders.Frontiers.v2.5.3-SiMPLEX
2019-04-16 22:48:10 TV-HD-X264 Paradise.Hotel.S12E21.SWEDiSH.720p.WEB.H264-EXECUTION
2019-04-16 22:48:34 TV-HD-X264 Paradise.Hotel.S12E21.SWEDiSH.1080p.WEB.H264-EXECUTION
2019-04-16 22:48:35 TV-HD-X264 Bondi.Vet.S08E11.1080p.WEB.x264-GIMINI
2019-04-16 22:49:35 TV-X264 Bondi.Vet.S08E11.WEB.x264-GIMINI
2019-04-16 22:50:37 TV-HD-X264 Bondi.Vet.S08E12.1080p.WEB.x264-GIMINI
2019-04-16 22:51:38 TV-X264 Bondi.Vet.S08E12.WEB.x264-GIMINI
2019-04-16 22:53:05 TV-HD-X264 60.Minutes.S51E26.1080p.WEB.x264-LiGATE
2019-04-16 22:54:45 FLAC Aflacko-4500-WEB-2019-ENRAGED
2019-04-16 22:54:56 PRE Drew_Beez-1100_Money-WEB-2018-ENRAGED
2019-04-16 22:55:06 TV-HD-X264 The.Young.and.the.Restless.S46E154.1080p.WEB.x264-LiGATE
2019-04-16 22:55:07 MP3 Drew_Beez-Slayed-SINGLE-WEB-2019-ENRAGED
2019-04-16 22:55:19 MP3 Hottboy_Zay-Money_Dance-SINGLE-WEB-2019-ENRAGED
2019-04-16 22:55:30 PRE JAH_JAH-Superwoman-SINGLE-WEB-2019-ENRAGED
2019-04-16 22:55:41 MP3 Jah_Jah-Intelligence_Report-WEB-2014-ENRAGED
2019-04-16 22:55:52 MP3 Jah_Jah-Made_in_Brazil-WEB-2014-ENRAGED
2019-04-16 22:56:04 MP3 Jah_Jah-Take_A_Lick_Take_A_Bite-WEB-2014-ENRAGED
2019-04-16 22:56:15 MP3 June-They_Know-SINGLE-WEB-2019-ENRAGED
2019-04-16 22:56:27 MP3 Str8Cash_Peezy-DIG_These_Blues-WEB-2018-ENRAGED
2019-04-16 22:56:38 MP3 Str8Cash_Peezy-Dig_These_Blues_2-WEB-2018-ENRAGED
2019-04-16 22:56:49 MP3 Str8Cash_Peezy-Hurricane_Peezy-WEB-2018-ENRAGED
2019-04-16 22:57:00 MP3 Str8Cash_Peezy-Texas_Most_Hated-WEB-2018-ENRAGED
2019-04-16 22:57:37 TV-HD-X264 The.Young.and.the.Restless.S46E155.1080p.WEB.x264-LiGATE
2019-04-16 22:59:10 TV-HD-X264 The.Young.and.the.Restless.S46E154.720p.WEB.x264-LiGATE
2019-04-16 23:00:34 TV-X264 The.Young.and.the.Restless.S46E155.WEB.x264-LiGATE
2019-04-16 23:02:00 TV-HD-X264 The.Young.and.the.Restless.S46E155.720p.WEB.x264-LiGATE
2019-04-16 23:03:14 TV-X264 The.Young.and.the.Restless.S46E154.WEB.x264-LiGATE
2019-04-16 23:04:54 TV-HD-X264 60.Minutes.S51E26.720p.WEB.x264-LiGATE
2019-04-16 23:05:56 TV-X264 60.Minutes.S51E26.WEB.x264-LiGATE
2019-04-16 23:07:04 TV-HD-X264 Close.Calls.On.Camera.S07E07.720p.WEB.h264-LiGATE
2019-04-16 23:08:06 TV-X264 Close.Calls.On.Camera.S07E07.WEB.h264-LiGATE
2019-04-16 23:10:01 TV-HD-X264 The.Repair.Shop.S04E10.720p.WEBRip.x264-LiGATE
2019-04-16 23:10:50 MP3 DJ_Gizmo_-_Thats_How_It_Is_(Freestyle_Mix)-SINGLE-WEB-2019-MMS
2019-04-16 23:11:35 TV-XVID The.Repair.Shop.S04E10.WEB.h264-LiGATE
2019-04-16 23:11:49 TV-X264 Billions.S04E05.SUBFRENCH.720p.HDTV.x264-HYBRiS
2019-04-16 23:12:31 BLURAY Rasen.1998.Ringu.2.1999.COMPLETE.BLURAY-VEXHD
2019-04-16 23:13:05 TV-X264 The.Bold.and.the.Beautiful.S32E143.WEB.x264-W4F
2019-04-16 23:13:07 TV-HD-X264 Talking.Married.S02E03.720p.WEB.h264-LiGATE
2019-04-16 23:13:37 TV-HD-X264 The.Bold.and.the.Beautiful.S32E143.720p.WEB.x264-W4F
2019-04-16 23:13:54 TV-HD-X264 The.Bold.and.the.Beautiful.S32E143.1080p.WEB.x264-W4F
2019-04-16 23:14:19 TV-X264 Talking.Married.S02E03.WEB.h264-LiGATE
2019-04-16 23:15:40 TV-HD-X264 Talking.Married.S02E04.720p.WEB.h264-LiGATE
2019-04-16 23:16:37 TV-X264 Talking.Married.S02E04.WEB.h264-LiGATE
2019-04-16 23:17:17 MP3 Tyga-Goddamn-SINGLE-WEB-2019-ENRAGED
2019-04-16 23:17:50 TV-HD-X264 Talking.Married.S02E05.720p.WEB.h264-LiGATE
2019-04-16 23:19:50 TV-X264 Talking.Married.S02E05.WEB.h264-LiGATE
2019-04-16 23:20:26 TV-HD-X264 Talking.Married.S02E06.720p.WEB.h264-LiGATE
2019-04-16 23:21:55 TV-X264 Talking.Married.S02E06.WEB.h264-LiGATE
2019-04-16 23:22:25 TV-HD-X264 Talking.Married.S02E07.720p.WEB.h264-LiGATE
2019-04-16 23:23:54 TV-X264 Talking.Married.S02E07.WEB.h264-LiGATE
2019-04-16 23:24:15 TV-X264 Curfew.S01E07.1080p.HDTV.x264-MTB
2019-04-16 23:24:46 MP3 Jasiah-Case_19_(Feat_6ix9ine)-SINGLE-WEB-2019-OND
2019-04-16 23:25:17 MP3 Jasiah-Team_HYS-SINGLE-WEB-2018-OND
2019-04-16 23:25:23 MP3 Aimoon_and_Roman_Messer_ft._Ridgewalkers_-_Your_Soul-(SND025)-WEB-2014-MMS
2019-04-16 23:25:47 TV-HD-X264 Curfew.S01E07.720p.HDTV.x264-MTB
2019-04-16 23:26:42 MP3 Kash_Doll-Hustla-SINGLE-WEB-2019-OND
2019-04-16 23:26:44 PRE Never_Surrender_and_Alee_-_Born_Free_(Free_Festival_2019_Hardcore_Anthem)-SINGLE-WEB-2019-MMS_INT
2019-04-16 23:27:04 TV-SD-X264 Trust.Me.S02E01.HDTV.x264-MTB
2019-04-16 23:27:15 MP3 X-Pander_-_Gods_Will_(Extended)-(ROUGHR013)-SINGLE-WEB-2019-MMS
2019-04-16 23:27:47 TV-HD-X264 Talking.Married.S02E08.720p.WEB.h264-LiGATE
2019-04-16 23:28:23 TV-SD-X264 Curfew.S01E07.HDTV.x264-MTB
2019-04-16 23:29:06 TV-X264 Talking.Married.S02E08.WEB.h264-LiGATE
2019-04-16 23:30:17 TV-HD-X264 Curfew.S01E08.1080p.HDTV.x264-MTB
2019-04-16 23:31:36 TV-X264 Keeping.Faith.S01E02.Bohrende.Fragen.GERMAN.DL.1080p.HDTV.x264-MDGP
2019-04-16 23:31:40 TV-X264 Curfew.S01E08.720p.HDTV.x264-MTB
2019-04-16 23:32:05 FLAC Poor_Nameless_Boy-Wake_Up_Call-CDEP-FLAC-2019-MUNDANE
2019-04-16 23:32:53 MP3 Poor_Nameless_Boy-Wake_Up_Call-EP-2019-VULGAR
2019-04-16 23:33:01 TV-SD-X264 Curfew.S01E08.HDTV.x264-MTB
2019-04-16 23:33:27 TV-HD-X264 Keeping.Faith.S01E02.Bohrende.Fragen.GERMAN.DL.720p.HDTV.x264-MDGP
2019-04-16 23:33:48 X264 Melo.1986.1080p.BluRay.x264-GHOULS
2019-04-16 23:35:43 TV-X264 Keeping.Faith.S01E02.Bohrende.Fragen.GERMAN.HDTVRip.x264-MDGP
2019-04-16 23:36:04 X264 Melo.1986.720p.BluRay.x264-GHOULS
2019-04-16 23:36:51 TV-X264 Talking.Married.S02E09.720p.WEB.h264-LiGATE
2019-04-16 23:37:53 TV-XVID Talking.Married.S02E09.WEB.h264-LiGATE
2019-04-16 23:38:41 XVID Melo.1986.iNTERNAL.BDRip.x264-GHOULS
2019-04-16 23:39:00 TV-X264 Talking.Married.S02E10.720p.WEB.h264-LiGATE
2019-04-16 23:39:05 PRE WWE.Monday.Night.RAW.2019.04.15.WEB.x264-PLUTONiUM
2019-04-16 23:39:43 0DAY AUTODESK_FLAME_V2020_MACOSX-XFORCE
2019-04-16 23:41:17 TV-X264 Talking.Married.S02E10.WEB.h264-LiGATE
2019-04-16 23:42:04 TV-HD-X264 30.Minute.Meals.S28E16.Mexi-Mac.Burgers.and.Waffle.Fries.with.Taco.Sauce.720p.WEBRip.x264-CAFFEiNE
2019-04-16 23:42:28 TV-HD-X264 Talking.Married.S02E11.720p.WEB.h264-LiGATE
2019-04-16 23:43:42 X264 UCL.2019.04.16.Quarter.Final.FC.Barcelona.vs.Manchester.United.720p.WEB.h264-VERUM
2019-04-16 23:44:15 TV-X264 Talking.Married.S02E11.WEB.h264-LiGATE
2019-04-16 23:45:26 TV-HD-X264 Talking.Married.S02E12.720p.WEB.h264-LiGATE
2019-04-16 23:46:35 0DAY AUTODESK_FACTORY_DESIGN_SUITE_ULTIMATE_V2020_WIN64-XFORCE
2019-04-16 23:47:37 TV-SD-X264 30.Minute.Meals.S28E16.Mexi-Mac.Burgers.and.Waffle.Fries.with.Taco.Sauce.WEBRip.x264-CAFFEiNE
2019-04-16 23:47:55 TV-HD-X264 Trust.Me.2017.S02E01.720p.HDTV.x264-MTB
2019-04-16 23:48:32 TV-HD-X264 A.Question.of.Sport.S48E36.Highlights.720p.WEB.h264-KOMPOST
2019-04-16 23:48:52 TV-HD-X264 Fussball.1.Bundesliga.2018-2019.29.Spieltag.1.FC.Koeln.vs.Hamburger.SV.German.1080p.HDTV.x264-iSEC
2019-04-16 23:49:43 MP3 AR__Adrian_Rivera-Son_of_Angel-WEB-2019-ENRAGED
2019-04-16 23:49:55 MP3 Akira_the_Don_and_Jocko_Willink-The_Path-WEB-2019-ENRAGED
2019-04-16 23:50:03 TV-X264 Back.to.Life.S01E02.720p.WEBRip.x264-KOMPOST
2019-04-16 23:50:06 MP3 Baby_Soulja-Still_Standing-WEB-2019-ENRAGED
2019-04-16 23:50:20 MP3 Bullet_Jones-Blue_Collar_Blues-WEB-2019-ENRAGED
2019-04-16 23:50:29 X264 Gone.Are.the.Days.2018.RERip.720p.BluRay.x264-ViRGO
2019-04-16 23:50:31 MP3 CM_Mcduff-1500_Days_of_Summer-WEB-2018-ENRAGED
2019-04-16 23:50:42 MP3 Dj_Michael_Watts-Swishahouse_The_Best_In_Texas_10-WEB-2019-ENRAGED
2019-04-16 23:50:56 MP3 Dumb_Ugly-Casket-WEB-2019-ENRAGED
2019-04-16 23:51:07 MP3 ElementStyles-Equilibrium-WEB-2019-ENRAGED
2019-04-16 23:51:20 MP3 FloStorm-The_Eye_of_the_Storm-WEB-2019-ENRAGED
2019-04-16 23:51:32 TV-X264 Back.to.Life.S01E03.720p.WEBRip.x264-KOMPOST
2019-04-16 23:51:32 MP3 Flostorm-Storming_The_Bastille-WEB-2012-ENRAGED
2019-04-16 23:51:43 MP3 Jacobi_Ryan-Regardless_-_EP-WEB-2018-ENRAGED
2019-04-16 23:51:54 MP3 Jacobi_Ryan-Viewers_Discretion-WEB-2019-ENRAGED
2019-04-16 23:52:05 PRE Lil_CJ_Kasino-Gang_Shit_Only_3-WEB-2019-ENRAGED
2019-04-16 23:52:17 MP3 Lil_Smitty-Brown_Monster-WEB-2015-ENRAGED
2019-04-16 23:52:18 MP3 VA_-_The_Survival_Cuts_001-WEB-2015-BiLDERBERG
2019-04-16 23:52:29 MP3 Lil_Smitty-I_Aint_Going_Nowhere-WEB-2014-ENRAGED
2019-04-16 23:52:39 MP3 Lil_Smitty-The_Wasted_Yearz_Album-WEB-2019-ENRAGED
2019-04-16 23:52:51 MP3 Lil_Smitty-Uninspired-WEB-2017-ENRAGED
2019-04-16 23:53:02 TV-X264 Back.to.Life.S01E04.720p.WEBRip.x264-KOMPOST
2019-04-16 23:53:03 MP3 Lil_Smitty_and_Tlow-The_Calvary-WEB-2016-ENRAGED
2019-04-16 23:53:13 MP3 Official_Choxan-Patience_(EP)-WEB-2019-ENRAGED
2019-04-16 23:53:16 TV-X264 Outback.Opal.Hunters.S02E09.WEB.x264-UNDERBELLY
2019-04-16 23:53:25 MP3 Shorty_Bralik-LOaF_(Life_of_a_Felon)-WEB-2018-ENRAGED
2019-04-16 23:53:37 MP3 Shorty_Bralik-Real_Right_Big_Homie_Season-WEB-2017-ENRAGED
2019-04-16 23:53:48 MP3 Snake_20-Snake_Season-WEB-2019-ENRAGED
2019-04-16 23:53:57 APPS AUTODESK.HSMWORKS.ULTIMATE.MULTI.V2020-ISO
2019-04-16 23:53:59 MP3 Vallejo_Tunes-The_Otha_Side-WEB-2017-ENRAGED
2019-04-16 23:54:10 MP3 West_Vallejo_Tunes-Pressure_Makes_Diamonds-WEB-2019-ENRAGED
2019-04-16 23:54:18 TV-X264 Outback.Opal.Hunters.S02E09.720p.WEB.x264-UNDERBELLY
2019-04-16 23:54:32 TV-X264 Back.to.Life.S01E05.720p.WEBRip.x264-KOMPOST
2019-04-16 23:55:21 TV-X264 Outback.Opal.Hunters.S02E09.1080p.WEB.x264-UNDERBELLY
2019-04-16 23:55:42 TV-X264 One-Punch.Man.Second.Season.E02.SUBFRENCH.720p.HDTV.x264-AMB3R
2019-04-16 23:55:54 TV-XVID One-Punch.Man.Second.Season.E02.SUBFRENCH.HDTV.x264-AMB3R
2019-04-16 23:56:02 TV-X264 Back.to.Life.S01E06.720p.WEBRip.x264-KOMPOST
2019-04-16 23:56:40 MP3 VA_-_The_Survival_Cuts_002-WEB-2016-BiLDERBERG
2019-04-16 23:57:07 MP3 VA_-_The_Survival_Cuts_003-WEB-2019-BiLDERBERG
2019-04-16 23:57:29 TV-XVID Talking.Married.S02E12.WEB.h264-LiGATE
2019-04-16 23:57:32 PRE Celebrity.Juice.S21E03.WEB.x264-KOMPOST
2019-04-16 23:57:51 MP3 James_Curd_-_Show_Me_What_You_Got-WEB-2019-BiLDERBERG
2019-04-16 23:59:03 PRE Celebrity.Juice.S21E04.WEB.x264-KOMPOST
2019-04-16 23:59:47 TV-XVID The.Magicians.US.S04E12.FRENCH.HDTV.x264-AMB3R